[[{"header":{"parameterUnit":"m.s-1","parameterCategory":1,"la1":31.0,"la2":29.5877,"lo1":-88.7671,"lo2":-86.6584,"dy":0.0162,"dx":0.0185,"nx":115,"ny":88,"refTime":"2023-02-27T18:00:00:Z","depth":0,"parameterNumber":2,"parameterNumberName":"U-component_of_WINDS"},"data":[0.0,0.0,0.0,0.0,0.0,0.0,0.0,0.0,0.0,0.0,0.0,0.0,0.0,0.0,0.0,0.0,0.0,0.0,0.0,0.0,0.0,0.0,0.0,0.0,0.0,0.0,0.0,0.0,0.0,0.0,0.0,0.0,0.0,0.0,0.0,0.0,0.0,0.0,0.0,0.0,0.0,0.0,0.0,0.0,0.0,0.0,0.0,0.0,0.0,0.0,0.0,0.0,0.0,0.0,0.0,0.0,0.0,0.0,0.0,0.0,0.0,0.0,0.0,0.0,0.0,0.0,0.0,0.0,0.0,0.0,0.0,0.0,0.0,0.0,0.0,0.0,0.0,0.0,0.0,0.0,0.0,0.0,0.0,0.0,0.0,0.0,0.0,0.0,0.0,0.0,0.0,0.0,0.0,0.0,0.0,0.0,0.0,0.0,0.0,0.0,0.0,0.0,0.0,0.0,0.0,0.0,0.0,0.0,0.0,0.0,0.0,0.0,0.0,0.0,0.0,0.0,0.0,0.0,0.0,0.0,0.0,0.0,0.0,0.0,0.0,0.0,0.0,0.0,0.0,0.0,0.0,0.0,0.0,0.0,0.0,0.0,0.0,0.0,0.0,0.0,0.0,0.0,0.0,0.0,0.0,0.0,0.0,0.0,0.0,0.0,0.0,0.0,0.0,0.0,0.0,0.0,0.0,0.0,0.0,0.0,0.0,0.0,0.0,0.0,0.0,0.0,0.0,0.0,0.0,0.0,0.0,0.0,0.0,0.0,0.0,0.0,0.0,0.0,0.0,0.0,0.0,0.0,0.0,0.0,0.0,0.0,0.0,0.0,0.0,0.0,0.0,0.0,0.0,0.0,0.0,0.0,0.0,0.0,0.0,0.0,0.0,0.0,0.0,0.0,0.0,0.0,0.0,0.0,0.0,0.0,0.0,0.0,0.0,0.0,0.0,0.0,0.0,0.0,0.0,0.0,0.0,0.0,0.0,0.0,0.0,0.0,0.0,0.0,0.0,0.0,0.0,0.0,0.0,0.0,0.0,0.0,0.0,0.0,0.0,0.0,0.0,0.0,0.0,0.0,0.0,0.0,0.0,0.0,0.0,0.0,0.0,0.0,0.0,0.0,0.0,0.0,0.0,0.0,0.0,0.0,0.0,0.0,0.0,0.0,0.0,0.0,0.0,0.0,0.0,0.0,0.0,0.0,0.0,0.0,0.0,0.0,0.0,0.0,0.0,0.0,0.0,0.0,0.0,0.0,0.0,0.0,0.0,0.0,0.0,0.0,0.0,0.0,0.0,0.0,0.0,0.0,0.0,0.0,0.0,0.0,0.0,0.0,0.0,0.0,0.0,0.0,0.0,0.0,0.0,0.0,0.0,0.0,0.0,0.0,0.0,0.0,0.0,0.0,0.0,0.0,0.0,0.0,0.0,0.0,0.0,0.0,0.0,0.0,0.0,0.0,0.0,0.0,0.0,0.0,0.0,0.0,0.0,0.0,0.0,0.0,0.0,0.0,0.0,0.0,0.0,0.0,0.0,0.0,0.0,0.0,0.0,0.0,0.0,0.0,0.0,0.0,0.0,0.0,0.0,0.0,0.0,0.0,0.0,0.0,0.0,0.0,0.0,0.0,0.0,0.0,0.0,0.0,0.0,0.0,0.0,0.0,0.0,0.0,0.0,0.0,0.0,0.0,0.0,0.0,0.0,0.0,0.0,0.0,0.0,0.0,0.0,0.0,0.0,0.0,0.0,0.0,0.0,0.0,0.0,0.0,0.0,0.0,0.0,0.0,0.0,0.0,0.0,0.0,0.0,0.0,0.0,0.0,0.0,0.0,0.0,0.0,0.0,0.0,0.0,0.0,0.0,0.0,0.0,0.0,0.0,0.0,0.0,0.0,0.0,0.0,0.0,0.0,0.0,0.0,0.0,0.0,0.0,0.0,0.0,0.0,0.0,0.0,0.0,0.0,0.0,0.0,0.0,0.0,0.0,0.0,0.0,0.0,0.0,0.0,0.0,0.0,0.0,0.0,0.0,0.0,0.0,0.0,0.0,0.0,0.0,0.0,0.0,0.0,0.0,0.0,0.0,0.0,0.0,0.0,0.0,0.0,0.0,0.0,0.0,0.0,0.0,0.0,0.0,0.0,0.0,0.0,0.0,0.0,0.0,0.0,0.0,0.0,0.0,0.0,0.0,0.0,0.0,0.0,0.0,0.0,0.0,0.0,0.0,0.0,0.0,0.0,0.0,0.0,0.0,0.0,0.0,0.0,0.0,0.0,0.0,0.0,0.0,0.0,0.0,0.0,0.0,0.0,0.0,0.0,0.0,0.0,0.0,0.0,0.0,0.0,0.0,0.0,0.0,0.0,0.0,0.0,0.0,0.0,0.0,0.0,0.0,0.0,0.0,0.0,0.0,0.0,0.0,0.0,0.0,0.0,0.0,0.0,0.0,0.0,0.0,0.0,0.0,0.0,0.0,0.0,0.0,0.0,0.0,0.0,0.0,0.0,0.0,0.0,0.0,0.0,0.0,0.0,0.0,0.0,0.0,0.0,0.0,0.0,0.0,0.0,0.0,0.0,0.0,0.0,0.0,0.0,0.0,0.0,0.0,0.0,0.0,0.0,0.0,0.0,0.0,0.0,0.0,0.0,0.0,0.0,0.0,0.0,0.0,0.0,0.0,0.0,0.0,0.0,0.0,0.0,0.0,0.0,0.0,0.0,0.0,0.0,0.0,0.0,0.0,0.0,0.0,0.0,0.0,0.0,0.0,0.0,0.0,0.0,0.0,0.0,0.0,0.0,0.0,0.0,0.0,0.0,0.0,0.0,0.0,0.0,0.0,0.0,0.0,0.0,0.0,0.0,0.0,0.0,0.0,0.0,0.0,0.0,0.0,0.0,0.0,0.0,0.0,0.0,0.0,0.0,0.0,0.0,0.0,0.0,0.0,0.0,0.0,0.0,0.0,0.0,0.0,0.0,0.0,0.0,0.0,0.0,0.0,0.0,0.0,0.0,0.0,0.0,0.0,0.0,0.0,0.0,0.0,0.0,0.0,0.0,0.0,0.0,0.0,0.0,0.0,0.0,0.0,0.0,0.0,0.0,0.0,0.0,0.0,0.0,0.0,0.0,0.0,0.0,0.0,0.0,0.0,0.0,0.0,0.0,0.0,0.0,0.0,0.0,0.0,0.0,0.0,0.0,0.0,0.0,0.0,0.0,0.0,0.0,0.0,0.0,0.0,0.0,0.0,0.0,0.0,0.0,0.0,0.0,0.0,0.0,0.0,0.0,0.0,0.0,0.0,0.0,0.0,0.0,0.0,0.0,0.0,0.0,0.0,0.0,0.0,0.0,0.0,0.0,0.0,0.0,0.0,0.0,0.0,0.0,0.0,0.0,0.0,0.0,0.0,0.0,0.0,0.0,0.0,0.0,0.0,0.0,0.0,0.0,0.0,0.0,0.0,0.0,0.0,0.0,0.0,0.0,0.0,0.0,0.0,0.0,0.0,0.0,0.0,0.0,0.0,0.0,0.0,0.0,0.0,0.0,0.0,0.0,0.0,0.0,0.0,0.0,0.0,0.0,0.0,0.0,0.0,0.0,0.0,0.0,0.0,0.0,0.0,0.0,0.0,0.0,0.0,0.0,0.0,0.0,0.0,0.0,0.0,0.0,0.0,0.0,0.0,0.0,0.0,0.0,0.0,0.0,0.0,0.0,0.0,0.0,0.0,0.0,0.0,0.0,0.0,0.0,0.0,0.0,0.0,0.0,0.0,0.0,0.0,0.0,0.0,0.0,0.0,0.0,0.0,0.0,0.0,0.0,0.0,0.0,0.0,0.0,0.0,0.0,0.0,0.0,0.0,0.0,0.0,0.0,0.0,0.0,0.0,0.0,0.0,0.0,0.0,0.0,0.0,0.0,0.0,0.0,0.0,0.0,0.0,0.0,0.0,0.0,0.0,0.0,0.0,0.0,0.0,0.0,0.0,0.0,0.0,0.0,0.0,0.0,0.0,0.0,0.0,0.0,0.0,0.0,0.0,0.0,0.0,0.0,0.0,0.0,0.0,0.0,0.0,0.0,0.0,0.0,0.0,0.0,0.0,0.0,0.0,0.0,0.0,0.0,0.0,0.0,0.0,0.0,0.0,0.0,0.0,0.0,0.0,0.0,0.0,0.0,0.0,0.0,0.0,0.0,0.0,0.0,0.0,0.0,0.0,0.0,0.0,0.0,0.0,0.0,0.0,0.0,0.0,0.0,0.0,0.0,0.0,0.0,0.0,0.0,-4.6192,0.0,0.0,0.0,0.0,0.0,0.0,0.0,0.0,0.0,0.0,0.0,0.0,0.0,0.0,0.0,0.0,0.0,0.0,0.0,0.0,0.0,0.0,0.0,0.0,0.0,0.0,0.0,0.0,0.0,0.0,0.0,0.0,0.0,0.0,0.0,0.0,0.0,0.0,0.0,0.0,0.0,0.0,0.0,0.0,0.0,0.0,0.0,0.0,0.0,0.0,0.0,0.0,0.0,0.0,0.0,0.0,0.0,0.0,0.0,0.0,0.0,0.0,0.0,0.0,0.0,0.0,0.0,0.0,0.0,0.0,0.0,0.0,0.0,0.0,0.0,0.0,0.0,0.0,0.0,0.0,0.0,0.0,0.0,0.0,0.0,0.0,0.0,0.0,0.0,0.0,0.0,0.0,0.0,0.0,0.0,0.0,0.0,0.0,0.0,0.0,0.0,0.0,0.0,0.0,0.0,0.0,0.0,0.0,0.0,0.0,-4.2103,-4.4328,-4.3267,-4.4006,-4.6782,0.0,0.0,0.0,0.0,0.0,0.0,0.0,0.0,0.0,0.0,0.0,0.0,0.0,0.0,0.0,0.0,0.0,0.0,0.0,0.0,0.0,0.0,0.0,0.0,0.0,0.0,0.0,0.0,0.0,0.0,0.0,0.0,0.0,0.0,0.0,0.0,0.0,0.0,0.0,0.0,0.0,0.0,0.0,0.0,0.0,0.0,0.0,0.0,0.0,0.0,0.0,0.0,0.0,0.0,0.0,0.0,0.0,0.0,0.0,0.0,0.0,0.0,0.0,0.0,0.0,0.0,0.0,0.0,0.0,0.0,0.0,0.0,0.0,0.0,0.0,0.0,0.0,0.0,0.0,0.0,0.0,0.0,0.0,0.0,0.0,0.0,0.0,0.0,0.0,0.0,0.0,0.0,0.0,0.0,0.0,0.0,0.0,0.0,0.0,0.0,0.0,0.0,0.0,0.0,0.0,0.0,0.0,0.0,0.0,0.0,0.0,0.0,-4.3816,-4.4364,-4.734,0.0,0.0,0.0,0.0,0.0,0.0,0.0,0.0,0.0,0.0,0.0,0.0,0.0,0.0,0.0,0.0,0.0,0.0,0.0,0.0,0.0,0.0,0.0,0.0,0.0,0.0,0.0,0.0,0.0,0.0,0.0,0.0,0.0,0.0,0.0,0.0,0.0,0.0,0.0,0.0,0.0,0.0,0.0,0.0,0.0,0.0,0.0,0.0,0.0,0.0,0.0,0.0,0.0,0.0,0.0,0.0,0.0,0.0,0.0,0.0,0.0,0.0,0.0,0.0,0.0,0.0,0.0,0.0,0.0,0.0,0.0,0.0,0.0,0.0,0.0,0.0,0.0,0.0,0.0,0.0,0.0,0.0,0.0,0.0,0.0,0.0,0.0,0.0,0.0,0.0,0.0,0.0,0.0,0.0,0.0,0.0,0.0,0.0,0.0,0.0,0.0,0.0,0.0,0.0,0.0,0.0,0.0,0.0,0.0,0.0,-4.4929,-4.617,-4.5987,0.0,-4.7803,0.0,0.0,0.0,0.0,0.0,0.0,0.0,0.0,0.0,0.0,0.0,0.0,0.0,0.0,0.0,0.0,0.0,0.0,0.0,0.0,0.0,0.0,0.0,0.0,0.0,0.0,0.0,0.0,0.0,0.0,0.0,0.0,0.0,0.0,0.0,0.0,0.0,0.0,0.0,0.0,0.0,0.0,0.0,0.0,0.0,0.0,0.0,0.0,0.0,0.0,0.0,0.0,0.0,0.0,0.0,0.0,0.0,0.0,0.0,0.0,0.0,0.0,0.0,0.0,0.0,0.0,0.0,0.0,0.0,0.0,0.0,0.0,0.0,0.0,0.0,0.0,0.0,0.0,0.0,0.0,0.0,0.0,0.0,0.0,0.0,0.0,0.0,0.0,0.0,0.0,0.0,0.0,0.0,0.0,0.0,0.0,0.0,0.0,0.0,0.0,0.0,0.0,0.0,0.0,0.0,0.0,0.0,0.0,0.0,0.0,-4.496,-4.5168,-4.5168,-4.5888,0.0,0.0,0.0,0.0,0.0,0.0,0.0,0.0,0.0,0.0,0.0,0.0,0.0,0.0,0.0,0.0,0.0,0.0,0.0,0.0,0.0,0.0,0.0,0.0,0.0,0.0,0.0,0.0,0.0,0.0,0.0,0.0,0.0,0.0,0.0,0.0,0.0,0.0,0.0,0.0,0.0,0.0,0.0,0.0,0.0,0.0,0.0,0.0,0.0,0.0,0.0,0.0,0.0,0.0,0.0,0.0,0.0,0.0,0.0,0.0,0.0,0.0,0.0,0.0,0.0,0.0,0.0,0.0,0.0,0.0,0.0,0.0,0.0,0.0,0.0,0.0,0.0,0.0,0.0,0.0,0.0,0.0,0.0,0.0,0.0,0.0,0.0,0.0,0.0,0.0,0.0,0.0,0.0,0.0,0.0,0.0,0.0,0.0,0.0,0.0,0.0,0.0,0.0,0.0,0.0,0.0,0.0,0.0,0.0,0.0,-4.4452,-4.4611,-4.4682,-4.4997,-4.5975,-4.7565,0.0,0.0,0.0,0.0,0.0,0.0,0.0,0.0,0.0,0.0,0.0,0.0,0.0,0.0,0.0,0.0,0.0,0.0,0.0,0.0,0.0,0.0,0.0,0.0,0.0,0.0,0.0,0.0,0.0,0.0,0.0,0.0,0.0,0.0,0.0,0.0,0.0,0.0,0.0,0.0,0.0,0.0,0.0,0.0,0.0,0.0,0.0,0.0,0.0,0.0,0.0,0.0,0.0,0.0,0.0,0.0,0.0,0.0,0.0,0.0,0.0,0.0,0.0,0.0,0.0,0.0,0.0,0.0,0.0,0.0,0.0,0.0,0.0,0.0,0.0,0.0,0.0,0.0,0.0,0.0,0.0,0.0,0.0,0.0,0.0,0.0,0.0,0.0,0.0,0.0,0.0,0.0,0.0,0.0,0.0,0.0,0.0,0.0,0.0,0.0,0.0,0.0,0.0,0.0,0.0,0.0,0.0,0.0,-4.3115,-4.3281,-4.3992,-4.5208,-4.649,-4.7726,0.0,0.0,0.0,0.0,0.0,0.0,0.0,0.0,0.0,0.0,0.0,0.0,0.0,0.0,0.0,0.0,0.0,0.0,0.0,0.0,0.0,0.0,0.0,0.0,0.0,0.0,0.0,0.0,0.0,0.0,0.0,0.0,0.0,0.0,0.0,0.0,0.0,0.0,0.0,0.0,0.0,0.0,0.0,0.0,0.0,0.0,0.0,0.0,0.0,0.0,0.0,0.0,0.0,0.0,0.0,0.0,0.0,0.0,0.0,0.0,0.0,0.0,0.0,0.0,0.0,0.0,0.0,0.0,0.0,0.0,0.0,0.0,0.0,0.0,0.0,0.0,0.0,0.0,0.0,0.0,0.0,0.0,0.0,0.0,0.0,0.0,0.0,0.0,0.0,0.0,0.0,0.0,0.0,0.0,0.0,0.0,0.0,0.0,0.0,0.0,0.0,0.0,0.0,0.0,0.0,0.0,0.0,0.0,0.0,-4.3623,-4.3388,-4.4,-4.5461,-4.5159,-4.567,0.0,0.0,0.0,0.0,0.0,0.0,0.0,0.0,0.0,0.0,0.0,0.0,0.0,0.0,0.0,0.0,0.0,0.0,0.0,0.0,0.0,0.0,0.0,0.0,0.0,0.0,0.0,0.0,0.0,0.0,0.0,0.0,0.0,0.0,0.0,0.0,0.0,0.0,0.0,0.0,0.0,0.0,0.0,0.0,0.0,0.0,0.0,0.0,0.0,0.0,0.0,0.0,0.0,0.0,0.0,0.0,0.0,0.0,0.0,0.0,0.0,0.0,0.0,0.0,0.0,0.0,0.0,0.0,0.0,0.0,0.0,0.0,0.0,0.0,0.0,0.0,0.0,0.0,0.0,0.0,0.0,0.0,0.0,0.0,0.0,0.0,0.0,0.0,0.0,0.0,0.0,0.0,0.0,0.0,0.0,0.0,0.0,0.0,0.0,0.0,0.0,0.0,0.0,0.0,0.0,0.0,0.0,0.0,0.0,-4.294,0.0,-4.3733,-4.4787,-4.4668,-4.5201,0.0,0.0,0.0,0.0,0.0,0.0,0.0,0.0,0.0,0.0,0.0,0.0,0.0,0.0,0.0,0.0,0.0,0.0,0.0,0.0,0.0,0.0,0.0,0.0,0.0,0.0,0.0,0.0,0.0,0.0,0.0,0.0,0.0,0.0,0.0,0.0,0.0,0.0,0.0,0.0,0.0,0.0,0.0,0.0,0.0,0.0,0.0,0.0,0.0,0.0,0.0,0.0,0.0,0.0,0.0,0.0,0.0,0.0,0.0,0.0,0.0,0.0,0.0,0.0,0.0,0.0,0.0,0.0,0.0,0.0,0.0,0.0,0.0,0.0,0.0,0.0,0.0,0.0,0.0,0.0,0.0,0.0,0.0,0.0,0.0,0.0,0.0,0.0,0.0,0.0,0.0,0.0,0.0,0.0,0.0,0.0,0.0,0.0,0.0,0.0,0.0,0.0,0.0,0.0,0.0,0.0,0.0,0.0,-4.1858,-4.0909,-4.2304,-4.3136,-4.3212,-4.5258,-4.6703,0.0,0.0,0.0,0.0,0.0,0.0,0.0,0.0,0.0,0.0,0.0,0.0,0.0,0.0,0.0,0.0,0.0,0.0,0.0,0.0,0.0,0.0,0.0,0.0,0.0,0.0,0.0,0.0,0.0,0.0,0.0,0.0,0.0,0.0,0.0,0.0,0.0,0.0,0.0,0.0,0.0,0.0,0.0,0.0,0.0,0.0,0.0,0.0,0.0,0.0,0.0,0.0,0.0,0.0,0.0,0.0,0.0,0.0,0.0,0.0,0.0,0.0,0.0,0.0,0.0,0.0,0.0,0.0,0.0,0.0,0.0,0.0,0.0,0.0,0.0,0.0,0.0,0.0,0.0,0.0,0.0,0.0,0.0,0.0,0.0,0.0,0.0,0.0,0.0,0.0,0.0,0.0,0.0,0.0,0.0,0.0,0.0,0.0,0.0,0.0,0.0,0.0,0.0,0.0,0.0,0.0,0.0,0.0,0.0,-4.2902,-4.2152,-4.3054,-4.5686,-4.5017,-4.5318,0.0,0.0,0.0,0.0,0.0,0.0,0.0,0.0,0.0,0.0,0.0,0.0,0.0,0.0,0.0,0.0,0.0,0.0,0.0,0.0,0.0,0.0,0.0,0.0,0.0,0.0,0.0,0.0,0.0,0.0,0.0,0.0,0.0,0.0,0.0,0.0,0.0,0.0,0.0,0.0,0.0,0.0,0.0,0.0,0.0,0.0,0.0,0.0,0.0,0.0,0.0,0.0,0.0,0.0,0.0,0.0,0.0,0.0,0.0,0.0,0.0,0.0,0.0,0.0,0.0,0.0,0.0,0.0,0.0,0.0,0.0,0.0,0.0,0.0,0.0,0.0,0.0,0.0,0.0,0.0,0.0,0.0,0.0,0.0,0.0,0.0,0.0,0.0,0.0,0.0,0.0,0.0,0.0,0.0,0.0,0.0,0.0,0.0,0.0,0.0,0.0,0.0,0.0,0.0,0.0,0.0,0.0,0.0,0.0,-4.4448,-4.2928,-4.322,-4.5627,-4.5163,-4.5202,-4.5944,0.0,0.0,0.0,0.0,0.0,0.0,0.0,0.0,0.0,0.0,0.0,0.0,0.0,0.0,0.0,0.0,0.0,0.0,0.0,0.0,0.0,0.0,0.0,0.0,0.0,0.0,0.0,0.0,0.0,0.0,0.0,0.0,0.0,0.0,0.0,0.0,0.0,0.0,0.0,0.0,0.0,0.0,0.0,0.0,0.0,0.0,0.0,0.0,0.0,0.0,0.0,0.0,0.0,0.0,0.0,0.0,0.0,0.0,0.0,0.0,0.0,0.0,0.0,0.0,0.0,0.0,0.0,0.0,0.0,0.0,0.0,0.0,0.0,0.0,0.0,0.0,0.0,0.0,0.0,0.0,0.0,0.0,0.0,0.0,0.0,0.0,0.0,0.0,0.0,0.0,0.0,0.0,0.0,0.0,0.0,0.0,0.0,0.0,0.0,0.0,0.0,0.0,0.0,0.0,0.0,0.0,0.0,0.0,-4.5673,-4.4543,-4.3921,-4.3977,-4.5834,-4.623,0.0,0.0,0.0,0.0,0.0,0.0,0.0,0.0,0.0,0.0,0.0,0.0,0.0,0.0,0.0,0.0,0.0,0.0,0.0,0.0,0.0,0.0,0.0,0.0,0.0,0.0,0.0,0.0,0.0,0.0,0.0,0.0,0.0,0.0,0.0,0.0,0.0,0.0,0.0,0.0,0.0,0.0,0.0,0.0,0.0,0.0,0.0,0.0,0.0,0.0,0.0,0.0,0.0,0.0,0.0,0.0,0.0,0.0,0.0,0.0,0.0,0.0,0.0,0.0,0.0,0.0,0.0,0.0,0.0,0.0,0.0,0.0,0.0,0.0,0.0,0.0,0.0,0.0,0.0,0.0,0.0,0.0,0.0,0.0,0.0,0.0,0.0,0.0,0.0,0.0,0.0,0.0,0.0,0.0,0.0,0.0,0.0,0.0,0.0,0.0,0.0,0.0,0.0,0.0,0.0,0.0,0.0,0.0,0.0,-4.5673,-4.7252,-4.8557,-4.9561,-4.7668,-4.6845,0.0,0.0,0.0,0.0,0.0,0.0,0.0,0.0,0.0,0.0,0.0,0.0,0.0,0.0,0.0,0.0,0.0,0.0,0.0,0.0,0.0,0.0,0.0,0.0,0.0,0.0,0.0,0.0,0.0,0.0,0.0,0.0,0.0,0.0,0.0,0.0,0.0,0.0,0.0,0.0,0.0,0.0,0.0,0.0,0.0,0.0,0.0,0.0,0.0,0.0,0.0,0.0,0.0,0.0,0.0,0.0,0.0,0.0,0.0,0.0,0.0,0.0,0.0,0.0,0.0,0.0,0.0,0.0,0.0,0.0,0.0,0.0,0.0,0.0,0.0,0.0,0.0,0.0,0.0,0.0,0.0,0.0,0.0,0.0,0.0,0.0,0.0,0.0,0.0,0.0,0.0,0.0,0.0,0.0,0.0,0.0,0.0,0.0,0.0,0.0,0.0,0.0,0.0,0.0,0.0,0.0,0.0,0.0,-4.365,-4.556,-4.9001,-5.1309,-5.2426,-5.0443,-4.9183,0.0,0.0,0.0,0.0,0.0,0.0,0.0,0.0,0.0,0.0,0.0,0.0,0.0,0.0,0.0,0.0,0.0,0.0,0.0,0.0,0.0,0.0,0.0,0.0,0.0,0.0,0.0,0.0,0.0,0.0,0.0,0.0,0.0,0.0,0.0,0.0,0.0,0.0,0.0,0.0,0.0,0.0,0.0,0.0,0.0,0.0,0.0,0.0,0.0,0.0,0.0,0.0,0.0,0.0,0.0,0.0,0.0,0.0,0.0,0.0,0.0,0.0,0.0,0.0,0.0,0.0,0.0,0.0,0.0,0.0,0.0,0.0,0.0,0.0,0.0,0.0,0.0,0.0,0.0,0.0,0.0,0.0,0.0,0.0,0.0,0.0,0.0,0.0,0.0,0.0,0.0,0.0,0.0,0.0,0.0,0.0,0.0,0.0,0.0,0.0,0.0,0.0,0.0,0.0,0.0,0.0,0.0,0.0,-4.4908,-4.5405,-4.991,-5.2712,-5.3465,-5.31,-5.1809,0.0,0.0,0.0,0.0,0.0,0.0,0.0,0.0,0.0,0.0,0.0,0.0,0.0,0.0,0.0,0.0,0.0,0.0,0.0,0.0,0.0,0.0,0.0,0.0,0.0,0.0,0.0,0.0,0.0,0.0,0.0,0.0,0.0,0.0,0.0,0.0,0.0,0.0,0.0,0.0,0.0,0.0,0.0,0.0,0.0,0.0,0.0,0.0,0.0,0.0,0.0,0.0,0.0,0.0,0.0,0.0,0.0,0.0,0.0,0.0,0.0,0.0,0.0,0.0,0.0,0.0,0.0,0.0,0.0,0.0,0.0,0.0,0.0,0.0,0.0,0.0,0.0,0.0,0.0,0.0,0.0,0.0,0.0,0.0,0.0,0.0,0.0,0.0,0.0,0.0,0.0,0.0,0.0,0.0,0.0,0.0,0.0,0.0,0.0,0.0,0.0,0.0,0.0,0.0,0.0,0.0,0.0,0.0,-4.344,-4.5685,-4.9943,-5.3234,-5.5513,-5.1726,-4.9822,0.0,0.0,0.0,0.0,0.0,0.0,0.0,0.0,0.0,0.0,0.0,0.0,0.0,0.0,0.0,0.0,0.0,0.0,0.0,0.0,0.0,0.0,0.0,0.0,0.0,0.0,0.0,0.0,0.0,0.0,0.0,0.0,0.0,0.0,0.0,0.0,0.0,0.0,0.0,0.0,0.0,0.0,0.0,0.0,0.0,0.0,0.0,0.0,-4.4886,0.0,0.0,0.0,0.0,0.0,0.0,0.0,0.0,0.0,0.0,0.0,0.0,0.0,0.0,0.0,0.0,0.0,0.0,0.0,0.0,0.0,0.0,0.0,0.0,0.0,0.0,0.0,0.0,0.0,0.0,0.0,0.0,0.0,0.0,0.0,0.0,0.0,0.0,0.0,0.0,0.0,0.0,0.0,0.0,0.0,0.0,0.0,0.0,0.0,0.0,0.0,0.0,0.0,0.0,0.0,0.0,0.0,0.0,0.0,-4.3435,-4.5451,-4.9006,-5.1877,-5.3699,-5.0435,-4.9462,0.0,0.0,0.0,0.0,0.0,0.0,0.0,0.0,0.0,0.0,0.0,0.0,0.0,0.0,0.0,0.0,0.0,0.0,0.0,0.0,0.0,0.0,0.0,0.0,0.0,0.0,0.0,0.0,0.0,0.0,0.0,0.0,0.0,0.0,0.0,0.0,0.0,0.0,0.0,0.0,0.0,0.0,0.0,0.0,0.0,0.0,0.0,0.0,0.0,0.0,0.0,0.0,0.0,0.0,0.0,0.0,0.0,0.0,0.0,0.0,0.0,0.0,0.0,0.0,0.0,0.0,0.0,0.0,0.0,0.0,0.0,0.0,0.0,0.0,0.0,0.0,0.0,0.0,0.0,0.0,0.0,0.0,0.0,0.0,0.0,0.0,0.0,0.0,0.0,0.0,0.0,0.0,0.0,0.0,0.0,0.0,0.0,0.0,0.0,0.0,0.0,0.0,0.0,0.0,0.0,0.0,0.0,-4.2293,-4.408,-4.5363,-4.8133,-5.0167,-5.1322,-4.9659,-4.9854,-5.2424,0.0,0.0,0.0,0.0,0.0,0.0,0.0,0.0,0.0,0.0,0.0,0.0,0.0,0.0,0.0,0.0,0.0,0.0,0.0,0.0,0.0,0.0,0.0,0.0,0.0,0.0,0.0,0.0,0.0,0.0,0.0,0.0,0.0,0.0,0.0,0.0,0.0,0.0,-4.3484,-4.2883,0.0,0.0,0.0,0.0,0.0,0.0,0.0,0.0,-4.5541,0.0,0.0,0.0,0.0,0.0,0.0,0.0,0.0,0.0,0.0,0.0,0.0,0.0,0.0,0.0,0.0,0.0,0.0,0.0,0.0,0.0,0.0,0.0,0.0,0.0,0.0,0.0,0.0,0.0,0.0,0.0,0.0,0.0,0.0,0.0,0.0,0.0,0.0,0.0,0.0,0.0,0.0,0.0,0.0,0.0,0.0,0.0,0.0,0.0,0.0,0.0,0.0,0.0,0.0,0.0,0.0,-4.1667,-4.3068,-4.4702,-4.6702,-4.8586,-5.0343,-5.185,-5.0594,-5.0701,-5.2527,0.0,0.0,0.0,0.0,0.0,0.0,0.0,0.0,0.0,0.0,0.0,0.0,0.0,0.0,0.0,0.0,0.0,0.0,0.0,0.0,0.0,0.0,0.0,0.0,0.0,0.0,0.0,0.0,0.0,0.0,0.0,0.0,0.0,0.0,0.0,0.0,0.0,0.0,0.0,-4.3579,-4.3916,0.0,0.0,0.0,0.0,0.0,0.0,0.0,0.0,-4.5318,0.0,0.0,0.0,0.0,0.0,0.0,0.0,0.0,0.0,0.0,0.0,0.0,0.0,0.0,0.0,0.0,0.0,0.0,0.0,0.0,0.0,0.0,0.0,0.0,0.0,0.0,0.0,0.0,0.0,0.0,0.0,0.0,0.0,0.0,0.0,0.0,0.0,0.0,0.0,0.0,0.0,0.0,0.0,0.0,0.0,0.0,0.0,0.0,0.0,0.0,0.0,0.0,0.0,0.0,0.0,-4.2681,-4.3462,-4.502,-4.7481,-4.9163,-5.0695,-5.2,-5.0518,-5.0563,0.0,0.0,0.0,0.0,0.0,0.0,0.0,0.0,0.0,0.0,0.0,0.0,0.0,0.0,0.0,0.0,0.0,0.0,0.0,0.0,0.0,0.0,0.0,0.0,0.0,0.0,0.0,0.0,0.0,0.0,0.0,0.0,0.0,0.0,0.0,0.0,0.0,0.0,0.0,0.0,-4.3771,-4.4057,-4.2914,0.0,0.0,0.0,0.0,0.0,0.0,-4.6295,-4.632,0.0,0.0,0.0,0.0,0.0,0.0,0.0,0.0,0.0,0.0,0.0,0.0,0.0,0.0,0.0,0.0,0.0,0.0,0.0,0.0,0.0,0.0,0.0,0.0,0.0,0.0,0.0,0.0,0.0,0.0,0.0,0.0,0.0,0.0,0.0,0.0,0.0,0.0,0.0,0.0,0.0,0.0,0.0,0.0,0.0,0.0,0.0,0.0,0.0,0.0,0.0,0.0,0.0,0.0,0.0,-4.3635,-4.4137,-4.5648,-4.8309,-4.9841,-5.1122,-5.2176,-5.0518,-5.0499,0.0,0.0,0.0,0.0,0.0,0.0,0.0,0.0,0.0,0.0,0.0,0.0,0.0,0.0,0.0,0.0,0.0,0.0,0.0,0.0,0.0,0.0,0.0,0.0,0.0,0.0,0.0,0.0,0.0,0.0,0.0,0.0,0.0,0.0,0.0,0.0,0.0,0.0,0.0,0.0,0.0,-4.4296,-4.2823,-4.4311,0.0,0.0,0.0,0.0,-4.6618,-4.7674,0.0,0.0,0.0,0.0,0.0,0.0,0.0,0.0,0.0,0.0,0.0,0.0,0.0,0.0,0.0,0.0,0.0,0.0,0.0,0.0,0.0,0.0,0.0,0.0,0.0,0.0,0.0,0.0,0.0,0.0,0.0,0.0,0.0,0.0,0.0,0.0,0.0,0.0,0.0,0.0,0.0,0.0,0.0,0.0,0.0,0.0,0.0,0.0,0.0,0.0,0.0,0.0,0.0,0.0,0.0,0.0,-4.4719,-4.559,-4.7355,-4.9992,-5.082,-5.1699,-5.2779,-5.1412,-5.1601,0.0,0.0,0.0,0.0,0.0,0.0,0.0,0.0,0.0,0.0,0.0,0.0,0.0,0.0,0.0,0.0,0.0,0.0,0.0,0.0,0.0,0.0,0.0,0.0,0.0,0.0,0.0,0.0,0.0,0.0,0.0,0.0,0.0,0.0,0.0,0.0,0.0,0.0,0.0,0.0,0.0,-4.5336,-4.5087,-4.5723,-4.6057,0.0,0.0,-4.6662,-4.8517,-5.0193,0.0,0.0,0.0,0.0,0.0,0.0,0.0,0.0,0.0,0.0,0.0,0.0,0.0,0.0,0.0,0.0,0.0,0.0,0.0,0.0,0.0,0.0,0.0,0.0,0.0,0.0,0.0,0.0,0.0,0.0,0.0,0.0,0.0,0.0,0.0,0.0,0.0,0.0,0.0,0.0,0.0,0.0,0.0,0.0,0.0,0.0,0.0,0.0,0.0,0.0,0.0,0.0,0.0,0.0,0.0,-4.2443,-4.5403,-4.6018,-4.7631,-5.0318,-5.1297,-5.2126,-5.2904,-5.1235,-5.1277,0.0,0.0,0.0,0.0,0.0,0.0,0.0,0.0,0.0,0.0,0.0,0.0,0.0,0.0,0.0,0.0,0.0,0.0,0.0,0.0,0.0,0.0,0.0,0.0,0.0,0.0,0.0,0.0,0.0,0.0,0.0,0.0,0.0,0.0,0.0,0.0,0.0,0.0,0.0,0.0,0.0,0.0,-4.4324,-4.6162,0.0,0.0,0.0,-4.8446,-4.9786,0.0,0.0,0.0,0.0,0.0,0.0,0.0,0.0,0.0,0.0,0.0,0.0,0.0,0.0,0.0,0.0,0.0,0.0,0.0,0.0,0.0,0.0,0.0,0.0,0.0,0.0,0.0,0.0,0.0,0.0,0.0,0.0,0.0,0.0,0.0,0.0,0.0,0.0,0.0,0.0,0.0,0.0,0.0,0.0,0.0,0.0,0.0,0.0,0.0,0.0,0.0,0.0,0.0,0.0,0.0,0.0,0.0,-4.6096,-4.6421,-4.7857,-5.0544,-5.185,-5.2703,-5.308,-5.1548,0.0,0.0,0.0,0.0,0.0,0.0,0.0,0.0,0.0,0.0,0.0,0.0,0.0,0.0,0.0,0.0,0.0,0.0,0.0,0.0,0.0,0.0,0.0,0.0,0.0,0.0,0.0,-4.3704,0.0,0.0,0.0,0.0,0.0,0.0,0.0,0.0,0.0,0.0,0.0,0.0,0.0,0.0,-4.6577,-4.4493,-4.6928,-4.8448,0.0,0.0,-5.006,-5.0664,-5.1271,-5.1241,0.0,0.0,0.0,0.0,0.0,0.0,0.0,0.0,0.0,0.0,0.0,0.0,0.0,0.0,0.0,0.0,0.0,0.0,0.0,0.0,0.0,0.0,0.0,0.0,0.0,0.0,0.0,0.0,0.0,0.0,0.0,0.0,0.0,0.0,0.0,0.0,0.0,0.0,0.0,0.0,0.0,0.0,0.0,0.0,0.0,0.0,0.0,0.0,0.0,0.0,0.0,0.0,0.0,0.0,-4.3212,-4.6878,-4.7054,-4.8435,-5.1147,-5.2779,-5.3607,-5.3632,-5.303,-5.2866,0.0,0.0,0.0,0.0,0.0,0.0,0.0,0.0,0.0,0.0,0.0,0.0,0.0,0.0,0.0,0.0,0.0,0.0,0.0,0.0,0.0,0.0,0.0,0.0,0.0,0.0,0.0,0.0,0.0,0.0,0.0,0.0,0.0,0.0,0.0,0.0,0.0,0.0,0.0,0.0,0.0,-4.7782,-4.7606,-4.8711,-4.949,0.0,-4.9916,-5.0544,-5.1163,-5.3733,-5.4712,-5.1666,0.0,0.0,0.0,0.0,0.0,0.0,0.0,0.0,0.0,0.0,0.0,0.0,0.0,0.0,0.0,0.0,0.0,0.0,0.0,0.0,0.0,0.0,0.0,0.0,0.0,0.0,0.0,0.0,0.0,0.0,0.0,0.0,0.0,0.0,0.0,0.0,0.0,0.0,0.0,0.0,0.0,0.0,0.0,0.0,0.0,0.0,0.0,0.0,0.0,0.0,0.0,0.0,0.0,-4.4769,-4.7556,-4.7958,-4.9314,-5.1699,-5.3055,-5.3708,-5.3708,-5.3206,-5.308,0.0,0.0,0.0,0.0,0.0,0.0,0.0,0.0,0.0,0.0,0.0,0.0,0.0,0.0,0.0,0.0,0.0,0.0,0.0,0.0,0.0,0.0,0.0,0.0,0.0,0.0,0.0,0.0,-4.3908,-4.3755,-4.4168,0.0,0.0,0.0,0.0,0.0,0.0,0.0,0.0,0.0,0.0,-4.8435,-4.8435,-4.8641,0.0,0.0,-4.832,-4.8568,-4.9273,-5.0485,-5.1201,-5.0774,-5.0376,0.0,0.0,0.0,0.0,0.0,0.0,0.0,0.0,0.0,0.0,0.0,0.0,0.0,0.0,0.0,0.0,0.0,0.0,0.0,0.0,0.0,0.0,0.0,0.0,0.0,0.0,0.0,0.0,0.0,0.0,0.0,0.0,0.0,0.0,0.0,0.0,0.0,0.0,0.0,0.0,0.0,0.0,0.0,0.0,0.0,0.0,0.0,0.0,0.0,0.0,0.0,0.0,-4.605,-4.8385,-4.8812,-5.0092,-5.2302,-5.3733,-5.4436,-5.4461,-5.426,-5.4185,0.0,0.0,0.0,0.0,0.0,0.0,0.0,0.0,0.0,0.0,0.0,0.0,0.0,0.0,0.0,0.0,0.0,0.0,0.0,0.0,0.0,0.0,0.0,0.0,0.0,0.0,0.0,0.0,-4.4311,-4.426,-4.4925,0.0,0.0,0.0,0.0,0.0,0.0,0.0,0.0,0.0,0.0,-4.9264,-4.9264,-4.9078,-4.8926,-4.9077,-4.8498,-4.8416,-4.9463,-4.9343,-4.9345,-4.9755,0.0,0.0,0.0,0.0,0.0,0.0,0.0,0.0,0.0,0.0,0.0,0.0,0.0,0.0,0.0,0.0,0.0,0.0,0.0,0.0,0.0,0.0,0.0,0.0,0.0,0.0,0.0,0.0,0.0,0.0,-4.2971,0.0,0.0,0.0,0.0,0.0,0.0,0.0,0.0,0.0,0.0,0.0,0.0,0.0,0.0,0.0,0.0,0.0,0.0,0.0,0.0,0.0,0.0,-4.6828,-4.9515,-4.959,-5.067,-5.2879,-5.5039,-5.6118,-5.6143,-5.6646,-5.642,-5.539,0.0,0.0,0.0,0.0,0.0,0.0,0.0,0.0,0.0,0.0,0.0,0.0,0.0,0.0,0.0,0.0,0.0,0.0,0.0,0.0,0.0,0.0,0.0,0.0,0.0,0.0,-4.7515,-4.6064,-4.5221,0.0,0.0,0.0,0.0,0.0,0.0,0.0,0.0,0.0,0.0,-4.9364,-5.0393,-5.0393,-5.0315,-5.0832,-5.2385,-5.1304,-5.0836,-5.2347,-5.1747,-5.0589,0.0,0.0,0.0,0.0,0.0,0.0,0.0,0.0,0.0,0.0,0.0,0.0,0.0,0.0,0.0,0.0,0.0,0.0,0.0,0.0,0.0,0.0,0.0,0.0,0.0,0.0,0.0,-4.441,-4.4911,0.0,0.0,0.0,0.0,0.0,0.0,0.0,0.0,0.0,0.0,0.0,-4.7688,-4.751,0.0,0.0,0.0,0.0,0.0,0.0,0.0,0.0,0.0,0.0,0.0,0.0,-4.8109,-5.0042,-5.0519,-5.18,-5.3959,-5.544,-5.6369,-5.6746,-5.6947,-5.6872,-5.6495,0.0,0.0,0.0,0.0,0.0,0.0,0.0,0.0,0.0,0.0,0.0,0.0,0.0,0.0,0.0,0.0,0.0,0.0,0.0,0.0,0.0,0.0,0.0,0.0,0.0,-4.7087,0.0,0.0,0.0,0.0,0.0,0.0,0.0,0.0,0.0,0.0,0.0,-4.9314,-5.0042,-5.0645,-5.1122,-5.1498,-5.0734,-5.0313,0.0,0.0,0.0,0.0,0.0,0.0,0.0,0.0,0.0,0.0,0.0,0.0,0.0,0.0,-5.2553,-5.0519,-5.0293,-5.0484,-5.0851,0.0,0.0,0.0,0.0,0.0,0.0,0.0,0.0,0.0,0.0,0.0,0.0,0.0,0.0,-4.5898,0.0,-4.6232,0.0,0.0,0.0,0.0,0.0,0.0,0.0,0.0,-4.7602,-4.8596,-4.9634,-4.9709,-5.0161,0.0,-5.0469,-4.9593,0.0,0.0,0.0,0.0,0.0,0.0,0.0,0.0,-4.9314,-5.0946,-5.1574,-5.2929,-5.5064,-5.6219,-5.7047,-5.76,-5.7449,-5.7349,-5.7323,-5.6445,-5.5968,0.0,0.0,0.0,0.0,0.0,0.0,0.0,0.0,0.0,0.0,0.0,0.0,0.0,0.0,0.0,0.0,0.0,0.0,0.0,0.0,0.0,0.0,0.0,-4.8222,0.0,0.0,0.0,0.0,0.0,0.0,0.0,0.0,0.0,-4.9941,-5.0067,-5.0469,-5.1172,-5.1448,-5.1699,-5.2051,0.0,0.0,0.0,0.0,0.0,0.0,0.0,-4.9652,-5.0717,-5.0529,-5.084,-5.2705,-5.416,-5.5039,-5.4888,0.0,0.0,-5.1448,-5.1172,-5.1339,-5.1605,-5.1605,-5.1731,-5.2085,-5.2312,-5.2371,0.0,0.0,0.0,0.0,0.0,0.0,0.0,0.0,-4.5783,-4.6703,0.0,-4.7573,0.0,0.0,0.0,0.0,0.0,-4.8165,0.0,0.0,-5.0067,-5.1096,-5.072,-5.1749,-5.2226,-5.2277,-5.2729,-5.2352,-5.1222,-4.9113,0.0,0.0,0.0,0.0,0.0,0.0,-5.0444,-5.2076,-5.2678,-5.4034,-5.6168,-5.7323,-5.8177,-5.8704,-5.8202,-5.7926,-5.7926,-5.7374,-5.6998,-5.7072,-5.6545,0.0,0.0,0.0,0.0,0.0,0.0,0.0,0.0,0.0,0.0,0.0,0.0,0.0,0.0,0.0,0.0,0.0,0.0,0.0,0.0,-5.0294,0.0,0.0,0.0,0.0,0.0,0.0,0.0,0.0,0.0,0.0,-5.077,-5.1021,-5.1348,-5.1373,0.0,0.0,0.0,0.0,-5.1607,-5.2723,-5.1935,-5.1611,-5.2679,-5.203,-5.1095,-5.0506,0.0,0.0,-5.1582,-5.3515,-5.4888,-5.534,-5.5039,-5.411,-5.2528,-5.2603,-5.2603,-5.1699,-5.2302,-5.2929,-5.303,-5.3457,-5.3783,-5.0201,0.0,0.0,0.0,0.0,-4.8146,-4.9191,-5.0574,-5.0291,-5.0406,-5.0625,-4.981,0.0,0.0,0.0,0.0,0.0,0.0,-4.9881,-5.0745,-5.2302,-5.3557,-5.4561,-5.4888,-5.5039,-5.5013,-5.4386,-5.3532,-5.2452,-5.1423,-5.0494,-4.9715,0.0,0.0,0.0,0.0,-5.1021,-5.2628,-5.3607,-5.4963,-5.6771,-5.7901,-5.873,-5.9257,-5.8755,-5.8654,-5.9006,-5.8152,-5.7826,-5.8202,-5.77,0.0,0.0,0.0,0.0,0.0,0.0,0.0,0.0,0.0,0.0,0.0,0.0,0.0,0.0,0.0,0.0,0.0,0.0,0.0,-5.1387,-5.121,-5.1059,0.0,0.0,0.0,0.0,0.0,0.0,0.0,0.0,0.0,-5.3356,-5.2829,-5.2603,0.0,0.0,-5.2829,-5.3181,-5.2779,-5.256,-5.2861,-5.2953,0.0,-5.3412,-5.3528,-5.3566,-5.3353,-5.3365,-5.3786,-5.4767,-5.5678,-5.6369,-5.6545,-5.6118,-5.544,-5.4637,-5.3884,-5.3532,-5.3607,-5.3909,-5.4235,-5.4612,-5.5114,-5.5365,-5.4624,-5.1183,-5.0024,-4.9441,-4.9492,-5.0634,-5.1766,-5.2725,-5.2722,-5.2815,-5.28,-5.2043,-5.1135,-5.0117,-5.032,0.0,0.0,0.0,-5.1875,-5.313,-5.421,-5.5465,-5.6846,-5.7097,-5.7198,-5.7148,-5.6319,-5.5315,-5.421,-5.3683,-5.2829,-5.1724,0.0,0.0,-5.077,-5.1197,-5.2,-5.3231,-5.4536,-5.5917,-5.7349,-5.8252,-5.8855,-5.9182,-5.8679,-5.8629,-5.9156,-5.8579,-5.8478,-5.9006,-5.8504,-5.7775,0.0,0.0,0.0,0.0,0.0,0.0,0.0,0.0,0.0,0.0,0.0,-5.1448,-5.0368,0.0,0.0,0.0,-5.0896,-5.1925,-5.2678,-5.2427,0.0,0.0,0.0,0.0,0.0,0.0,0.0,-5.3783,-5.411,-5.4486,-5.4838,-5.4135,-5.3607,-5.3683,-5.3256,-5.303,-5.3356,0.0,-5.2861,-5.2861,-5.3381,-5.3708,-5.3708,-5.4185,-5.4708,-5.4863,-5.5541,-5.6018,-5.6168,-5.6671,-5.7022,-5.6947,-5.642,-5.5917,-5.6018,-5.5139,-5.4386,-5.4561,-5.4913,-5.539,-5.5917,-5.6646,-5.7097,-5.8146,-5.6223,-5.333,-5.1443,-5.0608,-5.2412,-5.3206,-5.3281,-5.3758,-5.4235,-5.4637,-5.4084,-5.3671,-5.3511,-5.346,0.0,-5.1674,-5.3206,-5.4235,-5.4863,-5.5917,-5.6972,-5.8027,-5.8529,-5.8755,-5.8704,-5.8152,-5.7323,-5.6194,-5.5641,-5.4813,-5.3683,-5.2277,-5.1523,-5.1523,-5.2477,-5.3281,-5.3909,-5.5465,-5.6846,-5.8001,-5.8478,-5.8704,-5.8654,-5.8127,-5.8077,-5.8554,-5.8629,-5.8905,-5.9382,-5.9056,-5.8805,-5.8704,0.0,0.0,0.0,0.0,0.0,0.0,0.0,0.0,0.0,0.0,0.0,0.0,0.0,0.0,0.0,-5.2,0.0,-5.3934,-5.3984,0.0,0.0,0.0,-5.5767,-5.6219,-5.6319,-5.6319,-5.6269,0.0,0.0,-5.5516,-5.5039,-5.4461,-5.3858,-5.3331,-5.298,-5.2911,-5.298,-5.2861,-5.2861,-5.3356,-5.3708,-5.3733,-5.4185,-5.4687,-5.5164,-5.6168,-5.6495,-5.6143,-5.6394,-5.6771,-5.6721,-5.5968,-5.5566,-5.6671,-5.5892,-5.5189,-5.4787,-5.5541,-5.6445,-5.7047,-5.7851,-5.8428,-5.9616,-5.7483,-5.6204,-5.4859,-5.3646,-5.4838,-5.5666,-5.6068,-5.6194,-5.6093,-5.5792,-5.5239,-5.4758,-5.4275,-5.3847,-5.3903,-5.4461,-5.5239,-5.6143,-5.7123,-5.7801,-5.8478,-5.9106,-5.9257,-5.9106,-5.8704,-5.8152,-5.7323,-5.6219,-5.5641,-5.4813,-5.3758,-5.3758,-5.3557,-5.3155,-5.3381,-5.421,-5.5616,-5.642,-5.7575,-5.9056,-5.8855,-5.8529,-5.8102,-5.7524,-5.7298,-5.7424,-5.7876,-5.8353,-5.888,-5.9558,-5.9558,-5.8755,-5.8478,0.0,0.0,0.0,0.0,0.0,0.0,0.0,0.0,0.0,-5.3231,-5.2578,0.0,-5.3582,0.0,-5.3808,-5.5239,-5.6746,-5.6495,0.0,0.0,-5.6947,-5.7173,-5.6872,-5.7223,-5.7323,-5.6897,-5.7097,-5.7123,-5.6696,-5.6168,-5.5465,-5.4511,-5.3858,-5.3507,-5.3532,-5.3181,-5.2861,-5.298,-5.3381,-5.3708,-5.3758,-5.4185,-5.4683,-5.4808,-5.5013,-5.5089,-5.4988,-5.5064,-5.5139,-5.5114,-5.4587,-5.4587,-5.5591,-5.5214,-5.5114,-5.5666,-5.6369,-5.7148,-5.8102,-5.8227,-5.8102,-5.9594,-5.8298,-5.7099,-5.642,-5.6118,-5.6972,-5.7499,-5.7801,-5.8027,-5.7826,-5.7298,-5.6746,-5.6068,-5.534,-5.5491,-5.5767,-5.6168,-5.6972,-5.7675,-5.8278,-5.8805,-5.9232,-5.9483,-5.9508,-5.9332,-5.9056,-5.8529,-5.7951,-5.7323,-5.6771,-5.6043,-5.5189,-5.5516,-5.539,-5.4838,-5.4813,-5.539,-5.657,-5.7374,-5.8227,-5.9081,-5.8629,-5.8077,-5.7524,-5.6721,-5.6545,-5.7022,-5.7123,-5.7625,-5.8679,-5.9282,-5.9332,-5.8755,-5.8478,-5.77,0.0,0.0,0.0,0.0,0.0,0.0,0.0,0.0,0.0,0.0,0.0,-5.534,-5.5491,-5.6118,-5.6972,-5.8152,-5.7976,-5.7876,-5.8102,-5.8428,-5.8579,-5.8504,-5.8579,-5.8478,-5.8177,-5.8202,-5.8152,-5.7826,-5.7072,-5.6269,-5.5415,-5.4587,-5.3909,-5.3432,-5.3105,-5.2861,-5.2886,-5.3356,-5.3808,-5.4034,-5.4361,-5.4561,-5.4561,-5.4561,-5.4486,-5.4235,-5.4185,-5.4185,-5.4135,-5.3733,-5.3708,-5.4762,-5.4787,-5.4863,-5.5591,-5.6093,-5.6696,-5.7725,-5.7926,-5.7901,-5.8868,-5.8601,-5.7099,-5.7072,-5.8152,-5.8629,-5.883,-5.8855,-5.9282,-5.9207,-5.8679,-5.8152,-5.7349,-5.6495,-5.7449,-5.765,-5.7249,-5.8328,-5.883,-5.8855,-5.9282,-5.9508,-5.9508,-5.9508,-5.9508,-5.9483,-5.8981,-5.873,-5.8704,-5.8102,-5.7499,-5.6947,-5.6922,-5.6696,-5.6244,-5.6269,-5.6595,-5.7148,-5.8252,-5.883,-5.8805,-5.8152,-5.7549,-5.7022,-5.5968,-5.5842,-5.6771,-5.6495,-5.6972,-5.8403,-5.8629,-5.8755,-5.8805,-5.8353,-5.7901,0.0,-5.6922,0.0,0.0,0.0,0.0,0.0,0.0,0.0,0.0,-5.652,-5.7198,-5.8755,-5.8478,-5.8428,-5.8981,-5.9106,-5.9307,-5.9759,-5.9809,-6.001,-6.0437,-6.0035,-5.9709,-5.9709,-5.9232,-5.8905,-5.878,-5.7901,-5.7047,-5.6244,-5.529,-5.431,-5.3281,-5.3005,-5.2861,-5.2861,-5.3306,-5.3683,-5.4084,-5.426,-5.4285,-5.431,-5.4285,-5.4185,-5.3683,-5.3607,-5.3582,-5.3557,-5.3256,-5.3306,-5.4285,-5.4461,-5.4637,-5.5164,-5.5315,-5.5691,-5.6671,-5.7097,-5.7474,-5.8583,-5.8046,-5.7724,-5.8202,-5.9182,-5.9307,-5.9357,-5.9357,-5.9458,-5.9207,-5.8679,-5.8152,-5.7775,-5.76,-5.7801,-5.8077,-5.8428,-5.9056,-5.9357,-5.9357,-5.9458,-5.9508,-5.9508,-5.9508,-5.9508,-5.9458,-5.8981,-5.873,-5.8704,-5.77,-5.6922,-5.6394,-5.6369,-5.6319,-5.6244,0.0,0.0,0.0,-5.8805,-5.9357,-5.9307,-5.7926,-5.7148,-5.7022,-5.5968,0.0,-5.5717,-5.6445,-5.7022,-5.7349,-5.8227,0.0,0.0,0.0,0.0,0.0,0.0,0.0,0.0,0.0,0.0,0.0,-5.8855,-5.8478,-5.8278,-5.8252,-5.873,-5.9885,-5.9935,-6.0085,-6.0663,-6.114,-6.1441,-6.1517,-6.1517,-6.1567,-6.1667,-6.119,-6.0864,-6.0864,-6.0362,-5.9834,-5.9357,-5.878,-5.7851,-5.652,-5.5641,-5.4787,-5.3733,-5.3206,-5.2861,-5.2886,-5.3055,-5.313,-5.3231,-5.3281,-5.3356,-5.3231,-5.3231,-5.3206,-5.313,-5.3105,-5.308,-5.3105,-5.2911,-5.3105,-5.3758,-5.3858,-5.4059,-5.4612,-5.4712,-5.5064,-5.6118,-5.5717,-5.5315,-5.7371,0.0,-5.7374,-5.7951,0.0,-5.9006,-5.9257,-5.9508,-5.9508,-5.9056,-5.8328,-5.8303,-5.8001,-5.7499,-5.7775,-5.8202,-5.873,-5.9006,-5.9257,-5.9483,-5.9508,-5.9508,-5.9508,-5.9508,-5.9508,-5.9483,-5.9232,-5.9106,-5.9081,-5.8529,-5.7851,-5.7072,-5.7047,-5.6771,-5.6244,-5.6771,-5.7323,-5.7901,-5.8428,-5.8453,-5.7876,-5.7323,-5.6646,-5.5842,0.0,0.0,0.0,0.0,0.0,0.0,0.0,0.0,0.0,0.0,0.0,-5.9885,-5.9659,-5.9734,-6.0261,-6.0337,-6.0563,-6.109,-6.114,-6.0788,-6.001,-6.0437,-6.0964,-6.1492,-6.1567,-6.1667,-6.1969,-6.2245,-6.2421,-6.2395,-6.2169,-6.1994,-6.1943,-6.1517,-6.1065,-6.0788,-6.0512,-6.0111,-5.9558,-5.9031,-5.8428,-5.7549,-5.647,-5.5491,-5.4612,-5.3607,-5.2861,-5.2861,-5.2861,-5.2861,-5.2861,-5.2861,-5.2861,-5.2861,-5.2861,-5.2861,-5.2861,-5.2861,-5.2861,-5.2861,-5.2861,-5.2961,-5.3256,-5.3507,-5.3708,-5.3758,-5.3959,-5.416,-5.4587,-5.4561,-5.4637,-5.6269,-5.6394,-5.6846,-5.7424,-5.8077,-5.8529,-5.9006,-5.9483,0.0,0.0,0.0,-5.8278,-5.7851,-5.6947,-5.7499,-5.8001,-5.8428,-5.8529,-5.8855,-5.9357,-5.9257,-5.9257,-5.9357,-5.9357,-5.9357,-5.9357,-5.9458,-5.9508,-5.9483,-5.9408,-5.8855,-5.7976,-5.7801,-5.7173,-5.6168,-5.652,-5.6922,-5.7323,-5.77,-5.7449,-5.6545,-5.6671,-5.6143,-5.4888,-5.4561,-5.4532,-5.4561,-5.411,-5.4536,-5.5993,-5.6595,-5.7449,-5.8654,-5.9307,-5.9734,-5.9935,-6.0035,-6.0487,-6.1416,-6.1466,-6.1868,-6.2772,-6.2822,-6.2446,-6.1517,-6.2295,-6.2822,-6.2822,-6.2822,-6.2822,-6.2822,-6.2822,-6.2822,-6.2822,-6.2421,-6.2144,-6.2144,-6.1768,-6.1366,-6.0864,-6.0663,-6.0311,-5.9885,-5.9282,-5.8805,-5.8554,-5.7424,-5.6143,-5.5265,-5.3858,-5.2861,-5.2861,-5.2861,-5.2861,-5.2861,-5.2861,-5.2861,-5.2861,-5.2861,-5.2861,-5.2861,-5.2861,-5.2861,-5.2861,-5.2861,-5.2861,-5.2955,-5.3256,-5.3406,-5.3005,-5.3256,-5.3432,-5.313,-5.3632,-5.421,-5.6495,-5.6922,-5.6997,-5.765,-5.8604,-5.8704,-5.9006,-5.9458,-5.9031,-5.8478,-5.7876,-5.7449,-5.6922,-5.6344,-5.6922,-5.7198,-5.7298,-5.7775,-5.8303,0.0,-5.8353,-5.8378,-5.8805,-5.883,-5.883,-5.8855,-5.9282,-5.9508,-5.9458,-5.9056,-5.8504,-5.7926,-5.7399,-5.6595,-5.5616,-5.5591,-5.5415,-5.5089,-5.6922,-5.7826,-5.765,-5.6319,-5.5767,-5.5917,-5.4561,-5.4059,-5.4536,-5.4486,-5.4762,-5.5465,-5.6043,-5.7047,-5.8629,-5.9659,-6.0638,-6.1592,-6.2094,-6.2446,-6.2571,-6.2596,-6.2672,-6.2797,-6.2822,-6.2747,-6.2621,-6.2722,-6.2822,-6.2822,-6.2822,-6.2822,-6.2822,-6.2822,-6.2822,-6.2822,-6.2747,-6.2722,-6.2672,-6.2596,-6.2471,-6.232,-6.1617,-6.104,-6.0814,-6.001,-5.9232,-5.878,-5.7976,-5.6922,-5.5164,-5.3683,-5.3005,-5.2861,-5.2861,-5.2861,-5.2861,-5.2861,-5.2861,-5.2861,-5.2861,-5.2861,-5.2861,-5.2861,-5.2861,-5.2861,-5.2861,-5.2861,-5.2929,-5.298,-5.303,-5.2929,-5.3055,-5.303,-5.2929,-5.313,-5.3231,-5.6369,-5.662,-5.6823,-5.7524,-5.8328,-5.888,-5.9106,-5.9031,-5.8504,-5.8303,-5.8278,-5.775,-5.7374,-5.7123,-5.7072,-5.7198,-5.7524,-5.7775,-5.8202,-5.8679,-5.8478,-5.8629,-5.9081,-5.8855,-5.888,-5.9131,-5.9382,-5.9508,-5.9483,-5.9257,-5.8704,-5.7901,-5.7022,-5.6194,-5.544,-5.539,-5.5265,-5.5039,-5.5717,-5.5942,-5.5641,-5.5164,-5.4762,-5.4436,-5.3909,-5.3808,-5.4084,-5.4084,-5.4486,-5.5365,-5.5917,-5.6972,-5.8629,-5.9734,-6.0814,-6.1943,-6.2521,-6.2822,-6.2822,-6.2822,-6.2822,-6.2822,-6.2822,-6.2822,-6.2822,-6.2822,-6.2822,-6.2822,-6.2822,-6.2822,-6.2822,-6.2822,-6.2822,-6.2822,-6.2822,-6.2822,-6.2822,-6.2822,-6.2722,-6.2421,-6.1943,-6.1517,-6.1215,-6.0462,-5.9885,-5.9508,-5.8453,-5.6922,-5.5616,-5.426,-5.3256,-5.3005,-5.2861,-5.2861,-5.2861,-5.2861,-5.2861,-5.2861,-5.2861,-5.2861,-5.2861,-5.2861,-5.2861,-5.2861,-5.2861,-5.2861,-5.2861,-5.2861,-5.2861,-5.2861,-5.2861,-5.2861,-5.2861,-5.2861,-5.2861,-5.6219,-5.6269,-5.6671,-5.7173,-5.7775,-5.873,-5.8905,-5.8504,-5.7951,-5.8027,-5.8403,-5.7826,-5.7575,-5.765,-5.7223,-5.7273,-5.7675,-5.7851,-5.8202,-5.8679,-5.8579,-5.883,-5.9257,-5.8905,-5.893,-5.9307,-5.9433,-5.9433,-5.9332,-5.9433,-5.8956,-5.7876,-5.6771,-5.5942,-5.539,-5.539,-5.534,-5.5189,-5.4637,-5.4285,-5.411,-5.4411,-5.411,-5.3231,-5.3507,-5.3708,-5.3708,-5.3808,-5.4361,-5.534,-5.6043,-5.7097,-5.8629,-5.9734,-6.0814,-6.1893,-6.2395,-6.2697,-6.2822,-6.2822,-6.2822,-6.2822,-6.2822,-6.2822,-6.2822,-6.2822,-6.2822,-6.2822,-6.2822,-6.2822,-6.2822,-6.2822,-6.2822,-6.2822,-6.2822,-6.2822,-6.2822,-6.2822,-6.2672,-6.2245,-6.2094,-6.1793,-6.124,-6.0663,-6.0236,-5.9834,-5.8428,-5.7123,-5.652,-5.5139,-5.3984,-5.3557,-5.3206,-5.2861,-5.2861,-5.2861,-5.2861,-5.2861,-5.2861,-5.2861,-5.2861,-5.2861,-5.2861,-5.2861,-5.2861,-5.2861,-5.2861,-5.2861,-5.2861,-5.2861,-5.2861,-5.2861,-5.2861,-5.2861,-5.2861,-5.6219,-5.6219,-5.6294,-5.6595,-5.7198,-5.7826,-5.8052,-5.7901,-5.7374,-5.7449,-5.7851,-5.6846,-5.6696,-5.7072,-5.7072,-5.7023,-5.7223,-5.7675,-5.8202,-5.8629,-5.8202,-5.8252,-5.8805,-5.8755,-5.8755,-5.888,-5.9257,-5.9232,-5.888,-5.9207,-5.893,-5.7876,-5.6771,-5.5942,-5.5465,-5.539,-5.5164,-5.4708,-5.4059,-5.426,-5.5139,-5.4787,-5.426,-5.3658,-5.3683,-5.3708,-5.3733,-5.421,-5.4762,-5.5415,-5.6394,-5.7474,-5.8629,-5.9709,-6.0814,-6.1868,-6.2044,-6.2295,-6.2772,-6.2822,-6.2822,-6.2822,-6.2822,-6.2822,-6.2822,-6.2822,-6.2822,-6.2822,-6.2822,-6.2822,-6.2822,-6.2822,-6.2822,-6.2822,-6.2822,-6.2822,-6.2822,-6.2822,-6.2797,-6.2772,-6.232,-6.1818,-6.1366,-6.0763,-6.0161,-5.9709,-5.8629,-5.7801,-5.7549,-5.6294,-5.5239,-5.4888,-5.3984,-5.3105,-5.303,-5.2929,-5.3005,-5.2911,-5.2929,-5.2929,-5.2861,-5.2861,-5.2861,-5.2861,-5.2861,-5.2861,-5.2861,-5.2861,-5.2861,-5.2861,-5.2861,-5.2861,-5.2861,-5.2861,-5.2861,-5.6219,-5.6219,-5.6219,-5.652,-5.7072,-5.765,-5.77,-5.7374,-5.7148,-5.7173,-5.7273,-5.6545,-5.6696,-5.7499,-5.7198,-5.7223,-5.7549,-5.7801,-5.8202,-5.8679,-5.8478,-5.8654,-5.9106,-5.8855,-5.888,-5.9131,-5.9106,-5.893,-5.8679,-5.8278,-5.7801,-5.7349,-5.6595,-5.6093,-5.5867,-5.5566,-5.544,-5.5516,-5.4988,-5.4938,-5.5189,-5.421,-5.3632,-5.3708,-5.3708,-5.3884,-5.421,-5.4762,-5.5465,-5.6294,-5.6796,-5.7549,-5.8629,-5.9408,-6.0186,-6.0964,-6.1642,-6.2245,-6.2797,-6.2822,-6.2822,-6.2822,-6.2822,-6.2822,-6.2797,-6.2546,-6.2471,-6.2772,-6.2822,-6.2822,-6.2822,-6.2822,-6.2822,-6.2822,-6.2822,-6.2822,-6.2822,-6.2822,-6.2822,-6.2797,-6.2647,-6.2421,-6.2094,-6.1366,-6.0512,-5.9684,-5.883,-5.8428,-5.8303,-5.7223,-5.6495,-5.6194,-5.5214,-5.4336,-5.3959,-5.3582,-5.3432,-5.3331,-5.313,-5.2929,-5.2861,-5.2861,-5.2861,-5.2861,-5.2861,-5.2861,-5.2861,-5.2861,-5.2861,-5.2861,-5.2861,-5.2861,-5.2861,-5.2861,-5.2861,-5.6219,-5.6219,-5.6219,-5.6445,-5.6846,-5.7248,-5.7198,-5.6846,-5.6796,-5.6821,-5.6771,-5.6369,-5.6746,-5.7524,-5.7223,-5.7349,-5.7876,-5.8052,-5.8428,-5.888,-5.893,-5.9131,-5.9408,-5.8981,-5.8905,-5.9156,-5.873,-5.8504,-5.8378,-5.7374,-5.6872,-5.6922,-5.647,-5.6219,-5.6168,-5.5792,-5.5817,-5.6118,-5.5666,-5.5465,-5.539,-5.416,-5.3557,-5.3909,-5.4084,-5.4361,-5.4787,-5.5315,-5.6043,-5.6972,-5.7173,-5.7725,-5.8654,-5.9207,-5.9759,-6.0337,-6.1391,-6.2169,-6.2571,-6.2747,-6.2822,-6.2822,-6.2697,-6.2596,-6.2546,-6.2245,-6.2195,-6.2521,-6.2747,-6.2822,-6.2822,-6.2822,-6.2822,-6.2822,-6.2822,-6.2822,-6.2822,-6.2822,-6.2822,-6.2822,-6.2797,-6.2672,-6.232,-6.1492,-6.0563,-5.9859,-5.9433,-5.9156,-5.9006,-5.8252,-5.7499,-5.7474,-5.6671,-5.5767,-5.4963,-5.411,-5.3808,-5.3582,-5.3281,-5.2929,-5.2861,-5.2861,-5.2861,-5.2861,-5.2861,-5.2861,-5.2861,-5.2861,-5.2861,-5.2861,-5.2861,-5.2861,-5.2861,-5.2861,-5.2861,-5.6219,-5.6219,-5.6219,-5.6244,-5.6269,-5.6319,-5.6319,-5.6294,-5.6269,-5.6269,-5.6294,-5.6244,-5.6545,-5.7047,-5.6997,-5.7349,-5.7926,-5.8378,-5.883,-5.9332,-5.9357,-5.9433,-5.9458,-5.8981,-5.873,-5.873,-5.8328,-5.8001,-5.7876,-5.6821,-5.652,-5.6947,-5.647,-5.6219,-5.6194,-5.6143,-5.6168,-5.6143,-5.5717,-5.5641,-5.5968,-5.5064,-5.4511,-5.4612,-5.5013,-5.5265,-5.539,-5.5867,-5.6445,-5.7022,-5.7499,-5.8077,-5.8679,-5.9207,-5.9734,-6.0337,-6.1341,-6.1994,-6.2094,-6.2496,-6.2772,-6.2722,-6.2395,-6.2069,-6.2119,-6.2044,-6.2069,-6.2069,-6.2546,-6.2772,-6.2822,-6.2822,-6.2822,-6.2822,-6.2822,-6.2822,-6.2822,-6.2822,-6.2822,-6.2822,-6.2772,-6.2421,-6.1492,-6.0738,-6.0512,-6.0311,-6.0236,-6.0211,-6.0035,-5.9282,-5.873,-5.8529,-5.8027,-5.7223,-5.5691,-5.4662,-5.3984,-5.3683,-5.3432,-5.2861,-5.2861,-5.2861,-5.2861,-5.2861,-5.2861,-5.2861,-5.2861,-5.2861,-5.2861,-5.2861,-5.2861,-5.2861,-5.2861,-5.2861,-5.2861,-5.6219,-5.6219,-5.6219,-5.6219,-5.6219,-5.6219,-5.6219,-5.6219,-5.6219,-5.6219,-5.6219,-5.6219,-5.6319,-5.652,-5.652,-5.7223,-5.8303,-5.7901,-5.8127,-5.888,-5.8654,-5.8478,-5.8478,-5.8604,-5.8529,-5.8252,-5.8353,-5.8052,-5.7323,-5.657,-5.6294,-5.6445,-5.6319,-5.6219,-5.6219,-5.6219,-5.6219,-5.6194,-5.5993,-5.6018,-5.6168,-5.5817,-5.5616,-5.5616,-5.5465,-5.539,-5.539,-5.5917,-5.647,-5.7022,-5.7223,-5.7775,-5.8654,-5.9207,-5.9734,-6.0261,-6.0688,-6.109,-6.1492,-6.1994,-6.2144,-6.1843,-6.2295,-6.2345,-6.2094,-6.2019,-6.2144,-6.2421,-6.232,-6.2446,-6.2747,-6.2822,-6.2822,-6.2822,-6.2822,-6.2822,-6.2822,-6.2822,-6.2822,-6.2772,-6.2546,-6.2094,-6.1743,-6.1215,-6.0889,-6.0864,-6.0864,-6.0864,-6.0763,-6.0186,-5.9684,-5.9583,-5.9006,-5.8227,-5.775,-5.5917,-5.4687,-5.4135,-5.3683,-5.3181,-5.298,-5.3005,-5.3005,-5.303,-5.3005,-5.2861,-5.2861,-5.2861,-5.2861,-5.2861,-5.2861,-5.2861,-5.2861,-5.2861,-5.2861,-5.6219,-5.6219,-5.6219,-5.6219,-5.6219,-5.6394,-5.647,-5.647,-5.6495,-5.647,-5.6445,-5.6294,-5.6294,-5.6445,-5.647,-5.7273,-5.8529,-5.775,-5.7926,-5.888,-5.8579,-5.8428,-5.8453,-5.8629,-5.8529,-5.8227,-5.8328,-5.7951,-5.7097,-5.6671,-5.647,-5.6495,-5.6319,-5.6219,-5.6219,-5.6219,-5.6219,-5.6219,-5.6219,-5.6219,-5.6219,-5.6219,-5.6219,-5.6168,-5.5842,-5.5641,-5.5666,-5.6018,-5.647,-5.6947,-5.7047,-5.7474,-5.8378,-5.8956,-5.9408,-5.9784,-6.0136,-6.0487,-6.0914,-6.1592,-6.1843,-6.1517,-6.2094,-6.237,-6.2044,-6.1994,-6.2195,-6.2395,-6.2471,-6.2446,-6.2722,-6.2822,-6.2822,-6.2822,-6.2822,-6.2822,-6.2822,-6.2822,-6.2822,-6.2747,-6.237,-6.2069,-6.1969,-6.1667,-6.1492,-6.1441,-6.1441,-6.1441,-6.1366,-6.0788,-6.0311,-6.0236,-5.9533,-5.893,-5.8378,-5.7072,-5.5892,-5.5265,-5.426,-5.3658,-5.3331,-5.3281,-5.3181,-5.3155,-5.3055,-5.2911,-5.2861,-5.2861,-5.2861,-5.2861,-5.2861,-5.2861,-5.2861,-5.2861,-5.2861,-5.6219,-5.6219,-5.6219,-5.6219,-5.6269,-5.6696,-5.6898,-5.6897,-5.6922,-5.6846,-5.6746,-5.642,-5.6445,-5.6872,-5.6821,-5.7575,-5.8303,-5.8001,-5.8353,-5.9257,-5.9282,-5.9232,-5.9182,-5.8855,-5.8755,-5.8679,-5.8177,-5.7675,-5.7198,-5.7047,-5.6947,-5.6823,-5.6445,-5.6219,-5.6219,-5.6219,-5.6219,-5.6219,-5.6219,-5.6219,-5.6219,-5.6219,-5.6219,-5.6219,-5.6168,-5.6143,-5.6168,-5.6194,-5.6445,-5.6897,-5.6972,-5.7298,-5.7926,-5.8478,-5.878,-5.9031,-5.9734,-6.0236,-6.0412,-6.1316,-6.1893,-6.1793,-6.1994,-6.2144,-6.2044,-6.2069,-6.2119,-6.2245,-6.2521,-6.2822,-6.2797,-6.2822,-6.2822,-6.2822,-6.2822,-6.2822,-6.2822,-6.2822,-6.2822,-6.2747,-6.2345,-6.2044,-6.2019,-6.1943,-6.1918,-6.1969,-6.1994,-6.2019,-6.1918,-6.114,-6.0462,-6.0286,-5.9809,-5.9232,-5.8755,-5.8202,-5.7323,-5.642,-5.5265,-5.4411,-5.421,-5.411,-5.3808,-5.3683,-5.3306,-5.3206,-5.2861,-5.2861,-5.2861,-5.2861,-5.2861,-5.2861,-5.2861,-5.2861,-5.2861,-5.6219,-5.6219,-5.6219,-5.6219,-5.6219,-5.6394,-5.647,-5.647,-5.647,-5.647,-5.6445,-5.6294,-5.6319,-5.642,-5.647,-5.6872,-5.7549,-5.7775,-5.8278,-5.8805,-5.8604,-5.8453,-5.8478,-5.8629,-5.8905,-5.9031,-5.8328,-5.8027,-5.8001,-5.7424,-5.7047,-5.6922,-5.6495,-5.6219,-5.6219,-5.6219,-5.6219,-5.6219,-5.6219,-5.6219,-5.6219,-5.6219,-5.6219,-5.6219,-5.6219,-5.6219,-5.6219,-5.6219,-5.6294,-5.647,-5.647,-5.6897,-5.7775,-5.8428,-5.8855,-5.9232,-5.9533,-5.9759,-5.9885,-6.0763,-6.1291,-6.119,-6.1893,-6.2295,-6.2119,-6.2345,-6.2546,-6.2571,-6.2722,-6.2822,-6.2822,-6.2822,-6.2822,-6.2822,-6.2822,-6.2822,-6.2822,-6.2822,-6.2822,-6.2772,-6.2345,-6.2195,-6.237,-6.232,-6.2195,-6.2471,-6.2521,-6.2546,-6.237,-6.1542,-6.0964,-6.0864,-6.0161,-5.9458,-5.9106,-5.878,-5.8227,-5.7424,-5.6369,-5.5541,-5.529,-5.4813,-5.4511,-5.4059,-5.3683,-5.3356,-5.308,-5.2861,-5.2861,-5.2861,-5.2861,-5.2861,-5.2861,-5.2861,-5.2861,-5.6219,-5.6219,-5.6219,-5.6219,-5.6244,-5.642,-5.652,-5.652,-5.652,-5.652,-5.6495,-5.6294,-5.6219,-5.6244,-5.642,-5.6696,-5.7097,-5.7826,-5.8278,-5.8453,-5.8579,-5.8403,-5.8303,-5.8755,-5.9031,-5.9106,-5.873,-5.8554,-5.8654,-5.8027,-5.7575,-5.7323,-5.6997,-5.662,-5.6344,-5.662,-5.6696,-5.6319,-5.642,-5.642,-5.6244,-5.6219,-5.6219,-5.6219,-5.6219,-5.6219,-5.6219,-5.6219,-5.6219,-5.6219,-5.6219,-5.6671,-5.7524,-5.8102,-5.8654,-5.9106,-5.9408,-5.9583,-5.9834,-6.0688,-6.1165,-6.119,-6.2119,-6.2672,-6.2446,-6.2672,-6.2822,-6.2822,-6.2822,-6.2822,-6.2822,-6.2822,-6.2822,-6.2822,-6.2822,-6.2822,-6.2822,-6.2822,-6.2822,-6.2747,-6.2521,-6.2546,-6.2621,-6.2596,-6.2421,-6.2772,-6.2822,-6.2697,-6.2446,-6.1718,-6.1341,-6.0839,-6.006,-5.9608,-5.9483,-5.9257,-5.9031,-5.8328,-5.7524,-5.6922,-5.652,-5.5767,-5.5239,-5.4461,-5.3959,-5.3632,-5.3356,-5.303,-5.2861,-5.2861,-5.2911,-5.2861,-5.2861,-5.2861,-5.2861,-5.6219,-5.6219,-5.6219,-5.6219,-5.6269,-5.6696,-5.6872,-5.6922,-5.6922,-5.6872,-5.6796,-5.6394,-5.6219,-5.6319,-5.662,-5.6846,-5.7148,-5.7926,-5.8102,-5.8127,-5.8629,-5.9006,-5.873,-5.9156,-5.9232,-5.8981,-5.9232,-5.9182,-5.8855,-5.8629,-5.8453,-5.7976,-5.7775,-5.7374,-5.6796,-5.7399,-5.7323,-5.6646,-5.6872,-5.6846,-5.6445,-5.6394,-5.6394,-5.6394,-5.6344,-5.6319,-5.6344,-5.6269,-5.6219,-5.6219,-5.6269,-5.662,-5.7123,-5.765,-5.8303,-5.888,-5.9257,-5.9734,-6.0261,-6.0814,-6.1366,-6.1843,-6.2395,-6.2822,-6.2772,-6.2772,-6.2822,-6.2822,-6.2822,-6.2822,-6.2822,-6.2822,-6.2822,-6.2822,-6.2822,-6.2822,-6.2772,-6.2772,-6.2822,-6.2822,-6.2822,-6.2822,-6.2822,-6.2772,-6.2797,-6.2797,-6.2822,-6.2647,-6.2295,-6.1768,-6.109,-6.0563,-6.0111,-5.9734,-5.9583,-5.9458,-5.9232,-5.8981,-5.8353,-5.8001,-5.7449,-5.6671,-5.5742,-5.4963,-5.4411,-5.4034,-5.3708,-5.3482,-5.3231,-5.3155,-5.313,-5.2936,-5.2861,-5.2861,-5.2955,-5.6219,-5.6219,-5.6219,-5.6219,-5.6219,-5.6394,-5.6445,-5.642,-5.6445,-5.647,-5.6394,-5.6294,-5.6219,-5.6244,-5.6344,-5.642,-5.6646,-5.7198,-5.7173,-5.6972,-5.8252,-5.883,-5.8855,-5.9257,-5.9433,-5.9307,-5.9408,-5.9433,-5.9282,-5.893,-5.8654,-5.8504,-5.8127,-5.7801,-5.7575,-5.7775,-5.775,-5.7499,-5.7549,-5.76,-5.7449,-5.7399,-5.7449,-5.7424,-5.7022,-5.6846,-5.6771,-5.642,-5.6219,-5.6244,-5.662,-5.7072,-5.7625,-5.8177,-5.8679,-5.9182,-5.9408,-5.9759,-6.0311,-6.0864,-6.1416,-6.1969,-6.2521,-6.2822,-6.2822,-6.2822,-6.2822,-6.2822,-6.2822,-6.2822,-6.2822,-6.2822,-6.2822,-6.2822,-6.2822,-6.2697,-6.2446,-6.2596,-6.2822,-6.2822,-6.2822,-6.2822,-6.2822,-6.2822,-6.2822,-6.2822,-6.2822,-6.2747,-6.237,-6.2044,-6.1441,-6.0989,-6.0537,-6.001,-5.9659,-5.9558,-5.9458,-5.9433,-5.9106,-5.8855,-5.8227,-5.7449,-5.642,-5.544,-5.5164,-5.4813,-5.4511,-5.4235,-5.3909,-5.3532,-5.3507,-5.3482,-5.3105,-5.2911,-5.303,-5.6219,-5.6219,-5.6219,-5.6219,-5.6219,-5.6219,-5.6219,-5.6219,-5.6219,-5.6219,-5.6219,-5.6219,-5.6219,-5.6219,-5.6219,-5.6219,-5.6294,-5.6796,-5.6798,-5.6872,-5.8077,-5.8805,-5.9081,-5.9382,-5.9508,-5.9508,-5.9508,-5.9483,-5.9433,-5.9182,-5.8956,-5.8755,-5.8629,-5.8353,-5.7901,-5.8378,-5.8303,-5.8027,-5.8077,-5.8152,-5.7926,-5.7901,-5.7876,-5.7851,-5.7549,-5.7323,-5.7022,-5.6721,-5.647,-5.6394,-5.6746,-5.7298,-5.7876,-5.8428,-5.8956,-5.9433,-5.9508,-5.9809,-6.0563,-6.104,-6.1542,-6.2195,-6.2697,-6.2797,-6.2822,-6.2822,-6.2822,-6.2822,-6.2822,-6.2822,-6.2822,-6.2822,-6.2722,-6.2521,-6.2672,-6.2697,-6.237,-6.2647,-6.2797,-6.2822,-6.2822,-6.2822,-6.2822,-6.2822,-6.2822,-6.2822,-6.2822,-6.2672,-6.2421,-6.2169,-6.1843,-6.1341,-6.0814,-6.0261,-5.9859,-5.9684,-5.9508,-5.9483,-5.9458,-5.9282,-5.8805,-5.8077,-5.7298,-5.642,-5.6018,-5.5641,-5.5315,-5.4888,-5.4386,-5.411,-5.4084,-5.3959,-5.3658,-5.3381,-5.3381,-5.6143,-5.6143,-5.6143,-5.6168,-5.6194,-5.6219,-5.6219,-5.6219,-5.6219,-5.6219,-5.6219,-5.6219,-5.6219,-5.6219,-5.6219,-5.6244,-5.6344,-5.6846,-5.7148,-5.7499,-5.8303,-5.8956,-5.9382,-5.9458,-5.9508,-5.9508,-5.9508,-5.9508,-5.9483,-5.9458,-5.9257,-5.9031,-5.9257,-5.8956,-5.8529,-5.9006,-5.8905,-5.8428,-5.8604,-5.8604,-5.8328,-5.8252,-5.8278,-5.8252,-5.8077,-5.77,-5.7349,-5.7097,-5.6947,-5.642,-5.6922,-5.7524,-5.8052,-5.8529,-5.8981,-5.9433,-5.9633,-6.0111,-6.0964,-6.124,-6.1718,-6.2546,-6.2772,-6.2822,-6.2822,-6.2822,-6.2822,-6.2822,-6.2822,-6.2822,-6.2822,-6.2822,-6.2647,-6.2421,-6.2621,-6.2797,-6.2822,-6.2822,-6.2822,-6.2822,-6.2822,-6.2822,-6.2822,-6.2822,-6.2822,-6.2822,-6.2822,-6.2722,-6.2571,-6.2395,-6.2019,-6.1517,-6.0989,-6.0462,-6.0136,-5.9834,-5.9633,-5.9483,-5.9483,-5.9357,-5.9106,-5.8529,-5.8027,-5.7474,-5.6922,-5.647,-5.6118,-5.5616,-5.5089,-5.4787,-5.4813,-5.4662,-5.4461,-5.4185,-5.4059,-5.5566,-5.5566,-5.5566,-5.5817,-5.6168,-5.6219,-5.6219,-5.6219,-5.6194,-5.6168,-5.6219,-5.6219,-5.6194,-5.6219,-5.6244,-5.6445,-5.6796,-5.7072,-5.7374,-5.8378,-5.8529,-5.9006,-5.9408,-5.9508,-5.9508,-5.9508,-5.9508,-5.9508,-5.9508,-5.9483,-5.9458,-5.9382,-5.9382,-5.9382,-5.9232,-5.9257,-5.9433,-5.9182,-5.9257,-5.9207,-5.9106,-5.9056,-5.9056,-5.9031,-5.8704,-5.8252,-5.7826,-5.77,-5.765,-5.77,-5.8027,-5.8378,-5.8554,-5.8981,-5.9357,-5.9558,-5.991,-6.0412,-6.109,-6.1567,-6.2094,-6.2697,-6.2822,-6.2822,-6.2822,-6.2822,-6.2822,-6.2822,-6.2822,-6.2822,-6.2822,-6.2822,-6.2747,-6.2672,-6.2722,-6.2822,-6.2822,-6.2822,-6.2822,-6.2822,-6.2822,-6.2822,-6.2822,-6.2822,-6.2822,-6.2822,-6.2797,-6.2747,-6.2672,-6.2596,-6.227,-6.1843,-6.1391,-6.0889,-6.0387,-6.001,-5.9633,-5.9508,-5.9508,-5.9483,-5.9207,-5.8956,-5.8478,-5.8102,-5.7725,-5.7298,-5.6897,-5.6721,-5.6269,-5.5917,-5.5491,-5.5239,-5.5039,-5.4838,-5.4662,-5.539,-5.539,-5.539,-5.5717,-5.6168,-5.6219,-5.6219,-5.6168,-5.5917,-5.5968,-5.6118,-5.5968,-5.5968,-5.6194,-5.6244,-5.652,-5.7097,-5.7625,-5.8127,-5.8679,-5.893,-5.9232,-5.9408,-5.9508,-5.9508,-5.9483,-5.9508,-5.9508,-5.9508,-5.9483,-5.9483,-5.9508,-5.9508,-5.9483,-5.9508,-5.9508,-5.9483,-5.9458,-5.9508,-5.9508,-5.9508,-5.9508,-5.9508,-5.9408,-5.9006,-5.8554,-5.8303,-5.8278,-5.8278,-5.8403,-5.878,-5.8956,-5.8855,-5.9207,-5.9583,-5.9885,-5.9834,-6.0563,-6.1291,-6.1617,-6.1943,-6.2772,-6.2822,-6.2822,-6.2822,-6.2822,-6.2822,-6.2822,-6.2822,-6.2822,-6.2822,-6.2822,-6.2822,-6.2822,-6.2822,-6.2822,-6.2822,-6.2822,-6.2822,-6.2822,-6.2822,-6.2822,-6.2822,-6.2822,-6.2822,-6.2822,-6.2822,-6.2797,-6.2797,-6.2722,-6.2672,-6.232,-6.1893,-6.1366,-6.0763,-6.0211,-5.9608,-5.9508,-5.9508,-5.9508,-5.9382,-5.9156,-5.893,-5.8579,-5.8252,-5.8001,-5.765,-5.7524,-5.7273,-5.6746,-5.6244,-5.5867,-5.5641,-5.5616,-5.5365,-5.5139,-5.5139,-5.5139,-5.5465,-5.5917,-5.5917,-5.5968,-5.5993,-5.5591,-5.5666,-5.5993,-5.5641,-5.5842,-5.6018,-5.6194,-5.6545,-5.7323,-5.8127,-5.8679,-5.8755,-5.888,-5.9006,-5.9081,-5.9081,-5.9182,-5.9357,-5.9332,-5.9332,-5.9458,-5.9433,-5.9357,-5.9458,-5.9508,-5.9508,-5.9508,-5.9508,-5.9508,-5.9508,-5.9508,-5.9508,-5.9508,-5.9508,-5.9508,-5.9408,-5.9156,-5.893,-5.883,-5.883,-5.883,-5.8855,-5.9257,-5.9207,-5.9106,-5.9232,-5.9659,-6.0136,-5.9985,-6.0563,-6.1441,-6.1692,-6.1994,-6.2797,-6.2822,-6.2822,-6.2822,-6.2822,-6.2822,-6.2822,-6.2822,-6.2822,-6.2822,-6.2822,-6.2822,-6.2822,-6.2822,-6.2822,-6.2822,-6.2822,-6.2822,-6.2822,-6.2822,-6.2822,-6.2822,-6.2822,-6.2822,-6.2822,-6.2822,-6.2822,-6.2822,-6.2822,-6.2772,-6.2596,-6.2144,-6.1617,-6.1014,-6.0763,-6.0111,-5.9935,-5.9859,-5.9759,-5.9734,-5.9633,-5.9458,-5.9056,-5.8755,-5.8529,-5.8353,-5.8177,-5.7826,-5.7374,-5.7097,-5.6796,-5.6595,-5.642,-5.6093,-5.3984,-5.3984,-5.3984,-5.431,-5.4813,-5.4838,-5.5139,-5.5491,-5.5365,-5.5415,-5.5541,-5.5867,-5.5742,-5.5742,-5.6043,-5.6746,-5.76,-5.8353,-5.8704,-5.8604,-5.8504,-5.8353,-5.8328,-5.8478,-5.8529,-5.8755,-5.8905,-5.9106,-5.9307,-5.9106,-5.9207,-5.9433,-5.9508,-5.9508,-5.9508,-5.9508,-5.9508,-5.9508,-5.9508,-5.9508,-5.9508,-5.9508,-5.9508,-5.9483,-5.9332,-5.9307,-5.9332,-5.9332,-5.9357,-5.9382,-5.9458,-5.9433,-5.9382,-5.9458,-5.9633,-5.991,-6.0362,-6.0889,-6.1517,-6.2119,-6.2496,-6.2797,-6.2822,-6.2822,-6.2822,-6.2822,-6.2822,-6.2822,-6.2822,-6.2822,-6.2822,-6.2822,-6.2822,-6.2822,-6.2822,-6.2822,-6.2822,-6.2822,-6.2822,-6.2822,-6.2822,-6.2822,-6.2822,-6.2822,-6.2822,-6.2822,-6.2822,-6.2822,-6.2822,-6.2822,-6.2822,-6.2596,-6.232,-6.1768,-6.1215,-6.1115,-6.0839,-6.0738,-6.0613,-6.0362,-6.0311,-6.0236,-5.9985,-5.9433,-5.9232,-5.9156,-5.8981,-5.8755,-5.8504,-5.8102,-5.7901,-5.7725,-5.7374,-5.7047,-5.6922,-5.3708,-5.3708,-5.3708,-5.4034,-5.4511,-5.4561,-5.4712,-5.4888,-5.4662,-5.4687,-5.4963,-5.5239,-5.5415,-5.5516,-5.5968,-5.6696,-5.7474,-5.8378,-5.8529,-5.8328,-5.8303,-5.8127,-5.7951,-5.8127,-5.8227,-5.8403,-5.8579,-5.8981,-5.9433,-5.9282,-5.9257,-5.9408,-5.9508,-5.9508,-5.9508,-5.9508,-5.9508,-5.9508,-5.9508,-5.9508,-5.9508,-5.9508,-5.9508,-5.9508,-5.9508,-5.9508,-5.9508,-5.9508,-5.9483,-5.9483,-5.9483,-5.9508,-5.9583,-5.9809,-6.006,-6.0362,-6.0663,-6.1215,-6.1768,-6.2395,-6.2471,-6.2797,-6.2822,-6.2822,-6.2822,-6.2822,-6.2822,-6.2822,-6.2822,-6.2822,-6.2822,-6.2822,-6.2822,-6.2822,-6.2822,-6.2822,-6.2822,-6.2822,-6.2822,-6.2822,-6.2822,-6.2822,-6.2822,-6.2822,-6.2822,-6.2822,-6.2822,-6.2822,-6.2822,-6.2822,-6.2822,-6.2672,-6.2446,-6.2119,-6.1642,-6.1517,-6.1466,-6.1416,-6.1316,-6.1065,-6.0713,-6.0537,-6.0085,-5.9533,-5.9508,-5.9508,-5.9408,-5.9131,-5.8981,-5.8805,-5.8529,-5.8227,-5.7926,-5.7675,-5.7549,-5.3557,-5.3557,-5.3532,-5.3808,-5.4185,-5.4235,-5.4285,-5.4285,-5.3934,-5.3984,-5.4361,-5.4561,-5.4863,-5.534,-5.6018,-5.6721,-5.7248,-5.8127,-5.8077,-5.8027,-5.7926,-5.7851,-5.7801,-5.7901,-5.7926,-5.7801,-5.8252,-5.883,-5.9182,-5.9207,-5.9357,-5.9458,-5.9508,-5.9508,-5.9508,-5.9508,-5.9508,-5.9508,-5.9508,-5.9508,-5.9508,-5.9508,-5.9508,-5.9508,-5.9508,-5.9508,-5.9508,-5.9508,-5.9508,-5.9533,-5.9608,-5.9684,-5.9759,-6.0186,-6.0738,-6.1165,-6.0889,-6.1517,-6.2094,-6.2471,-6.2496,-6.2797,-6.2822,-6.2822,-6.2822,-6.2822,-6.2822,-6.2822,-6.2822,-6.2822,-6.2822,-6.2822,-6.2822,-6.2822,-6.2822,-6.2822,-6.2822,-6.2822,-6.2822,-6.2822,-6.2822,-6.2822,-6.2822,-6.2822,-6.2822,-6.2822,-6.2822,-6.2822,-6.2822,-6.2822,-6.2797,-6.2722,-6.2571,-6.237,-6.2119,-6.1943,-6.1918,-6.1918,-6.1843,-6.1692,-6.119,-6.0713,-6.0236,-5.9834,-5.9508,-5.9508,-5.9508,-5.9483,-5.9282,-5.9081,-5.8956,-5.878,-5.8604,-5.8328,-5.8077,-5.3005,-5.303,-5.303,-5.3055,-5.3155,-5.3181,-5.3406,-5.3758,-5.3708,-5.3733,-5.3858,-5.431,-5.4561,-5.5013,-5.6219,-5.7148,-5.7474,-5.7474,-5.7524,-5.7575,-5.7148,-5.6796,-5.652,-5.6445,-5.7072,-5.7323,-5.7851,-5.8278,-5.8805,-5.8905,-5.9106,-5.9408,-5.9508,-5.9508,-5.9508,-5.9583,-5.9508,-5.9508,-5.9508,-5.9508,-5.9508,-5.9533,-5.9558,-5.9508,-5.9508,-5.9508,-5.9508,-5.9558,-5.9583,-5.9608,-6.001,-6.0211,-6.0311,-6.0763,-6.1316,-6.1718,-6.1868,-6.1893,-6.222,-6.2471,-6.2647,-6.2797,-6.2822,-6.2822,-6.2822,-6.2822,-6.2822,-6.2822,-6.2822,-6.2822,-6.2822,-6.2822,-6.2822,-6.2822,-6.2822,-6.2822,-6.2822,-6.2822,-6.2822,-6.2822,-6.2822,-6.2822,-6.2822,-6.2822,-6.2822,-6.2822,-6.2822,-6.2822,-6.2822,-6.2822,-6.2822,-6.2747,-6.2722,-6.2571,-6.2471,-6.2345,-6.2295,-6.2345,-6.2295,-6.2169,-6.1642,-6.109,-6.0688,-6.0286,-5.9885,-5.9508,-5.9508,-5.9483,-5.9458,-5.9357,-5.9207,-5.9282,-5.9382,-5.9031,-5.8604,-5.2861,-5.2861,-5.2861,-5.2861,-5.2861,-5.2861,-5.3055,-5.3231,-5.3256,-5.3256,-5.3356,-5.3833,-5.426,-5.4737,-5.5717,-5.6194,-5.652,-5.6846,-5.6947,-5.7072,-5.6721,-5.6495,-5.6394,-5.652,-5.6872,-5.7148,-5.7851,-5.8478,-5.8755,-5.9031,-5.9332,-5.9458,-5.9508,-5.9508,-5.9659,-5.9834,-5.9734,-5.9684,-5.9759,-5.9784,-5.9659,-5.9759,-5.9809,-5.9533,-5.9533,-5.9533,-5.9608,-5.9834,-5.9935,-6.006,-6.0487,-6.0788,-6.0939,-6.1316,-6.1793,-6.1943,-6.232,-6.2446,-6.2546,-6.2722,-6.2797,-6.2822,-6.2822,-6.2822,-6.2822,-6.2822,-6.2822,-6.2822,-6.2822,-6.2822,-6.2822,-6.2822,-6.2822,-6.2822,-6.2822,-6.2822,-6.2822,-6.2822,-6.2822,-6.2822,-6.2822,-6.2822,-6.2822,-6.2822,-6.2822,-6.2822,-6.2822,-6.2822,-6.2822,-6.2822,-6.2822,-6.2822,-6.2797,-6.2772,-6.2747,-6.2672,-6.2596,-6.2621,-6.2621,-6.2421,-6.1969,-6.1517,-6.1065,-6.0487,-5.9885,-5.9633,-5.9533,-5.9483,-5.9483,-5.9483,-5.9483,-5.9508,-5.9508,-5.9458,-5.9081,-5.2861,-5.2861,-5.2861,-5.2861,-5.2861,-5.2861,-5.2861,-5.2929,-5.2886,-5.2955,-5.308,-5.3482,-5.3984,-5.4461,-5.5064,-5.5616,-5.5742,-5.647,-5.662,-5.662,-5.6595,-5.652,-5.647,-5.6696,-5.6997,-5.7072,-5.8127,-5.8629,-5.8855,-5.9182,-5.9508,-5.9684,-5.9784,-5.9859,-6.0035,-6.0286,-6.0362,-6.0136,-6.0387,-6.0337,-6.0136,-6.0337,-6.0261,-6.0035,-5.9809,-5.9784,-5.9935,-6.006,-6.0286,-6.0638,-6.1065,-6.1366,-6.1466,-6.1893,-6.2195,-6.2345,-6.2596,-6.2747,-6.2747,-6.2822,-6.2822,-6.2822,-6.2822,-6.2822,-6.2822,-6.2822,-6.2822,-6.2822,-6.2822,-6.2822,-6.2822,-6.2822,-6.2822,-6.2822,-6.2822,-6.2822,-6.2822,-6.2822,-6.2822,-6.2822,-6.2822,-6.2822,-6.2822,-6.2822,-6.2822,-6.2822,-6.2822,-6.2822,-6.2822,-6.2822,-6.2822,-6.2822,-6.2822,-6.2822,-6.2822,-6.2822,-6.2822,-6.2822,-6.2822,-6.2722,-6.232,-6.1818,-6.1341,-6.0688,-6.0035,-5.9709,-5.9583,-5.9533,-5.9508,-5.9508,-5.9508,-5.9508,-5.9508,-5.9508,-5.9483,-5.2861,-5.2861,-5.2861,-5.2861,-5.2861,-5.2861,-5.2861,-5.2861,-5.2861,-5.2861,-5.3005,-5.3432,-5.3658,-5.4009,-5.4813,-5.5541,-5.6068,-5.6219,-5.6495,-5.6595,-5.6545,-5.6344,-5.6394,-5.6696,-5.7097,-5.7273,-5.8202,-5.8679,-5.888,-5.9382,-5.9809,-6.0186,-6.0136,-6.0563,-6.0788,-6.0889,-6.104,-6.0914,-6.109,-6.1065,-6.0964,-6.104,-6.1014,-6.0889,-6.0588,-6.0487,-6.0989,-6.0713,-6.0688,-6.1115,-6.1642,-6.1943,-6.2044,-6.237,-6.2596,-6.2672,-6.2722,-6.2822,-6.2822,-6.2822,-6.2822,-6.2822,-6.2822,-6.2822,-6.2822,-6.2822,-6.2822,-6.2822,-6.2822,-6.2898,-6.2873,-6.2822,-6.2847,-6.2973,-6.2948,-6.2822,-6.2822,-6.2822,-6.2822,-6.2822,-6.2822,-6.2822,-6.2822,-6.2822,-6.2822,-6.2822,-6.2822,-6.2822,-6.2822,-6.2822,-6.2822,-6.2822,-6.2822,-6.2822,-6.2822,-6.2822,-6.2822,-6.2822,-6.2822,-6.2822,-6.2697,-6.2195,-6.1567,-6.104,-6.0437,-6.0035,-5.9659,-5.9558,-5.9508,-5.9508,-5.9508,-5.9508,-5.9508,-5.9508,-5.9508,-5.2861,-5.2861,-5.2861,-5.2861,-5.2861,-5.2861,-5.2861,-5.2861,-5.2861,-5.2861,-5.2955,-5.313,-5.3231,-5.3532,-5.431,-5.4963,-5.529,-5.5968,-5.6294,-5.6394,-5.6294,-5.6219,-5.642,-5.6796,-5.7223,-5.765,-5.8378,-5.893,-5.9257,-5.9684,-6.0286,-6.0613,-6.0537,-6.0713,-6.0989,-6.1316,-6.1416,-6.1642,-6.1642,-6.1567,-6.1266,-6.1517,-6.1517,-6.114,-6.104,-6.0939,-6.114,-6.1341,-6.1492,-6.1768,-6.222,-6.2395,-6.2446,-6.2722,-6.2797,-6.2822,-6.2822,-6.2822,-6.2822,-6.2822,-6.2822,-6.2822,-6.2822,-6.2822,-6.2822,-6.2822,-6.2822,-6.2822,-6.2873,-6.2973,-6.3324,-6.3073,-6.2898,-6.3124,-6.3124,-6.2948,-6.2873,-6.2898,-6.2822,-6.2822,-6.2822,-6.2822,-6.2822,-6.2822,-6.2822,-6.2822,-6.2822,-6.2822,-6.2822,-6.2822,-6.2822,-6.2822,-6.2822,-6.2822,-6.2822,-6.2822,-6.2822,-6.2822,-6.2822,-6.2822,-6.2772,-6.2345,-6.1743,-6.1266,-6.0738,-6.0186,-5.9784,-5.9583,-5.9508,-5.9508,-5.9508,-5.9508,-5.9508,-5.9508,-5.9508,-5.2779,-5.2861,-5.2861,-5.2861,-5.2861,-5.2861,-5.2861,-5.2861,-5.2861,-5.2861,-5.2861,-5.2861,-5.2861,-5.3231,-5.4059,-5.4587,-5.4963,-5.5641,-5.6093,-5.6294,-5.642,-5.6445,-5.6646,-5.7047,-5.765,-5.8127,-5.8478,-5.8956,-5.9433,-6.0035,-6.0563,-6.0889,-6.1014,-6.1266,-6.1617,-6.1692,-6.1868,-6.2169,-6.222,-6.2119,-6.1793,-6.2019,-6.2169,-6.1718,-6.1567,-6.1592,-6.1692,-6.1868,-6.2019,-6.2245,-6.2571,-6.2772,-6.2822,-6.2822,-6.2822,-6.2822,-6.2822,-6.2822,-6.2822,-6.2822,-6.2822,-6.2822,-6.2822,-6.2822,-6.2822,-6.2847,-6.2873,-6.3149,-6.3149,-6.3299,-6.3827,-6.3651,-6.355,-6.3827,-6.3425,-6.3224,-6.3099,-6.3073,-6.2923,-6.2822,-6.2822,-6.2822,-6.2822,-6.2822,-6.2822,-6.2822,-6.2822,-6.2822,-6.2822,-6.2822,-6.2822,-6.2822,-6.2822,-6.2822,-6.2822,-6.2822,-6.2822,-6.2822,-6.2822,-6.2822,-6.2697,-6.232,-6.1868,-6.1291,-6.0763,-6.0261,-5.9885,-5.9608,-5.9533,-5.9508,-5.9508,-5.9508,-5.9508,-5.9508,-5.9508,-5.2427,-5.2836,-5.2904,-5.2904,-5.2879,-5.2929,-5.2861,-5.2861,-5.2861,-5.2861,-5.2861,-5.2861,-5.2861,-5.3155,-5.4009,-5.4436,-5.4787,-5.5616,-5.6168,-5.6269,-5.6671,-5.6897,-5.7173,-5.7549,-5.8077,-5.8579,-5.8855,-5.9131,-5.9583,-6.0211,-6.0738,-6.1291,-6.1667,-6.2069,-6.2697,-6.2772,-6.2772,-6.2797,-6.2747,-6.2672,-6.2621,-6.2647,-6.2596,-6.2471,-6.2169,-6.2169,-6.2345,-6.2245,-6.2345,-6.2621,-6.2722,-6.2822,-6.2822,-6.2822,-6.2822,-6.2822,-6.2822,-6.2822,-6.2822,-6.2822,-6.2822,-6.2822,-6.2822,-6.2873,-6.2873,-6.2923,-6.3149,-6.3576,-6.3676,-6.3927,-6.4228,-6.4379,-6.4329,-6.4178,-6.3776,-6.3375,-6.3224,-6.3073,-6.2898,-6.2822,-6.2822,-6.2822,-6.2822,-6.2822,-6.2822,-6.2822,-6.2822,-6.2822,-6.2822,-6.2822,-6.2822,-6.2822,-6.2822,-6.2822,-6.2822,-6.2822,-6.2822,-6.2822,-6.2822,-6.2822,-6.2822,-6.2672,-6.2119,-6.1416,-6.1115,-6.0864,-6.0236,-5.9583,-5.9809,-6.001,-5.9583,-5.9508,-5.9508,-5.9508,-5.9508,-5.1674,-5.1875,-5.2226,-5.2377,-5.2427,-5.2804,-5.2861,-5.2861,-5.2861,-5.2861,-5.2861,-5.2861,-5.2861,-5.3181,-5.3632,-5.421,-5.4687,-5.5214,-5.5742,-5.6269,-5.6821,-5.6972,-5.7298,-5.7926,-5.8504,-5.878,-5.9031,-5.9483,-6.0085,-6.0613,-6.1165,-6.1743,-6.222,-6.2621,-6.2772,-6.2822,-6.2822,-6.2822,-6.2822,-6.2822,-6.2822,-6.2822,-6.2822,-6.2822,-6.2596,-6.2621,-6.2797,-6.2546,-6.2647,-6.2797,-6.2822,-6.2822,-6.2822,-6.2822,-6.2822,-6.2822,-6.2847,-6.2822,-6.2822,-6.2822,-6.2822,-6.2873,-6.2898,-6.3048,-6.3299,-6.34,-6.3701,-6.4053,-6.4203,-6.4505,-6.4856,-6.4605,-6.4454,-6.4329,-6.3952,-6.3425,-6.3149,-6.2973,-6.2822,-6.2822,-6.2822,-6.2822,-6.2822,-6.2822,-6.2822,-6.2822,-6.2822,-6.2822,-6.2822,-6.2822,-6.2822,-6.2822,-6.2822,-6.2822,-6.2822,-6.2822,-6.2822,-6.2822,-6.2822,-6.2822,-6.2822,-6.2822,-6.2446,-6.1768,-6.1667,-6.1517,-6.0814,-6.0337,-6.0537,-6.0563,-6.006,-5.9659,-5.9608,-5.9583,-5.9508,-5.1222,-5.1599,-5.195,-5.2226,-5.2427,-5.2779,-5.2861,-5.2861,-5.2861,-5.2861,-5.2861,-5.2861,-5.2861,-5.308,-5.3482,-5.4034,-5.4587,-5.5139,-5.5691,-5.6269,-5.7022,-5.7298,-5.77,-5.8252,-5.8755,-5.9031,-5.9332,-5.9759,-6.0286,-6.109,-6.1743,-6.2245,-6.2621,-6.2747,-6.2822,-6.2822,-6.2822,-6.2822,-6.2822,-6.2822,-6.2822,-6.2822,-6.2822,-6.2822,-6.2797,-6.2822,-6.2822,-6.2822,-6.2822,-6.2822,-6.2822,-6.2822,-6.2822,-6.2822,-6.2822,-6.2822,-6.3048,-6.3099,-6.3174,-6.3425,-6.35,-6.35,-6.3249,-6.3324,-6.3676,-6.3827,-6.4228,-6.4555,-6.4705,-6.5007,-6.5283,-6.4931,-6.468,-6.4555,-6.4053,-6.3525,-6.3274,-6.3124,-6.2822,-6.2822,-6.2822,-6.2822,-6.2822,-6.2822,-6.2822,-6.2822,-6.2822,-6.2822,-6.2822,-6.2822,-6.2822,-6.2822,-6.2822,-6.2822,-6.2822,-6.2822,-6.2822,-6.2822,-6.2822,-6.2822,-6.2822,-6.2822,-6.2471,-6.2169,-6.1969,-6.1718,-6.1341,-6.1115,-6.1115,-6.0864,-6.0362,-6.0035,-5.9809,-5.9633,-5.9508,-5.1021,-5.1975,-5.2076,-5.2377,-5.2829,-5.2879,-5.2861,-5.2861,-5.2861,-5.2861,-5.2861,-5.2861,-5.2861,-5.303,-5.3432,-5.3984,-5.4511,-5.5089,-5.5717,-5.6445,-5.7323,-5.765,-5.8077,-5.8529,-5.9106,-5.9408,-5.9684,-6.006,-6.0487,-6.1517,-6.2295,-6.2647,-6.2772,-6.2822,-6.2822,-6.2822,-6.2822,-6.2822,-6.2822,-6.2822,-6.2822,-6.2822,-6.2822,-6.2822,-6.2822,-6.2822,-6.2822,-6.2822,-6.2822,-6.2822,-6.2822,-6.2822,-6.2822,-6.2822,-6.2822,-6.3023,-6.3425,-6.355,-6.3751,-6.4078,-6.4203,-6.4103,-6.4002,-6.3852,-6.3952,-6.4329,-6.468,-6.4957,-6.5107,-6.5434,-6.5685,-6.5358,-6.5032,-6.463,-6.4153,-6.3802,-6.3576,-6.3299,-6.2948,-6.2822,-6.2822,-6.2822,-6.2822,-6.2822,-6.2822,-6.2822,-6.2822,-6.2822,-6.2822,-6.2822,-6.2822,-6.2822,-6.2822,-6.2822,-6.2822,-6.2822,-6.2822,-6.2822,-6.2822,-6.2822,-6.2822,-6.2822,-6.2596,-6.2395,-6.2169,-6.1943,-6.1818,-6.1617,-6.1441,-6.114,-6.0989,-6.0437,-6.0211,-5.9684,-5.9508,-5.0243,-5.0946,-5.1348,-5.185,-5.2352,-5.2754,-5.2861,-5.2861,-5.2861,-5.2861,-5.2861,-5.2861,-5.2861,-5.2886,-5.3105,-5.3733,-5.431,-5.4888,-5.5742,-5.6595,-5.7524,-5.8052,-5.8529,-5.9006,-5.9558,-5.991,-6.0186,-6.0588,-6.1441,-6.2295,-6.2571,-6.2797,-6.2822,-6.2822,-6.2822,-6.2822,-6.2822,-6.2822,-6.2822,-6.2822,-6.2822,-6.2822,-6.2822,-6.2822,-6.2822,-6.2822,-6.2822,-6.2822,-6.2822,-6.2822,-6.2822,-6.2822,-6.2822,-6.2847,-6.2923,-6.3425,-6.3651,-6.3827,-6.4178,-6.4404,-6.453,-6.4705,-6.468,-6.4856,-6.4881,-6.4931,-6.5107,-6.5233,-6.5283,-6.5459,-6.5308,-6.5007,-6.4856,-6.458,-6.4153,-6.3952,-6.3701,-6.34,-6.3048,-6.2822,-6.2822,-6.2822,-6.2822,-6.2822,-6.2822,-6.2822,-6.2822,-6.2822,-6.2822,-6.2822,-6.2822,-6.2822,-6.2822,-6.2822,-6.2822,-6.2822,-6.2822,-6.2822,-6.2822,-6.2822,-6.2822,-6.2797,-6.2722,-6.2621,-6.2471,-6.2471,-6.2496,-6.227,-6.1994,-6.2094,-6.1918,-6.119,-6.0537,-6.0111,-5.9759,-4.9916,-5.0444,-5.0795,-5.1373,-5.2126,-5.2703,-5.2861,-5.2861,-5.2861,-5.2861,-5.2861,-5.2861,-5.2861,-5.2861,-5.3005,-5.3507,-5.4511,-5.4687,-5.544,-5.6821,-5.7625,-5.8177,-5.8755,-5.9433,-5.9935,-6.0337,-6.0814,-6.1341,-6.2044,-6.2521,-6.2822,-6.2822,-6.2822,-6.2822,-6.2822,-6.2822,-6.2822,-6.2822,-6.2822,-6.2822,-6.2822,-6.2822,-6.2822,-6.2822,-6.2822,-6.2822,-6.2822,-6.2822,-6.2847,-6.2822,-6.2822,-6.2822,-6.2898,-6.3023,-6.3425,-6.3927,-6.4304,-6.4505,-6.4806,-6.5057,-6.5082,-6.5157,-6.5383,-6.5383,-6.5409,-6.5409,-6.5383,-6.5358,-6.5258,-6.5132,-6.4781,-6.4479,-6.4479,-6.4454,-6.4254,-6.4053,-6.3776,-6.3475,-6.3199,-6.2898,-6.2822,-6.2822,-6.2822,-6.2847,-6.2822,-6.2822,-6.2822,-6.2822,-6.2822,-6.2822,-6.2822,-6.2822,-6.2822,-6.2822,-6.2822,-6.2822,-6.2822,-6.2822,-6.2822,-6.2822,-6.2822,-6.2822,-6.2772,-6.2797,-6.2797,-6.2772,-6.2697,-6.2747,-6.2621,-6.2647,-6.2471,-6.1818,-6.119,-6.0814,-6.0487,-4.9916,-5.0419,-5.0519,-5.1222,-5.2101,-5.2703,-5.2861,-5.2861,-5.2861,-5.2861,-5.2861,-5.2861,-5.2861,-5.2861,-5.2886,-5.3557,-5.4285,-5.4612,-5.5566,-5.6998,-5.7625,-5.8227,-5.9031,-5.9759,-6.0261,-6.0738,-6.1266,-6.1843,-6.2144,-6.2546,-6.2822,-6.2822,-6.2822,-6.2822,-6.2822,-6.2822,-6.2822,-6.2822,-6.2822,-6.2822,-6.2822,-6.2822,-6.2822,-6.2822,-6.2822,-6.2822,-6.2847,-6.2873,-6.2898,-6.2898,-6.2923,-6.2948,-6.3124,-6.3475,-6.3977,-6.4429,-6.4856,-6.5132,-6.5358,-6.5634,-6.586,-6.5961,-6.6086,-6.5835,-6.5735,-6.5584,-6.5459,-6.5007,-6.4781,-6.468,-6.4379,-6.4454,-6.4505,-6.4555,-6.4505,-6.4454,-6.4404,-6.3927,-6.3324,-6.3099,-6.3073,-6.3073,-6.3174,-6.3224,-6.3324,-6.3099,-6.2998,-6.2998,-6.2847,-6.2847,-6.2847,-6.2847,-6.2822,-6.2822,-6.2822,-6.2822,-6.2822,-6.2822,-6.2822,-6.2822,-6.2822,-6.2822,-6.2822,-6.2822,-6.2822,-6.2822,-6.2797,-6.2822,-6.2822,-6.2747,-6.2546,-6.222,-6.1818,-6.1492,-6.1115,-4.9916,-5.0494,-5.1348,-5.1875,-5.2151,-5.2703,-5.2861,-5.2861,-5.2861,-5.2861,-5.2861,-5.2861,-5.2861,-5.2861,-5.2929,-5.3532,-5.4361,-5.4787,-5.5892,-5.7097,-5.7876,-5.8478,-5.9232,-5.9935,-6.0462,-6.109,-6.1667,-6.2195,-6.2521,-6.2747,-6.2822,-6.2822,-6.2822,-6.2822,-6.2822,-6.2822,-6.2822,-6.2822,-6.2822,-6.2822,-6.2822,-6.2822,-6.2822,-6.2847,-6.2873,-6.2923,-6.3048,-6.3299,-6.34,-6.3475,-6.35,-6.35,-6.3525,-6.4002,-6.453,-6.5007,-6.5233,-6.5509,-6.576,-6.5986,-6.6086,-6.6112,-6.6112,-6.6036,-6.5886,-6.5634,-6.5258,-6.468,-6.4354,-6.4279,-6.4228,-6.4429,-6.4605,-6.468,-6.4806,-6.4931,-6.5057,-6.4329,-6.355,-6.34,-6.335,-6.3425,-6.355,-6.3626,-6.3751,-6.3701,-6.355,-6.34,-6.3048,-6.2923,-6.2873,-6.2873,-6.2822,-6.2822,-6.2822,-6.2822,-6.2822,-6.2822,-6.2822,-6.2822,-6.2822,-6.2822,-6.2822,-6.2822,-6.2822,-6.2822,-6.2822,-6.2822,-6.2822,-6.2797,-6.2747,-6.2471,-6.2496,-6.2245,-6.1793,-4.9414,-4.9816,-5.0896,-5.1498,-5.1825,-5.2327,-5.2703,-5.2904,-5.2861,-5.2861,-5.2861,-5.2861,-5.2861,-5.2861,-5.2929,-5.3532,-5.4461,-5.4838,-5.6143,-5.7424,-5.8227,-5.878,-5.9433,-6.0035,-6.0337,-6.0914,-6.1692,-6.2245,-6.2747,-6.2822,-6.2822,-6.2822,-6.2822,-6.2822,-6.2822,-6.2822,-6.2822,-6.2822,-6.2822,-6.2822,-6.2822,-6.2822,-6.3023,-6.3073,-6.3224,-6.3274,-6.3601,-6.3902,-6.3952,-6.3927,-6.3802,-6.3877,-6.3977,-6.4279,-6.4731,-6.5183,-6.5509,-6.5785,-6.6011,-6.6112,-6.6112,-6.6112,-6.6112,-6.6061,-6.5634,-6.5409,-6.5358,-6.4881,-6.4881,-6.4806,-6.4555,-6.463,-6.4881,-6.5057,-6.5283,-6.5484,-6.5333,-6.4856,-6.4279,-6.3977,-6.3952,-6.4002,-6.4078,-6.4078,-6.4178,-6.4153,-6.4053,-6.3827,-6.345,-6.3099,-6.3048,-6.2948,-6.2923,-6.2847,-6.2822,-6.2822,-6.2822,-6.2822,-6.2822,-6.2822,-6.2822,-6.2822,-6.2822,-6.2822,-6.2822,-6.2822,-6.2822,-6.2822,-6.2822,-6.2822,-6.2822,-6.2772,-6.2822,-6.2822,-6.2421,-4.8862,-4.9012,-5.0017,-5.077,-5.1322,-5.1875,-5.2427,-5.2879,-5.2861,-5.2861,-5.2861,-5.2861,-5.2861,-5.2861,-5.308,-5.3783,-5.4486,-5.5214,-5.652,-5.765,-5.8428,-5.893,-5.9458,-6.0035,-6.0462,-6.0964,-6.1667,-6.227,-6.2822,-6.2822,-6.2822,-6.2822,-6.2822,-6.2822,-6.2822,-6.2822,-6.2822,-6.2822,-6.2822,-6.2822,-6.2822,-6.2847,-6.3149,-6.345,-6.3726,-6.3977,-6.4279,-6.453,-6.453,-6.4555,-6.4379,-6.4454,-6.4555,-6.4806,-6.5057,-6.5484,-6.581,-6.5986,-6.6112,-6.6112,-6.6112,-6.6112,-6.6112,-6.5936,-6.5534,-6.5434,-6.5383,-6.5358,-6.5358,-6.5183,-6.4931,-6.4982,-6.5258,-6.5434,-6.571,-6.5835,-6.5534,-6.5258,-6.4906,-6.4505,-6.4505,-6.453,-6.458,-6.458,-6.463,-6.4605,-6.4454,-6.4203,-6.3927,-6.3626,-6.3425,-6.3224,-6.3073,-6.2998,-6.2847,-6.2822,-6.2822,-6.2822,-6.2822,-6.2822,-6.2822,-6.2822,-6.2822,-6.2822,-6.2822,-6.2822,-6.2822,-6.2822,-6.2822,-6.2822,-6.2822,-6.2822,-6.2822,-6.2822,-6.2822,-4.9038,-4.949,-5.0167,-5.0745,-5.1297,-5.185,-5.2427,-5.281,-5.2861,-5.2861,-5.2861,-5.2861,-5.2861,-5.2955,-5.3406,-5.3984,-5.4612,-5.5516,-5.6671,-5.7826,-5.8554,-5.9056,-5.9533,-6.0085,-6.0839,-6.1391,-6.1843,-6.227,-6.2747,-6.2822,-6.2822,-6.2822,-6.2822,-6.2822,-6.2822,-6.2822,-6.2822,-6.2822,-6.2847,-6.2847,-6.2898,-6.2973,-6.3199,-6.345,-6.3701,-6.4028,-6.4404,-6.4906,-6.5057,-6.5208,-6.5308,-6.5233,-6.5208,-6.5308,-6.5559,-6.5634,-6.5961,-6.6061,-6.6112,-6.6112,-6.6112,-6.6112,-6.6112,-6.6086,-6.586,-6.5886,-6.5835,-6.5785,-6.5685,-6.5409,-6.5283,-6.5609,-6.586,-6.586,-6.6036,-6.5785,-6.5509,-6.5358,-6.5132,-6.4982,-6.4957,-6.5032,-6.5132,-6.5233,-6.5383,-6.5333,-6.5132,-6.4856,-6.4404,-6.4103,-6.3827,-6.3601,-6.335,-6.3023,-6.2847,-6.2822,-6.2822,-6.2822,-6.2822,-6.2822,-6.2822,-6.2822,-6.2822,-6.2822,-6.2822,-6.2822,-6.2822,-6.2822,-6.2822,-6.2822,-6.2822,-6.2822,-6.2822,-6.2822,-6.2822]},{"header":{"parameterUnit":"m.s-1","parameterCategory":1,"la1":31.0,"la2":29.5877,"lo1":-88.7671,"lo2":-86.6584,"dy":0.0162,"dx":0.0185,"nx":115,"ny":88,"refTime":"2023-02-27T18:00:00:Z","depth":0,"parameterNumber":3,"parameterNumberName":"V-component_of_WINDS"},"data":[0.0,0.0,0.0,0.0,0.0,0.0,0.0,0.0,0.0,0.0,0.0,0.0,0.0,0.0,0.0,0.0,0.0,0.0,0.0,0.0,0.0,0.0,0.0,0.0,0.0,0.0,0.0,0.0,0.0,0.0,0.0,0.0,0.0,0.0,0.0,0.0,0.0,0.0,0.0,0.0,0.0,0.0,0.0,0.0,0.0,0.0,0.0,0.0,0.0,0.0,0.0,0.0,0.0,0.0,0.0,0.0,0.0,0.0,0.0,0.0,0.0,0.0,0.0,0.0,0.0,0.0,0.0,0.0,0.0,0.0,0.0,0.0,0.0,0.0,0.0,0.0,0.0,0.0,0.0,0.0,0.0,0.0,0.0,0.0,0.0,0.0,0.0,0.0,0.0,0.0,0.0,0.0,0.0,0.0,0.0,0.0,0.0,0.0,0.0,0.0,0.0,0.0,0.0,0.0,0.0,0.0,0.0,0.0,0.0,0.0,0.0,0.0,0.0,0.0,0.0,0.0,0.0,0.0,0.0,0.0,0.0,0.0,0.0,0.0,0.0,0.0,0.0,0.0,0.0,0.0,0.0,0.0,0.0,0.0,0.0,0.0,0.0,0.0,0.0,0.0,0.0,0.0,0.0,0.0,0.0,0.0,0.0,0.0,0.0,0.0,0.0,0.0,0.0,0.0,0.0,0.0,0.0,0.0,0.0,0.0,0.0,0.0,0.0,0.0,0.0,0.0,0.0,0.0,0.0,0.0,0.0,0.0,0.0,0.0,0.0,0.0,0.0,0.0,0.0,0.0,0.0,0.0,0.0,0.0,0.0,0.0,0.0,0.0,0.0,0.0,0.0,0.0,0.0,0.0,0.0,0.0,0.0,0.0,0.0,0.0,0.0,0.0,0.0,0.0,0.0,0.0,0.0,0.0,0.0,0.0,0.0,0.0,0.0,0.0,0.0,0.0,0.0,0.0,0.0,0.0,0.0,0.0,0.0,0.0,0.0,0.0,0.0,0.0,0.0,0.0,0.0,0.0,0.0,0.0,0.0,0.0,0.0,0.0,0.0,0.0,0.0,0.0,0.0,0.0,0.0,0.0,0.0,0.0,0.0,0.0,0.0,0.0,0.0,0.0,0.0,0.0,0.0,0.0,0.0,0.0,0.0,0.0,0.0,0.0,0.0,0.0,0.0,0.0,0.0,0.0,0.0,0.0,0.0,0.0,0.0,0.0,0.0,0.0,0.0,0.0,0.0,0.0,0.0,0.0,0.0,0.0,0.0,0.0,0.0,0.0,0.0,0.0,0.0,0.0,0.0,0.0,0.0,0.0,0.0,0.0,0.0,0.0,0.0,0.0,0.0,0.0,0.0,0.0,0.0,0.0,0.0,0.0,0.0,0.0,0.0,0.0,0.0,0.0,0.0,0.0,0.0,0.0,0.0,0.0,0.0,0.0,0.0,0.0,0.0,0.0,0.0,0.0,0.0,0.0,0.0,0.0,0.0,0.0,0.0,0.0,0.0,0.0,0.0,0.0,0.0,0.0,0.0,0.0,0.0,0.0,0.0,0.0,0.0,0.0,0.0,0.0,0.0,0.0,0.0,0.0,0.0,0.0,0.0,0.0,0.0,0.0,0.0,0.0,0.0,0.0,0.0,0.0,0.0,0.0,0.0,0.0,0.0,0.0,0.0,0.0,0.0,0.0,0.0,0.0,0.0,0.0,0.0,0.0,0.0,0.0,0.0,0.0,0.0,0.0,0.0,0.0,0.0,0.0,0.0,0.0,0.0,0.0,0.0,0.0,0.0,0.0,0.0,0.0,0.0,0.0,0.0,0.0,0.0,0.0,0.0,0.0,0.0,0.0,0.0,0.0,0.0,0.0,0.0,0.0,0.0,0.0,0.0,0.0,0.0,0.0,0.0,0.0,0.0,0.0,0.0,0.0,0.0,0.0,0.0,0.0,0.0,0.0,0.0,0.0,0.0,0.0,0.0,0.0,0.0,0.0,0.0,0.0,0.0,0.0,0.0,0.0,0.0,0.0,0.0,0.0,0.0,0.0,0.0,0.0,0.0,0.0,0.0,0.0,0.0,0.0,0.0,0.0,0.0,0.0,0.0,0.0,0.0,0.0,0.0,0.0,0.0,0.0,0.0,0.0,0.0,0.0,0.0,0.0,0.0,0.0,0.0,0.0,0.0,0.0,0.0,0.0,0.0,0.0,0.0,0.0,0.0,0.0,0.0,0.0,0.0,0.0,0.0,0.0,0.0,0.0,0.0,0.0,0.0,0.0,0.0,0.0,0.0,0.0,0.0,0.0,0.0,0.0,0.0,0.0,0.0,0.0,0.0,0.0,0.0,0.0,0.0,0.0,0.0,0.0,0.0,0.0,0.0,0.0,0.0,0.0,0.0,0.0,0.0,0.0,0.0,0.0,0.0,0.0,0.0,0.0,0.0,0.0,0.0,0.0,0.0,0.0,0.0,0.0,0.0,0.0,0.0,0.0,0.0,0.0,0.0,0.0,0.0,0.0,0.0,0.0,0.0,0.0,0.0,0.0,0.0,0.0,0.0,0.0,0.0,0.0,0.0,0.0,0.0,0.0,0.0,0.0,0.0,0.0,0.0,0.0,0.0,0.0,0.0,0.0,0.0,0.0,0.0,0.0,0.0,0.0,0.0,0.0,0.0,0.0,0.0,0.0,0.0,0.0,0.0,0.0,0.0,0.0,0.0,0.0,0.0,0.0,0.0,0.0,0.0,0.0,0.0,0.0,0.0,0.0,0.0,0.0,0.0,0.0,0.0,0.0,0.0,0.0,0.0,0.0,0.0,0.0,0.0,0.0,0.0,0.0,0.0,0.0,0.0,0.0,0.0,0.0,0.0,0.0,0.0,0.0,0.0,0.0,0.0,0.0,0.0,0.0,0.0,0.0,0.0,0.0,0.0,0.0,0.0,0.0,0.0,0.0,0.0,0.0,0.0,0.0,0.0,0.0,0.0,0.0,0.0,0.0,0.0,0.0,0.0,0.0,0.0,0.0,0.0,0.0,0.0,0.0,0.0,0.0,0.0,0.0,0.0,0.0,0.0,0.0,0.0,0.0,0.0,0.0,0.0,0.0,0.0,0.0,0.0,0.0,0.0,0.0,0.0,0.0,0.0,0.0,0.0,0.0,0.0,0.0,0.0,0.0,0.0,0.0,0.0,0.0,0.0,0.0,0.0,0.0,0.0,0.0,0.0,0.0,0.0,0.0,0.0,0.0,0.0,0.0,0.0,0.0,0.0,0.0,0.0,0.0,0.0,0.0,0.0,0.0,0.0,0.0,0.0,0.0,0.0,0.0,0.0,0.0,0.0,0.0,0.0,0.0,0.0,0.0,0.0,0.0,0.0,0.0,0.0,0.0,0.0,0.0,0.0,0.0,0.0,0.0,0.0,0.0,0.0,0.0,0.0,0.0,0.0,0.0,0.0,0.0,0.0,0.0,0.0,0.0,0.0,0.0,0.0,0.0,0.0,0.0,0.0,0.0,0.0,0.0,0.0,0.0,0.0,0.0,0.0,0.0,0.0,0.0,0.0,0.0,0.0,0.0,0.0,0.0,0.0,0.0,0.0,0.0,0.0,0.0,0.0,0.0,0.0,0.0,0.0,0.0,0.0,0.0,0.0,0.0,0.0,0.0,0.0,0.0,0.0,0.0,0.0,0.0,0.0,0.0,0.0,0.0,0.0,0.0,0.0,0.0,0.0,0.0,0.0,0.0,0.0,0.0,0.0,0.0,0.0,0.0,0.0,0.0,0.0,0.0,0.0,0.0,0.0,0.0,0.0,0.0,0.0,0.0,0.0,0.0,0.0,0.0,0.0,0.0,0.0,0.0,0.0,0.0,0.0,0.0,0.0,0.0,0.0,0.0,0.0,0.0,0.0,0.0,0.0,0.0,0.0,0.0,0.0,0.0,0.0,0.0,0.0,0.0,0.0,0.0,0.0,0.0,0.0,0.0,0.0,0.0,0.0,0.0,0.0,0.0,0.0,0.0,0.0,0.0,0.0,0.0,0.0,0.0,0.0,0.0,0.0,0.0,0.0,0.0,0.0,0.0,0.0,0.0,0.0,0.0,0.0,0.0,0.0,0.0,0.0,0.0,0.0,0.0,0.0,0.0,0.0,0.0,0.0,0.0,0.0,0.0,0.0,0.0,0.0,0.0,0.0,0.0,0.0,0.0,0.0,0.0,0.0,0.0,0.0,0.0,0.0,0.0,0.0,0.0,0.0,0.0,0.0,0.0,0.0,0.0,0.0,0.0,-2.9783,0.0,0.0,0.0,0.0,0.0,0.0,0.0,0.0,0.0,0.0,0.0,0.0,0.0,0.0,0.0,0.0,0.0,0.0,0.0,0.0,0.0,0.0,0.0,0.0,0.0,0.0,0.0,0.0,0.0,0.0,0.0,0.0,0.0,0.0,0.0,0.0,0.0,0.0,0.0,0.0,0.0,0.0,0.0,0.0,0.0,0.0,0.0,0.0,0.0,0.0,0.0,0.0,0.0,0.0,0.0,0.0,0.0,0.0,0.0,0.0,0.0,0.0,0.0,0.0,0.0,0.0,0.0,0.0,0.0,0.0,0.0,0.0,0.0,0.0,0.0,0.0,0.0,0.0,0.0,0.0,0.0,0.0,0.0,0.0,0.0,0.0,0.0,0.0,0.0,0.0,0.0,0.0,0.0,0.0,0.0,0.0,0.0,0.0,0.0,0.0,0.0,0.0,0.0,0.0,0.0,0.0,0.0,0.0,0.0,0.0,-3.1297,-3.1692,-2.9598,-2.9058,-3.0381,0.0,0.0,0.0,0.0,0.0,0.0,0.0,0.0,0.0,0.0,0.0,0.0,0.0,0.0,0.0,0.0,0.0,0.0,0.0,0.0,0.0,0.0,0.0,0.0,0.0,0.0,0.0,0.0,0.0,0.0,0.0,0.0,0.0,0.0,0.0,0.0,0.0,0.0,0.0,0.0,0.0,0.0,0.0,0.0,0.0,0.0,0.0,0.0,0.0,0.0,0.0,0.0,0.0,0.0,0.0,0.0,0.0,0.0,0.0,0.0,0.0,0.0,0.0,0.0,0.0,0.0,0.0,0.0,0.0,0.0,0.0,0.0,0.0,0.0,0.0,0.0,0.0,0.0,0.0,0.0,0.0,0.0,0.0,0.0,0.0,0.0,0.0,0.0,0.0,0.0,0.0,0.0,0.0,0.0,0.0,0.0,0.0,0.0,0.0,0.0,0.0,0.0,0.0,0.0,0.0,0.0,0.0,0.0,0.0,0.0,0.0,0.0,-2.9763,-2.9225,-3.0596,0.0,0.0,0.0,0.0,0.0,0.0,0.0,0.0,0.0,0.0,0.0,0.0,0.0,0.0,0.0,0.0,0.0,0.0,0.0,0.0,0.0,0.0,0.0,0.0,0.0,0.0,0.0,0.0,0.0,0.0,0.0,0.0,0.0,0.0,0.0,0.0,0.0,0.0,0.0,0.0,0.0,0.0,0.0,0.0,0.0,0.0,0.0,0.0,0.0,0.0,0.0,0.0,0.0,0.0,0.0,0.0,0.0,0.0,0.0,0.0,0.0,0.0,0.0,0.0,0.0,0.0,0.0,0.0,0.0,0.0,0.0,0.0,0.0,0.0,0.0,0.0,0.0,0.0,0.0,0.0,0.0,0.0,0.0,0.0,0.0,0.0,0.0,0.0,0.0,0.0,0.0,0.0,0.0,0.0,0.0,0.0,0.0,0.0,0.0,0.0,0.0,0.0,0.0,0.0,0.0,0.0,0.0,0.0,0.0,0.0,-3.378,-3.2404,-3.2051,0.0,-3.0235,0.0,0.0,0.0,0.0,0.0,0.0,0.0,0.0,0.0,0.0,0.0,0.0,0.0,0.0,0.0,0.0,0.0,0.0,0.0,0.0,0.0,0.0,0.0,0.0,0.0,0.0,0.0,0.0,0.0,0.0,0.0,0.0,0.0,0.0,0.0,0.0,0.0,0.0,0.0,0.0,0.0,0.0,0.0,0.0,0.0,0.0,0.0,0.0,0.0,0.0,0.0,0.0,0.0,0.0,0.0,0.0,0.0,0.0,0.0,0.0,0.0,0.0,0.0,0.0,0.0,0.0,0.0,0.0,0.0,0.0,0.0,0.0,0.0,0.0,0.0,0.0,0.0,0.0,0.0,0.0,0.0,0.0,0.0,0.0,0.0,0.0,0.0,0.0,0.0,0.0,0.0,0.0,0.0,0.0,0.0,0.0,0.0,0.0,0.0,0.0,0.0,0.0,0.0,0.0,0.0,0.0,0.0,0.0,0.0,0.0,-3.3803,-3.2666,-3.2666,-3.2057,0.0,0.0,0.0,0.0,0.0,0.0,0.0,0.0,0.0,0.0,0.0,0.0,0.0,0.0,0.0,0.0,0.0,0.0,0.0,0.0,0.0,0.0,0.0,0.0,0.0,0.0,0.0,0.0,0.0,0.0,0.0,0.0,0.0,0.0,0.0,0.0,0.0,0.0,0.0,0.0,0.0,0.0,0.0,0.0,0.0,0.0,0.0,0.0,0.0,0.0,0.0,0.0,0.0,0.0,0.0,0.0,0.0,0.0,0.0,0.0,0.0,0.0,0.0,0.0,0.0,0.0,0.0,0.0,0.0,0.0,0.0,0.0,0.0,0.0,0.0,0.0,0.0,0.0,0.0,0.0,0.0,0.0,0.0,0.0,0.0,0.0,0.0,0.0,0.0,0.0,0.0,0.0,0.0,0.0,0.0,0.0,0.0,0.0,0.0,0.0,0.0,0.0,0.0,0.0,0.0,0.0,0.0,0.0,0.0,0.0,-3.4341,-3.3617,-3.2538,-3.2768,-3.2342,-3.1111,0.0,0.0,0.0,0.0,0.0,0.0,0.0,0.0,0.0,0.0,0.0,0.0,0.0,0.0,0.0,0.0,0.0,0.0,0.0,0.0,0.0,0.0,0.0,0.0,0.0,0.0,0.0,0.0,0.0,0.0,0.0,0.0,0.0,0.0,0.0,0.0,0.0,0.0,0.0,0.0,0.0,0.0,0.0,0.0,0.0,0.0,0.0,0.0,0.0,0.0,0.0,0.0,0.0,0.0,0.0,0.0,0.0,0.0,0.0,0.0,0.0,0.0,0.0,0.0,0.0,0.0,0.0,0.0,0.0,0.0,0.0,0.0,0.0,0.0,0.0,0.0,0.0,0.0,0.0,0.0,0.0,0.0,0.0,0.0,0.0,0.0,0.0,0.0,0.0,0.0,0.0,0.0,0.0,0.0,0.0,0.0,0.0,0.0,0.0,0.0,0.0,0.0,0.0,0.0,0.0,0.0,0.0,0.0,-3.4836,-3.4504,-3.3528,-3.1802,-3.2628,-3.2419,0.0,0.0,0.0,0.0,0.0,0.0,0.0,0.0,0.0,0.0,0.0,0.0,0.0,0.0,0.0,0.0,0.0,0.0,0.0,0.0,0.0,0.0,0.0,0.0,0.0,0.0,0.0,0.0,0.0,0.0,0.0,0.0,0.0,0.0,0.0,0.0,0.0,0.0,0.0,0.0,0.0,0.0,0.0,0.0,0.0,0.0,0.0,0.0,0.0,0.0,0.0,0.0,0.0,0.0,0.0,0.0,0.0,0.0,0.0,0.0,0.0,0.0,0.0,0.0,0.0,0.0,0.0,0.0,0.0,0.0,0.0,0.0,0.0,0.0,0.0,0.0,0.0,0.0,0.0,0.0,0.0,0.0,0.0,0.0,0.0,0.0,0.0,0.0,0.0,0.0,0.0,0.0,0.0,0.0,0.0,0.0,0.0,0.0,0.0,0.0,0.0,0.0,0.0,0.0,0.0,0.0,0.0,0.0,0.0,-3.5325,-3.4745,-3.3839,-3.2727,-3.334,-3.3105,0.0,0.0,0.0,0.0,0.0,0.0,0.0,0.0,0.0,0.0,0.0,0.0,0.0,0.0,0.0,0.0,0.0,0.0,0.0,0.0,0.0,0.0,0.0,0.0,0.0,0.0,0.0,0.0,0.0,0.0,0.0,0.0,0.0,0.0,0.0,0.0,0.0,0.0,0.0,0.0,0.0,0.0,0.0,0.0,0.0,0.0,0.0,0.0,0.0,0.0,0.0,0.0,0.0,0.0,0.0,0.0,0.0,0.0,0.0,0.0,0.0,0.0,0.0,0.0,0.0,0.0,0.0,0.0,0.0,0.0,0.0,0.0,0.0,0.0,0.0,0.0,0.0,0.0,0.0,0.0,0.0,0.0,0.0,0.0,0.0,0.0,0.0,0.0,0.0,0.0,0.0,0.0,0.0,0.0,0.0,0.0,0.0,0.0,0.0,0.0,0.0,0.0,0.0,0.0,0.0,0.0,0.0,0.0,0.0,-3.4928,0.0,-3.3482,-3.2989,-3.3736,-3.3677,0.0,0.0,0.0,0.0,0.0,0.0,0.0,0.0,0.0,0.0,0.0,0.0,0.0,0.0,0.0,0.0,0.0,0.0,0.0,0.0,0.0,0.0,0.0,0.0,0.0,0.0,0.0,0.0,0.0,0.0,0.0,0.0,0.0,0.0,0.0,0.0,0.0,0.0,0.0,0.0,0.0,0.0,0.0,0.0,0.0,0.0,0.0,0.0,0.0,0.0,0.0,0.0,0.0,0.0,0.0,0.0,0.0,0.0,0.0,0.0,0.0,0.0,0.0,0.0,0.0,0.0,0.0,0.0,0.0,0.0,0.0,0.0,0.0,0.0,0.0,0.0,0.0,0.0,0.0,0.0,0.0,0.0,0.0,0.0,0.0,0.0,0.0,0.0,0.0,0.0,0.0,0.0,0.0,0.0,0.0,0.0,0.0,0.0,0.0,0.0,0.0,0.0,0.0,0.0,0.0,0.0,0.0,0.0,-3.489,-3.3648,-3.2903,-3.2653,-3.2488,-3.3796,-3.4009,0.0,0.0,0.0,0.0,0.0,0.0,0.0,0.0,0.0,0.0,0.0,0.0,0.0,0.0,0.0,0.0,0.0,0.0,0.0,0.0,0.0,0.0,0.0,0.0,0.0,0.0,0.0,0.0,0.0,0.0,0.0,0.0,0.0,0.0,0.0,0.0,0.0,0.0,0.0,0.0,0.0,0.0,0.0,0.0,0.0,0.0,0.0,0.0,0.0,0.0,0.0,0.0,0.0,0.0,0.0,0.0,0.0,0.0,0.0,0.0,0.0,0.0,0.0,0.0,0.0,0.0,0.0,0.0,0.0,0.0,0.0,0.0,0.0,0.0,0.0,0.0,0.0,0.0,0.0,0.0,0.0,0.0,0.0,0.0,0.0,0.0,0.0,0.0,0.0,0.0,0.0,0.0,0.0,0.0,0.0,0.0,0.0,0.0,0.0,0.0,0.0,0.0,0.0,0.0,0.0,0.0,0.0,0.0,0.0,-3.6319,-3.4902,-3.4787,-3.5935,-3.5648,-3.5327,0.0,0.0,0.0,0.0,0.0,0.0,0.0,0.0,0.0,0.0,0.0,0.0,0.0,0.0,0.0,0.0,0.0,0.0,0.0,0.0,0.0,0.0,0.0,0.0,0.0,0.0,0.0,0.0,0.0,0.0,0.0,0.0,0.0,0.0,0.0,0.0,0.0,0.0,0.0,0.0,0.0,0.0,0.0,0.0,0.0,0.0,0.0,0.0,0.0,0.0,0.0,0.0,0.0,0.0,0.0,0.0,0.0,0.0,0.0,0.0,0.0,0.0,0.0,0.0,0.0,0.0,0.0,0.0,0.0,0.0,0.0,0.0,0.0,0.0,0.0,0.0,0.0,0.0,0.0,0.0,0.0,0.0,0.0,0.0,0.0,0.0,0.0,0.0,0.0,0.0,0.0,0.0,0.0,0.0,0.0,0.0,0.0,0.0,0.0,0.0,0.0,0.0,0.0,0.0,0.0,0.0,0.0,0.0,0.0,-3.8894,-3.707,-3.6427,-3.7196,-3.6899,-3.6604,-3.6301,0.0,0.0,0.0,0.0,0.0,0.0,0.0,0.0,0.0,0.0,0.0,0.0,0.0,0.0,0.0,0.0,0.0,0.0,0.0,0.0,0.0,0.0,0.0,0.0,0.0,0.0,0.0,0.0,0.0,0.0,0.0,0.0,0.0,0.0,0.0,0.0,0.0,0.0,0.0,0.0,0.0,0.0,0.0,0.0,0.0,0.0,0.0,0.0,0.0,0.0,0.0,0.0,0.0,0.0,0.0,0.0,0.0,0.0,0.0,0.0,0.0,0.0,0.0,0.0,0.0,0.0,0.0,0.0,0.0,0.0,0.0,0.0,0.0,0.0,0.0,0.0,0.0,0.0,0.0,0.0,0.0,0.0,0.0,0.0,0.0,0.0,0.0,0.0,0.0,0.0,0.0,0.0,0.0,0.0,0.0,0.0,0.0,0.0,0.0,0.0,0.0,0.0,0.0,0.0,0.0,0.0,0.0,0.0,-4.1395,-3.9495,-3.8012,-3.6983,-3.7867,-3.794,0.0,0.0,0.0,0.0,0.0,0.0,0.0,0.0,0.0,0.0,0.0,0.0,0.0,0.0,0.0,0.0,0.0,0.0,0.0,0.0,0.0,0.0,0.0,0.0,0.0,0.0,0.0,0.0,0.0,0.0,0.0,0.0,0.0,0.0,0.0,0.0,0.0,0.0,0.0,0.0,0.0,0.0,0.0,0.0,0.0,0.0,0.0,0.0,0.0,0.0,0.0,0.0,0.0,0.0,0.0,0.0,0.0,0.0,0.0,0.0,0.0,0.0,0.0,0.0,0.0,0.0,0.0,0.0,0.0,0.0,0.0,0.0,0.0,0.0,0.0,0.0,0.0,0.0,0.0,0.0,0.0,0.0,0.0,0.0,0.0,0.0,0.0,0.0,0.0,0.0,0.0,0.0,0.0,0.0,0.0,0.0,0.0,0.0,0.0,0.0,0.0,0.0,0.0,0.0,0.0,0.0,0.0,0.0,0.0,-4.1395,-4.4063,-4.4494,-4.2236,-4.162,-4.0722,0.0,0.0,0.0,0.0,0.0,0.0,0.0,0.0,0.0,0.0,0.0,0.0,0.0,0.0,0.0,0.0,0.0,0.0,0.0,0.0,0.0,0.0,0.0,0.0,0.0,0.0,0.0,0.0,0.0,0.0,0.0,0.0,0.0,0.0,0.0,0.0,0.0,0.0,0.0,0.0,0.0,0.0,0.0,0.0,0.0,0.0,0.0,0.0,0.0,0.0,0.0,0.0,0.0,0.0,0.0,0.0,0.0,0.0,0.0,0.0,0.0,0.0,0.0,0.0,0.0,0.0,0.0,0.0,0.0,0.0,0.0,0.0,0.0,0.0,0.0,0.0,0.0,0.0,0.0,0.0,0.0,0.0,0.0,0.0,0.0,0.0,0.0,0.0,0.0,0.0,0.0,0.0,0.0,0.0,0.0,0.0,0.0,0.0,0.0,0.0,0.0,0.0,0.0,0.0,0.0,0.0,0.0,0.0,-4.5004,-4.3805,-4.7944,-4.9549,-4.825,-4.602,-4.3801,0.0,0.0,0.0,0.0,0.0,0.0,0.0,0.0,0.0,0.0,0.0,0.0,0.0,0.0,0.0,0.0,0.0,0.0,0.0,0.0,0.0,0.0,0.0,0.0,0.0,0.0,0.0,0.0,0.0,0.0,0.0,0.0,0.0,0.0,0.0,0.0,0.0,0.0,0.0,0.0,0.0,0.0,0.0,0.0,0.0,0.0,0.0,0.0,0.0,0.0,0.0,0.0,0.0,0.0,0.0,0.0,0.0,0.0,0.0,0.0,0.0,0.0,0.0,0.0,0.0,0.0,0.0,0.0,0.0,0.0,0.0,0.0,0.0,0.0,0.0,0.0,0.0,0.0,0.0,0.0,0.0,0.0,0.0,0.0,0.0,0.0,0.0,0.0,0.0,0.0,0.0,0.0,0.0,0.0,0.0,0.0,0.0,0.0,0.0,0.0,0.0,0.0,0.0,0.0,0.0,0.0,0.0,0.0,-4.7531,-4.7327,-5.1122,-5.3407,-5.3816,-5.039,-4.6957,0.0,0.0,0.0,0.0,0.0,0.0,0.0,0.0,0.0,0.0,0.0,0.0,0.0,0.0,0.0,0.0,0.0,0.0,0.0,0.0,0.0,0.0,0.0,0.0,0.0,0.0,0.0,0.0,0.0,0.0,0.0,0.0,0.0,0.0,0.0,0.0,0.0,0.0,0.0,0.0,0.0,0.0,0.0,0.0,0.0,0.0,0.0,0.0,0.0,0.0,0.0,0.0,0.0,0.0,0.0,0.0,0.0,0.0,0.0,0.0,0.0,0.0,0.0,0.0,0.0,0.0,0.0,0.0,0.0,0.0,0.0,0.0,0.0,0.0,0.0,0.0,0.0,0.0,0.0,0.0,0.0,0.0,0.0,0.0,0.0,0.0,0.0,0.0,0.0,0.0,0.0,0.0,0.0,0.0,0.0,0.0,0.0,0.0,0.0,0.0,0.0,0.0,0.0,0.0,0.0,0.0,0.0,0.0,-4.8457,-4.8247,-5.3091,-5.5731,-5.5635,-5.2294,-4.9282,0.0,0.0,0.0,0.0,0.0,0.0,0.0,0.0,0.0,0.0,0.0,0.0,0.0,0.0,0.0,0.0,0.0,0.0,0.0,0.0,0.0,0.0,0.0,0.0,0.0,0.0,0.0,0.0,0.0,0.0,0.0,0.0,0.0,0.0,0.0,0.0,0.0,0.0,0.0,0.0,0.0,0.0,0.0,0.0,0.0,0.0,0.0,0.0,-5.0622,0.0,0.0,0.0,0.0,0.0,0.0,0.0,0.0,0.0,0.0,0.0,0.0,0.0,0.0,0.0,0.0,0.0,0.0,0.0,0.0,0.0,0.0,0.0,0.0,0.0,0.0,0.0,0.0,0.0,0.0,0.0,0.0,0.0,0.0,0.0,0.0,0.0,0.0,0.0,0.0,0.0,0.0,0.0,0.0,0.0,0.0,0.0,0.0,0.0,0.0,0.0,0.0,0.0,0.0,0.0,0.0,0.0,0.0,0.0,-5.0076,-5.0589,-5.527,-5.7996,-5.8347,-5.5403,-5.2579,0.0,0.0,0.0,0.0,0.0,0.0,0.0,0.0,0.0,0.0,0.0,0.0,0.0,0.0,0.0,0.0,0.0,0.0,0.0,0.0,0.0,0.0,0.0,0.0,0.0,0.0,0.0,0.0,0.0,0.0,0.0,0.0,0.0,0.0,0.0,0.0,0.0,0.0,0.0,0.0,0.0,0.0,0.0,0.0,0.0,0.0,0.0,0.0,0.0,0.0,0.0,0.0,0.0,0.0,0.0,0.0,0.0,0.0,0.0,0.0,0.0,0.0,0.0,0.0,0.0,0.0,0.0,0.0,0.0,0.0,0.0,0.0,0.0,0.0,0.0,0.0,0.0,0.0,0.0,0.0,0.0,0.0,0.0,0.0,0.0,0.0,0.0,0.0,0.0,0.0,0.0,0.0,0.0,0.0,0.0,0.0,0.0,0.0,0.0,0.0,0.0,0.0,0.0,0.0,0.0,0.0,0.0,-4.941,-5.1839,-5.3466,-5.7109,-5.9787,-6.1164,-5.853,-5.5979,-5.358,0.0,0.0,0.0,0.0,0.0,0.0,0.0,0.0,0.0,0.0,0.0,0.0,0.0,0.0,0.0,0.0,0.0,0.0,0.0,0.0,0.0,0.0,0.0,0.0,0.0,0.0,0.0,0.0,0.0,0.0,0.0,0.0,0.0,0.0,0.0,0.0,0.0,0.0,-4.915,-4.8899,0.0,0.0,0.0,0.0,0.0,0.0,0.0,0.0,-5.1137,0.0,0.0,0.0,0.0,0.0,0.0,0.0,0.0,0.0,0.0,0.0,0.0,0.0,0.0,0.0,0.0,0.0,0.0,0.0,0.0,0.0,0.0,0.0,0.0,0.0,0.0,0.0,0.0,0.0,0.0,0.0,0.0,0.0,0.0,0.0,0.0,0.0,0.0,0.0,0.0,0.0,0.0,0.0,0.0,0.0,0.0,0.0,0.0,0.0,0.0,0.0,0.0,0.0,0.0,0.0,0.0,-4.8145,-5.0649,-5.3155,-5.5658,-5.7902,-5.9997,-6.1792,-5.9632,-5.7941,-5.6824,0.0,0.0,0.0,0.0,0.0,0.0,0.0,0.0,0.0,0.0,0.0,0.0,0.0,0.0,0.0,0.0,0.0,0.0,0.0,0.0,0.0,0.0,0.0,0.0,0.0,0.0,0.0,0.0,0.0,0.0,0.0,0.0,0.0,0.0,0.0,0.0,0.0,0.0,0.0,-4.9692,-4.9967,0.0,0.0,0.0,0.0,0.0,0.0,0.0,0.0,-5.1335,0.0,0.0,0.0,0.0,0.0,0.0,0.0,0.0,0.0,0.0,0.0,0.0,0.0,0.0,0.0,0.0,0.0,0.0,0.0,0.0,0.0,0.0,0.0,0.0,0.0,0.0,0.0,0.0,0.0,0.0,0.0,0.0,0.0,0.0,0.0,0.0,0.0,0.0,0.0,0.0,0.0,0.0,0.0,0.0,0.0,0.0,0.0,0.0,0.0,0.0,0.0,0.0,0.0,0.0,0.0,-4.9643,-5.1339,-5.3653,-5.6585,-5.859,-6.0416,-6.1972,-5.9543,-5.8166,0.0,0.0,0.0,0.0,0.0,0.0,0.0,0.0,0.0,0.0,0.0,0.0,0.0,0.0,0.0,0.0,0.0,0.0,0.0,0.0,0.0,0.0,0.0,0.0,0.0,0.0,0.0,0.0,0.0,0.0,0.0,0.0,0.0,0.0,0.0,0.0,0.0,0.0,0.0,0.0,-5.0353,-5.057,-4.9804,0.0,0.0,0.0,0.0,0.0,0.0,-5.2557,-5.2586,0.0,0.0,0.0,0.0,0.0,0.0,0.0,0.0,0.0,0.0,0.0,0.0,0.0,0.0,0.0,0.0,0.0,0.0,0.0,0.0,0.0,0.0,0.0,0.0,0.0,0.0,0.0,0.0,0.0,0.0,0.0,0.0,0.0,0.0,0.0,0.0,0.0,0.0,0.0,0.0,0.0,0.0,0.0,0.0,0.0,0.0,0.0,0.0,0.0,0.0,0.0,0.0,0.0,0.0,0.0,-5.109,-5.2252,-5.4401,-5.7573,-5.9398,-6.0924,-6.2181,-5.9543,-5.8221,0.0,0.0,0.0,0.0,0.0,0.0,0.0,0.0,0.0,0.0,0.0,0.0,0.0,0.0,0.0,0.0,0.0,0.0,0.0,0.0,0.0,0.0,0.0,0.0,0.0,0.0,0.0,0.0,0.0,0.0,0.0,0.0,0.0,0.0,0.0,0.0,0.0,0.0,0.0,0.0,0.0,-5.1294,-5.0139,-5.1539,0.0,0.0,0.0,0.0,-5.3157,-5.4361,0.0,0.0,0.0,0.0,0.0,0.0,0.0,0.0,0.0,0.0,0.0,0.0,0.0,0.0,0.0,0.0,0.0,0.0,0.0,0.0,0.0,0.0,0.0,0.0,0.0,0.0,0.0,0.0,0.0,0.0,0.0,0.0,0.0,0.0,0.0,0.0,0.0,0.0,0.0,0.0,0.0,0.0,0.0,0.0,0.0,0.0,0.0,0.0,0.0,0.0,0.0,0.0,0.0,0.0,0.0,0.0,-5.2475,-5.4092,-5.6436,-5.9578,-6.0565,-6.1613,-6.2899,-6.0731,-5.923,0.0,0.0,0.0,0.0,0.0,0.0,0.0,0.0,0.0,0.0,0.0,0.0,0.0,0.0,0.0,0.0,0.0,0.0,0.0,0.0,0.0,0.0,0.0,0.0,0.0,0.0,0.0,0.0,0.0,0.0,0.0,0.0,0.0,0.0,0.0,0.0,0.0,0.0,0.0,0.0,0.0,-5.2615,-5.3495,-5.3416,-5.3334,0.0,0.0,-5.4514,-5.668,-5.8639,0.0,0.0,0.0,0.0,0.0,0.0,0.0,0.0,0.0,0.0,0.0,0.0,0.0,0.0,0.0,0.0,0.0,0.0,0.0,0.0,0.0,0.0,0.0,0.0,0.0,0.0,0.0,0.0,0.0,0.0,0.0,0.0,0.0,0.0,0.0,0.0,0.0,0.0,0.0,0.0,0.0,0.0,0.0,0.0,0.0,0.0,0.0,0.0,0.0,0.0,0.0,0.0,0.0,0.0,0.0,-5.0359,-5.3278,-5.46,-5.6765,-5.9967,-6.1134,-6.2121,-6.3049,-6.0522,-5.951,0.0,0.0,0.0,0.0,0.0,0.0,0.0,0.0,0.0,0.0,0.0,0.0,0.0,0.0,0.0,0.0,0.0,0.0,0.0,0.0,0.0,0.0,0.0,0.0,0.0,0.0,0.0,0.0,0.0,0.0,0.0,0.0,0.0,0.0,0.0,0.0,0.0,0.0,0.0,0.0,0.0,0.0,-5.2707,-5.4529,0.0,0.0,0.0,-5.71,-5.7907,0.0,0.0,0.0,0.0,0.0,0.0,0.0,0.0,0.0,0.0,0.0,0.0,0.0,0.0,0.0,0.0,0.0,0.0,0.0,0.0,0.0,0.0,0.0,0.0,0.0,0.0,0.0,0.0,0.0,0.0,0.0,0.0,0.0,0.0,0.0,0.0,0.0,0.0,0.0,0.0,0.0,0.0,0.0,0.0,0.0,0.0,0.0,0.0,0.0,0.0,0.0,0.0,0.0,0.0,0.0,0.0,0.0,-5.433,-5.5078,-5.7034,-6.0236,-6.1792,-6.281,-6.3258,-6.1025,0.0,0.0,0.0,0.0,0.0,0.0,0.0,0.0,0.0,0.0,0.0,0.0,0.0,0.0,0.0,0.0,0.0,0.0,0.0,0.0,0.0,0.0,0.0,0.0,0.0,0.0,0.0,-5.0721,0.0,0.0,0.0,0.0,0.0,0.0,0.0,0.0,0.0,0.0,0.0,0.0,0.0,0.0,-5.5508,-5.3025,-5.5927,-5.761,0.0,0.0,-5.9265,-5.9059,-6.003,-6.0261,0.0,0.0,0.0,0.0,0.0,0.0,0.0,0.0,0.0,0.0,0.0,0.0,0.0,0.0,0.0,0.0,0.0,0.0,0.0,0.0,0.0,0.0,0.0,0.0,0.0,0.0,0.0,0.0,0.0,0.0,0.0,0.0,0.0,0.0,0.0,0.0,0.0,0.0,0.0,0.0,0.0,0.0,0.0,0.0,0.0,0.0,0.0,0.0,0.0,0.0,0.0,0.0,0.0,0.0,-5.1498,-5.5867,-5.6077,-5.7723,-6.0954,-6.2899,-6.3887,-6.3917,-6.3199,-6.2724,0.0,0.0,0.0,0.0,0.0,0.0,0.0,0.0,0.0,0.0,0.0,0.0,0.0,0.0,0.0,0.0,0.0,0.0,0.0,0.0,0.0,0.0,0.0,0.0,0.0,0.0,0.0,0.0,0.0,0.0,0.0,0.0,0.0,0.0,0.0,0.0,0.0,0.0,0.0,0.0,0.0,-5.6944,-5.6735,-5.8052,-5.8979,0.0,-5.9488,-6.0236,-6.0839,-6.4036,-6.5203,-6.1437,0.0,0.0,0.0,0.0,0.0,0.0,0.0,0.0,0.0,0.0,0.0,0.0,0.0,0.0,0.0,0.0,0.0,0.0,0.0,0.0,0.0,0.0,0.0,0.0,0.0,0.0,0.0,0.0,0.0,0.0,0.0,0.0,0.0,0.0,0.0,0.0,0.0,0.0,0.0,0.0,0.0,0.0,0.0,0.0,0.0,0.0,0.0,0.0,0.0,0.0,0.0,0.0,0.0,-5.3354,-5.6675,-5.7154,-5.877,-6.1613,-6.3228,-6.4006,-6.4006,-6.3408,-6.3258,0.0,0.0,0.0,0.0,0.0,0.0,0.0,0.0,0.0,0.0,0.0,0.0,0.0,0.0,0.0,0.0,0.0,0.0,0.0,0.0,0.0,0.0,0.0,0.0,0.0,0.0,0.0,0.0,-5.0958,-5.078,-5.1147,0.0,0.0,0.0,0.0,0.0,0.0,0.0,0.0,0.0,0.0,-5.7723,-5.7723,-5.9933,0.0,0.0,-6.2972,-6.4452,-6.4359,-6.5644,-6.5682,-6.2981,-6.3049,0.0,0.0,0.0,0.0,0.0,0.0,0.0,0.0,0.0,0.0,0.0,0.0,0.0,0.0,0.0,0.0,0.0,0.0,0.0,0.0,0.0,0.0,0.0,0.0,0.0,0.0,0.0,0.0,0.0,0.0,0.0,0.0,0.0,0.0,0.0,0.0,0.0,0.0,0.0,0.0,0.0,0.0,0.0,0.0,0.0,0.0,0.0,0.0,0.0,0.0,0.0,0.0,-5.488,-5.7663,-5.8171,-5.9697,-6.2331,-6.4036,-6.4874,-6.4904,-6.4665,-6.4575,0.0,0.0,0.0,0.0,0.0,0.0,0.0,0.0,0.0,0.0,0.0,0.0,0.0,0.0,0.0,0.0,0.0,0.0,0.0,0.0,0.0,0.0,0.0,0.0,0.0,0.0,0.0,0.0,-5.1539,-5.148,-5.168,0.0,0.0,0.0,0.0,0.0,0.0,0.0,0.0,0.0,0.0,-5.871,-5.871,-6.1287,-6.3047,-6.2534,-6.4505,-6.588,-6.549,-6.5629,-6.5187,-6.3541,0.0,0.0,0.0,0.0,0.0,0.0,0.0,0.0,0.0,0.0,0.0,0.0,0.0,0.0,0.0,0.0,0.0,0.0,0.0,0.0,0.0,0.0,0.0,0.0,0.0,0.0,0.0,0.0,0.0,0.0,-4.7724,0.0,0.0,0.0,0.0,0.0,0.0,0.0,0.0,0.0,0.0,0.0,0.0,0.0,0.0,0.0,0.0,0.0,0.0,0.0,0.0,0.0,0.0,-5.5807,-5.9009,-5.9099,-6.0386,-6.3019,-6.5592,-6.6879,-6.6909,-6.7508,-6.7238,-6.6011,0.0,0.0,0.0,0.0,0.0,0.0,0.0,0.0,0.0,0.0,0.0,0.0,0.0,0.0,0.0,0.0,0.0,0.0,0.0,0.0,0.0,0.0,0.0,0.0,0.0,0.0,-5.3824,-5.3225,-5.2714,0.0,0.0,0.0,0.0,0.0,0.0,0.0,0.0,0.0,0.0,-5.883,-6.0057,-6.0057,-6.1995,-6.3335,-6.3126,-6.3355,-6.3482,-6.3361,-6.3902,-6.4028,0.0,0.0,0.0,0.0,0.0,0.0,0.0,0.0,0.0,0.0,0.0,0.0,0.0,0.0,0.0,0.0,0.0,0.0,0.0,0.0,0.0,0.0,0.0,0.0,0.0,0.0,0.0,-5.0417,-5.0652,0.0,0.0,0.0,0.0,0.0,0.0,0.0,0.0,0.0,0.0,0.0,-5.559,-5.5382,0.0,0.0,0.0,0.0,0.0,0.0,0.0,0.0,0.0,0.0,0.0,0.0,-5.7334,-5.9638,-6.0206,-6.1732,-6.4306,-6.6071,-6.7178,-6.7627,-6.7867,-6.7777,-6.7328,0.0,0.0,0.0,0.0,0.0,0.0,0.0,0.0,0.0,0.0,0.0,0.0,0.0,0.0,0.0,0.0,0.0,0.0,0.0,0.0,0.0,0.0,0.0,0.0,0.0,-5.4768,0.0,0.0,0.0,0.0,0.0,0.0,0.0,0.0,0.0,0.0,0.0,-5.877,-5.9638,-6.0356,-6.0924,-6.1373,-6.3213,-6.4542,0.0,0.0,0.0,0.0,0.0,0.0,0.0,0.0,0.0,0.0,0.0,0.0,0.0,0.0,-6.263,-6.0206,-5.9937,-6.0031,-5.967,0.0,0.0,0.0,0.0,0.0,0.0,0.0,0.0,0.0,0.0,0.0,0.0,0.0,0.0,-5.28,0.0,-5.3183,0.0,0.0,0.0,0.0,0.0,0.0,0.0,0.0,-5.5612,-5.7024,-5.85,-5.8589,-5.9384,0.0,-6.0146,-5.8841,0.0,0.0,0.0,0.0,0.0,0.0,0.0,0.0,-5.877,-6.0715,-6.1463,-6.3079,-6.5622,-6.6999,-6.7986,-6.8645,-6.8465,-6.8345,-6.8315,-6.7268,-6.67,0.0,0.0,0.0,0.0,0.0,0.0,0.0,0.0,0.0,0.0,0.0,0.0,0.0,0.0,0.0,0.0,0.0,0.0,0.0,0.0,0.0,0.0,0.0,-5.6212,0.0,0.0,0.0,0.0,0.0,0.0,0.0,0.0,0.0,-5.9518,-5.9668,-6.0146,-6.0984,-6.1313,-6.1613,-6.2032,0.0,0.0,0.0,0.0,0.0,0.0,0.0,-6.5444,-6.4623,-6.482,-6.5072,-6.5086,-6.541,-6.5592,-6.5413,0.0,0.0,-6.1313,-6.0984,-6.1048,-6.0823,-6.0823,-6.0972,-6.1389,-6.1657,-6.1863,0.0,0.0,0.0,0.0,0.0,0.0,0.0,0.0,-5.29,-5.3963,0.0,-5.4968,0.0,0.0,0.0,0.0,0.0,-5.6519,0.0,0.0,-5.9668,-6.0894,-6.0446,-6.1672,-6.2241,-6.2301,-6.2839,-6.2391,-6.1044,-5.853,0.0,0.0,0.0,0.0,0.0,0.0,-6.0116,-6.2061,-6.278,-6.4395,-6.6939,-6.8315,-6.9333,-6.9961,-6.9363,-6.9034,-6.9034,-6.8375,-6.8078,-6.8016,-6.7388,0.0,0.0,0.0,0.0,0.0,0.0,0.0,0.0,0.0,0.0,0.0,0.0,0.0,0.0,0.0,0.0,0.0,0.0,0.0,0.0,-5.7985,0.0,0.0,0.0,0.0,0.0,0.0,0.0,0.0,0.0,0.0,-6.0505,-6.0805,-6.1194,-6.1224,0.0,0.0,0.0,0.0,-6.4015,-6.3252,-6.3849,-6.4162,-6.3339,-6.3823,-6.4524,-6.4936,0.0,0.0,-6.692,-6.5938,-6.5413,-6.5951,-6.5592,-6.4485,-6.26,-6.269,-6.269,-6.1613,-6.2331,-6.3079,-6.3199,-6.3707,-6.4096,-5.551,0.0,0.0,0.0,0.0,-5.6123,-5.7595,-5.9084,-5.9274,-5.9279,-5.9143,-5.8709,0.0,0.0,0.0,0.0,0.0,0.0,-5.9314,-6.0475,-6.2331,-6.3827,-6.5024,-6.5413,-6.5592,-6.5562,-6.4814,-6.3797,-6.251,-6.1283,-6.0176,-5.9249,0.0,0.0,0.0,0.0,-6.0805,-6.272,-6.3887,-6.5503,-6.7657,-6.9004,-6.9991,-7.062,-7.0021,-6.9901,-7.032,-6.9303,-6.8914,-6.9363,-6.8764,0.0,0.0,0.0,0.0,0.0,0.0,0.0,0.0,0.0,0.0,0.0,0.0,0.0,0.0,0.0,0.0,0.0,0.0,0.0,-6.0701,-6.0492,-6.0313,0.0,0.0,0.0,0.0,0.0,0.0,0.0,0.0,0.0,-6.3588,-6.2959,-6.269,0.0,0.0,-6.2959,-6.3378,-6.3459,-6.3337,-6.3137,-6.367,0.0,-6.3795,-6.436,-6.4836,-6.5011,-6.5607,-6.6272,-6.6883,-6.7094,-6.7178,-6.7388,-6.6879,-6.6071,-6.5114,-6.4216,-6.3797,-6.3887,-6.4246,-6.4635,-6.5084,-6.5682,-6.5981,-5.8449,-5.7725,-5.7546,-5.7379,-5.7439,-5.9547,-6.1148,-6.2281,-6.2692,-6.2665,-6.237,-6.1885,-6.0403,-5.8292,-5.8787,0.0,0.0,0.0,-6.1822,-6.3318,-6.4605,-6.6101,-6.7747,-6.8046,-6.8166,-6.8106,-6.7119,-6.5922,-6.4605,-6.3977,-6.2959,-6.1642,0.0,0.0,-6.0505,-6.1014,-6.1972,-6.3438,-6.4994,-6.664,-6.8345,-6.9423,-7.0141,-7.053,-6.9931,-6.9871,-7.05,-6.9812,-6.9692,-7.032,-6.9722,-6.8854,0.0,0.0,0.0,0.0,0.0,0.0,0.0,0.0,0.0,0.0,0.0,-6.1313,-6.0027,0.0,0.0,0.0,-6.0655,-6.1882,-6.278,-6.248,0.0,0.0,0.0,0.0,0.0,0.0,0.0,-6.4096,-6.4485,-6.4934,-6.5353,-6.4515,-6.3887,-6.3977,-6.3468,-6.3199,-6.3588,0.0,-6.3137,-6.3137,-6.3617,-6.4006,-6.4006,-6.4575,-6.5054,-6.5383,-6.6191,-6.6759,-6.6939,-6.7537,-6.7956,-6.7867,-6.7238,-6.664,-6.6759,-6.5712,-6.4814,-6.5024,-6.5443,-6.6011,-6.664,-6.7508,-6.8046,-5.9949,-6.1491,-6.1349,-6.0499,-5.9517,-6.2187,-6.3408,-6.3498,-6.4066,-6.4635,-6.5114,-6.4455,-6.368,-6.2792,-6.2732,0.0,-6.1583,-6.3408,-6.4635,-6.5383,-6.664,-6.7897,-6.9153,-6.9752,-7.0021,-6.9961,-6.9303,-6.8315,-6.6969,-6.6311,-6.5323,-6.3977,-6.2301,-6.1403,-6.1403,-6.254,-6.3498,-6.4246,-6.6101,-6.7747,-6.9123,-6.9692,-6.9961,-6.9901,-6.9273,-6.9213,-6.9782,-6.9871,-7.0201,-7.0769,-7.038,-7.0081,-6.9961,0.0,0.0,0.0,0.0,0.0,0.0,0.0,0.0,0.0,0.0,0.0,0.0,0.0,0.0,0.0,-6.1972,0.0,-6.4276,-6.4336,0.0,0.0,0.0,-6.646,-6.6999,-6.7119,-6.7119,-6.7059,0.0,0.0,-6.6161,-6.5592,-6.4904,-6.4186,-6.3558,-6.3139,-6.3196,-6.3139,-6.3137,-6.3137,-6.3588,-6.4006,-6.4036,-6.4575,-6.5173,-6.5742,-6.6939,-6.7328,-6.6909,-6.7208,-6.7657,-6.7597,-6.67,-6.6221,-6.7537,-6.661,-6.5772,-6.5293,-6.6191,-6.7268,-6.7986,-6.8944,-6.9632,-6.1734,-6.3145,-6.5372,-6.5233,-6.365,-6.5353,-6.634,-6.6819,-6.6969,-6.6849,-6.649,-6.5832,-6.5114,-6.4397,-6.3889,-6.4097,-6.4904,-6.5832,-6.6909,-6.8076,-6.8884,-6.9692,-7.044,-7.062,-7.044,-6.9961,-6.9303,-6.8315,-6.6999,-6.6311,-6.5323,-6.4066,-6.4066,-6.3827,-6.3348,-6.3617,-6.4605,-6.6281,-6.7238,-6.8615,-7.038,-7.0141,-6.9752,-6.9243,-6.8555,-6.8286,-6.8435,-6.8974,-6.9542,-7.0171,-7.0979,-7.0979,-7.0021,-6.9692,0.0,0.0,0.0,0.0,0.0,0.0,0.0,0.0,0.0,-6.3438,-6.266,0.0,-6.3857,0.0,-6.4126,-6.5832,-6.7627,-6.7328,0.0,0.0,-6.7867,-6.8136,-6.7777,-6.8196,-6.8315,-6.7807,-6.8046,-6.8076,-6.7567,-6.6939,-6.6101,-6.4964,-6.4186,-6.3767,-6.3797,-6.3378,-6.3137,-6.3139,-6.3617,-6.4006,-6.4066,-6.4575,-6.5024,-6.5174,-6.5562,-6.5652,-6.5533,-6.5622,-6.5712,-6.5682,-6.5054,-6.5054,-6.6251,-6.5802,-6.5682,-6.634,-6.7178,-6.8106,-6.9243,-6.9393,-6.9243,-6.3212,-6.404,-6.6559,-6.7238,-6.6879,-6.7897,-6.8525,-6.8884,-6.9153,-6.8914,-6.8286,-6.7627,-6.6819,-6.5951,-6.6131,-6.646,-6.6939,-6.7897,-6.8734,-6.9453,-7.0081,-7.059,-7.0889,-7.0919,-7.0709,-7.038,-6.9752,-6.9064,-6.8315,-6.7657,-6.6789,-6.5772,-6.6161,-6.6011,-6.5353,-6.5323,-6.6011,-6.7418,-6.8375,-6.9393,-7.041,-6.9871,-6.9213,-6.8555,-6.7597,-6.7388,-6.7956,-6.8076,-6.8675,-6.9931,-7.0649,-7.0709,-7.0021,-6.9692,-6.8764,0.0,0.0,0.0,0.0,0.0,0.0,0.0,0.0,0.0,0.0,0.0,-6.5951,-6.6131,-6.6879,-6.7897,-6.9303,-6.9093,-6.8974,-6.9243,-6.9632,-6.9812,-6.9722,-6.9812,-6.9692,-6.9333,-6.9363,-6.9303,-6.8914,-6.8016,-6.7059,-6.6041,-6.5054,-6.4246,-6.3677,-6.3288,-6.3137,-6.3166,-6.3588,-6.4126,-6.4395,-6.4784,-6.5024,-6.5024,-6.5024,-6.4934,-6.4635,-6.4575,-6.4575,-6.4515,-6.4036,-6.4006,-6.5263,-6.5293,-6.5383,-6.6251,-6.6849,-6.7567,-6.8794,-6.9034,-6.9004,-6.4525,-6.5083,-6.6559,-6.8016,-6.9303,-6.9871,-7.0111,-7.0141,-7.0649,-7.056,-6.9931,-6.9303,-6.8345,-6.7328,-6.8465,-6.8704,-6.8378,-6.9512,-7.0111,-7.0141,-7.0649,-7.0919,-7.0919,-7.0919,-7.0919,-7.0889,-7.029,-6.9991,-6.9961,-6.9243,-6.8525,-6.7867,-6.7837,-6.7567,-6.7029,-6.7059,-6.7448,-6.8106,-6.9423,-7.0111,-7.0081,-6.9303,-6.8585,-6.7956,-6.67,-6.655,-6.7657,-6.7328,-6.7897,-6.9602,-6.9871,-7.0021,-7.0081,-6.9542,-6.9004,0.0,-6.7837,0.0,0.0,0.0,0.0,0.0,0.0,0.0,0.0,-6.7358,-6.8166,-7.0021,-6.9692,-6.9632,-7.029,-7.044,-7.0679,-7.1218,-7.1278,-7.1517,-7.2026,-7.1547,-7.1158,-7.1158,-7.059,-7.0201,-7.0051,-6.9004,-6.7986,-6.7029,-6.5892,-6.4725,-6.3498,-6.3169,-6.3137,-6.3137,-6.3528,-6.3977,-6.4455,-6.4665,-6.4695,-6.4725,-6.4695,-6.4575,-6.3977,-6.3887,-6.3857,-6.3827,-6.3468,-6.3528,-6.4695,-6.4904,-6.5114,-6.5742,-6.5922,-6.637,-6.7537,-6.8046,-6.8495,-6.5781,-6.8114,-6.8489,-6.9363,-7.053,-7.0679,-7.0739,-7.0739,-7.0859,-7.056,-6.9931,-6.9303,-6.8854,-6.8645,-6.8884,-6.9213,-6.9632,-7.038,-7.0739,-7.0739,-7.0859,-7.0919,-7.0919,-7.0919,-7.0919,-7.0859,-7.029,-6.9991,-6.9961,-6.8764,-6.7837,-6.7208,-6.7178,-6.7119,-6.7029,0.0,0.0,0.0,-7.0081,-7.0739,-7.0679,-6.9034,-6.8106,-6.7956,-6.67,0.0,-6.64,-6.7268,-6.7956,-6.8345,-6.9393,0.0,0.0,0.0,0.0,0.0,0.0,0.0,0.0,0.0,0.0,0.0,-7.0141,-6.9692,-6.9453,-6.9423,-6.9991,-7.1368,-7.1427,-7.1607,-7.2295,-7.2864,-7.3223,-7.3313,-7.3313,-7.3373,-7.3492,-7.2924,-7.2535,-7.2535,-7.1936,-7.1308,-7.0739,-7.0051,-6.8944,-6.7358,-6.6311,-6.5293,-6.4036,-6.3408,-6.3137,-6.3166,-6.3228,-6.3318,-6.3438,-6.3498,-6.3588,-6.3438,-6.3438,-6.3408,-6.3318,-6.3288,-6.3258,-6.3288,-6.3196,-6.3288,-6.4066,-6.4186,-6.4425,-6.5084,-6.5203,-6.5622,-6.6879,-6.64,-6.5922,-6.6583,0.0,-6.8375,-6.9064,0.0,-7.032,-7.062,-7.0919,-7.0919,-7.038,-6.9512,-6.9482,-6.9123,-6.8525,-6.8854,-6.9363,-6.9991,-7.032,-7.062,-7.0889,-7.0919,-7.0919,-7.0919,-7.0919,-7.0919,-7.0889,-7.059,-7.044,-7.041,-6.9752,-6.8944,-6.8016,-6.7986,-6.7657,-6.7029,-6.7657,-6.8315,-6.9004,-6.9632,-6.9662,-6.8974,-6.8315,-6.7508,-6.655,0.0,0.0,0.0,0.0,0.0,0.0,0.0,0.0,0.0,0.0,0.0,-7.1368,-7.1098,-7.1188,-7.1816,-7.1906,-7.2176,-7.2804,-7.2864,-7.2445,-7.1517,-7.2026,-7.2654,-7.3283,-7.3373,-7.3492,-7.3851,-7.418,-7.439,-7.436,-7.4091,-7.3881,-7.3821,-7.3313,-7.2774,-7.2445,-7.2116,-7.1637,-7.0979,-7.035,-6.9632,-6.8585,-6.7298,-6.6131,-6.5084,-6.3887,-6.3137,-6.3137,-6.3137,-6.3137,-6.3137,-6.3137,-6.3137,-6.3137,-6.3137,-6.3137,-6.3137,-6.3137,-6.3137,-6.3137,-6.3137,-6.3256,-6.3468,-6.3767,-6.4006,-6.4066,-6.4306,-6.4545,-6.5054,-6.5024,-6.5114,-6.7059,-6.7208,-6.7747,-6.8435,-6.9213,-6.9752,-7.032,-7.0889,0.0,0.0,0.0,-6.9453,-6.8944,-6.7867,-6.8525,-6.9123,-6.9632,-6.9752,-7.0141,-7.0739,-7.062,-7.062,-7.0739,-7.0739,-7.0739,-7.0739,-7.0859,-7.0919,-7.0889,-7.0799,-7.0141,-6.9093,-6.8884,-6.8136,-6.6939,-6.7358,-6.7837,-6.8315,-6.8764,-6.8465,-6.7388,-6.7537,-6.6909,-6.5413,-6.5024,-6.4845,-6.5024,-6.4485,-6.4994,-6.6729,-6.7448,-6.8465,-6.9901,-7.0679,-7.1188,-7.1427,-7.1547,-7.2086,-7.3193,-7.3253,-7.3732,-7.4809,-7.4869,-7.442,-7.3313,-7.424,-7.4869,-7.4869,-7.4869,-7.4869,-7.4869,-7.4869,-7.4869,-7.4869,-7.439,-7.4061,-7.4061,-7.3612,-7.3133,-7.2535,-7.2295,-7.1876,-7.1368,-7.0649,-7.0081,-6.9782,-6.8435,-6.6909,-6.5862,-6.4186,-6.3137,-6.3137,-6.3137,-6.3137,-6.3137,-6.3137,-6.3137,-6.3137,-6.3137,-6.3137,-6.3137,-6.3137,-6.3137,-6.3137,-6.3137,-6.3137,-6.3109,-6.3468,-6.3647,-6.3169,-6.3468,-6.3677,-6.3318,-6.3917,-6.4605,-6.7328,-6.7837,-6.7926,-6.8704,-6.9842,-6.9961,-7.032,-7.0859,-7.035,-6.9692,-6.8974,-6.8465,-6.7837,-6.7148,-6.7837,-6.8166,-6.8286,-6.8854,-6.9482,0.0,-6.9542,-6.9572,-7.0081,-7.0111,-7.0111,-7.0141,-7.0649,-7.0919,-7.0859,-7.038,-6.9722,-6.9034,-6.8405,-6.7448,-6.6281,-6.6251,-6.6041,-6.5652,-6.7837,-6.8914,-6.8704,-6.7119,-6.646,-6.664,-6.5024,-6.4425,-6.4994,-6.4934,-6.5263,-6.6101,-6.6789,-6.7986,-6.9871,-7.1098,-7.2265,-7.3402,-7.4001,-7.442,-7.4569,-7.4599,-7.4689,-7.4839,-7.4869,-7.4779,-7.4629,-7.4749,-7.4869,-7.4869,-7.4869,-7.4869,-7.4869,-7.4869,-7.4869,-7.4869,-7.4779,-7.4749,-7.4689,-7.4599,-7.445,-7.427,-7.3432,-7.2744,-7.2475,-7.1517,-7.059,-7.0051,-6.9093,-6.7837,-6.5742,-6.3977,-6.3169,-6.3137,-6.3137,-6.3137,-6.3137,-6.3137,-6.3137,-6.3137,-6.3137,-6.3137,-6.3137,-6.3137,-6.3137,-6.3137,-6.3137,-6.3137,-6.3079,-6.3139,-6.3199,-6.3079,-6.3228,-6.3199,-6.3079,-6.3318,-6.3438,-6.7178,-6.7478,-6.7869,-6.8555,-6.9512,-7.0171,-7.044,-7.035,-6.9722,-6.9482,-6.9453,-6.8824,-6.8375,-6.8076,-6.8016,-6.8166,-6.8555,-6.8854,-6.9363,-6.9931,-6.9692,-6.9871,-7.041,-7.0141,-7.0171,-7.047,-7.0769,-7.0919,-7.0889,-7.062,-6.9961,-6.9004,-6.7956,-6.6969,-6.6071,-6.6011,-6.5862,-6.5592,-6.64,-6.667,-6.6311,-6.5742,-6.5263,-6.4874,-6.4246,-6.4126,-6.4455,-6.4455,-6.4934,-6.5981,-6.664,-6.7897,-6.9871,-7.1188,-7.2475,-7.3821,-7.451,-7.4869,-7.4869,-7.4869,-7.4869,-7.4869,-7.4869,-7.4869,-7.4869,-7.4869,-7.4869,-7.4869,-7.4869,-7.4869,-7.4869,-7.4869,-7.4869,-7.4869,-7.4869,-7.4869,-7.4869,-7.4869,-7.4749,-7.439,-7.3821,-7.3313,-7.2954,-7.2056,-7.1368,-7.0919,-6.9662,-6.7837,-6.6281,-6.4665,-6.3468,-6.3169,-6.3137,-6.3137,-6.3137,-6.3137,-6.3137,-6.3137,-6.3137,-6.3137,-6.3137,-6.3137,-6.3137,-6.3137,-6.3137,-6.3137,-6.3137,-6.3137,-6.3137,-6.3137,-6.3137,-6.3137,-6.3137,-6.3137,-6.3137,-6.6999,-6.7059,-6.7537,-6.8136,-6.8854,-6.9991,-7.0201,-6.9722,-6.9064,-6.9153,-6.9602,-6.8914,-6.8615,-6.8704,-6.8196,-6.8256,-6.8734,-6.8944,-6.9363,-6.9931,-6.9812,-7.0111,-7.062,-7.0201,-7.0231,-7.0679,-7.0829,-7.0829,-7.0709,-7.0829,-7.026,-6.8974,-6.7657,-6.667,-6.6011,-6.6011,-6.5951,-6.5772,-6.5114,-6.4695,-6.4485,-6.4844,-6.4485,-6.3438,-6.3767,-6.4006,-6.4006,-6.4126,-6.4784,-6.5951,-6.6789,-6.8046,-6.9871,-7.1188,-7.2475,-7.3762,-7.436,-7.4719,-7.4869,-7.4869,-7.4869,-7.4869,-7.4869,-7.4869,-7.4869,-7.4869,-7.4869,-7.4869,-7.4869,-7.4869,-7.4869,-7.4869,-7.4869,-7.4869,-7.4869,-7.4869,-7.4869,-7.4869,-7.4689,-7.418,-7.4001,-7.3642,-7.2984,-7.2295,-7.1787,-7.1308,-6.9632,-6.8076,-6.7358,-6.5712,-6.4336,-6.3827,-6.3408,-6.3137,-6.3137,-6.3137,-6.3137,-6.3137,-6.3137,-6.3137,-6.3137,-6.3137,-6.3137,-6.3137,-6.3137,-6.3137,-6.3137,-6.3137,-6.3137,-6.3137,-6.3137,-6.3137,-6.3137,-6.3137,-6.3137,-6.6999,-6.6999,-6.7089,-6.7448,-6.8166,-6.8914,-6.9183,-6.9004,-6.8375,-6.8465,-6.8944,-6.7747,-6.7567,-6.8016,-6.8016,-6.8108,-6.8196,-6.8734,-6.9363,-6.9871,-6.9363,-6.9423,-7.0081,-7.0021,-7.0021,-7.0171,-7.062,-7.059,-7.0171,-7.056,-7.0231,-6.8974,-6.7657,-6.667,-6.6101,-6.6011,-6.5742,-6.5054,-6.4425,-6.4665,-6.5712,-6.5293,-6.4665,-6.3947,-6.3977,-6.4006,-6.4036,-6.4605,-6.5263,-6.6041,-6.7208,-6.8495,-6.9871,-7.1158,-7.2475,-7.3732,-7.3941,-7.424,-7.4809,-7.4869,-7.4869,-7.4869,-7.4869,-7.4869,-7.4869,-7.4869,-7.4869,-7.4869,-7.4869,-7.4869,-7.4869,-7.4869,-7.4869,-7.4869,-7.4869,-7.4869,-7.4869,-7.4869,-7.4839,-7.4809,-7.427,-7.3672,-7.3133,-7.2415,-7.1697,-7.1158,-6.9871,-6.8884,-6.8585,-6.7089,-6.5832,-6.5413,-6.4336,-6.3288,-6.3199,-6.3079,-6.3169,-6.3196,-6.3079,-6.3079,-6.3137,-6.3137,-6.3137,-6.3137,-6.3137,-6.3137,-6.3137,-6.3137,-6.3137,-6.3137,-6.3137,-6.3137,-6.3137,-6.3137,-6.3137,-6.6999,-6.6999,-6.6999,-6.7358,-6.8016,-6.8704,-6.8764,-6.8375,-6.8106,-6.8136,-6.8256,-6.7388,-6.7567,-6.8525,-6.8166,-6.8196,-6.8585,-6.8884,-6.9363,-6.9931,-6.9692,-6.9901,-7.044,-7.0141,-7.0171,-7.047,-7.044,-7.0231,-6.9931,-6.9453,-6.8884,-6.8345,-6.7448,-6.6849,-6.658,-6.6221,-6.6071,-6.6161,-6.5533,-6.5473,-6.5772,-6.4605,-6.3917,-6.4006,-6.4006,-6.4216,-6.4605,-6.5263,-6.6101,-6.7089,-6.7687,-6.8585,-6.9871,-7.0799,-7.1727,-7.2654,-7.3462,-7.418,-7.4839,-7.4869,-7.4869,-7.4869,-7.4869,-7.4869,-7.4839,-7.454,-7.445,-7.4809,-7.4869,-7.4869,-7.4869,-7.4869,-7.4869,-7.4869,-7.4869,-7.4869,-7.4869,-7.4869,-7.4869,-7.4839,-7.4659,-7.439,-7.4001,-7.3133,-7.2116,-7.1128,-7.0111,-6.9632,-6.9482,-6.8196,-6.7328,-6.6969,-6.5802,-6.4755,-6.4306,-6.3857,-6.3677,-6.3558,-6.3318,-6.3079,-6.3137,-6.3137,-6.3137,-6.3137,-6.3137,-6.3137,-6.3137,-6.3137,-6.3137,-6.3137,-6.3137,-6.3137,-6.3137,-6.3137,-6.3137,-6.6999,-6.6999,-6.6999,-6.7268,-6.7747,-6.8226,-6.8166,-6.7747,-6.7687,-6.7717,-6.7657,-6.7178,-6.7627,-6.8555,-6.8196,-6.8345,-6.8974,-6.9183,-6.9632,-7.0171,-7.0231,-7.047,-7.0799,-7.029,-7.0201,-7.05,-6.9991,-6.9722,-6.9572,-6.8375,-6.7777,-6.7837,-6.7298,-6.6999,-6.6939,-6.649,-6.652,-6.6879,-6.634,-6.6101,-6.6011,-6.4545,-6.3827,-6.4246,-6.4455,-6.4784,-6.5293,-6.5922,-6.6789,-6.7897,-6.8136,-6.8794,-6.9901,-7.056,-7.1218,-7.1906,-7.3163,-7.4091,-7.4569,-7.4779,-7.4869,-7.4869,-7.4719,-7.4599,-7.454,-7.418,-7.4121,-7.451,-7.4779,-7.4869,-7.4869,-7.4869,-7.4869,-7.4869,-7.4869,-7.4869,-7.4869,-7.4869,-7.4869,-7.4869,-7.4839,-7.4689,-7.427,-7.3283,-7.2176,-7.1338,-7.0829,-7.05,-7.032,-6.9423,-6.8525,-6.8495,-6.7537,-6.646,-6.5503,-6.4485,-6.4126,-6.3857,-6.3498,-6.3079,-6.3137,-6.3137,-6.3137,-6.3137,-6.3137,-6.3137,-6.3137,-6.3137,-6.3137,-6.3137,-6.3137,-6.3137,-6.3137,-6.3137,-6.3137,-6.6999,-6.6999,-6.6999,-6.7029,-6.7059,-6.7119,-6.7119,-6.7089,-6.7059,-6.7059,-6.7089,-6.7029,-6.7388,-6.7986,-6.7926,-6.8345,-6.9034,-6.9572,-7.0111,-7.0709,-7.0739,-7.0829,-7.0859,-7.029,-6.9991,-6.9991,-6.9512,-6.9123,-6.8974,-6.7717,-6.7358,-6.7867,-6.7298,-6.6999,-6.6969,-6.6909,-6.6939,-6.6909,-6.64,-6.6311,-6.67,-6.5622,-6.4964,-6.5084,-6.5562,-6.5862,-6.6011,-6.658,-6.7268,-6.7956,-6.8525,-6.9213,-6.9931,-7.056,-7.1188,-7.1906,-7.3103,-7.3881,-7.4001,-7.448,-7.4809,-7.4749,-7.436,-7.3971,-7.4031,-7.3941,-7.3971,-7.3971,-7.454,-7.4809,-7.4869,-7.4869,-7.4869,-7.4869,-7.4869,-7.4869,-7.4869,-7.4869,-7.4869,-7.4869,-7.4809,-7.439,-7.3283,-7.2385,-7.2116,-7.1876,-7.1787,-7.1757,-7.1547,-7.0649,-6.9991,-6.9752,-6.9153,-6.8196,-6.637,-6.5144,-6.4336,-6.3977,-6.3677,-6.3137,-6.3137,-6.3137,-6.3137,-6.3137,-6.3137,-6.3137,-6.3137,-6.3137,-6.3137,-6.3137,-6.3137,-6.3137,-6.3137,-6.3137,-6.3137,-6.6999,-6.6999,-6.6999,-6.6999,-6.6999,-6.6999,-6.6999,-6.6999,-6.6999,-6.6999,-6.6999,-6.6999,-6.7119,-6.7358,-6.7358,-6.8196,-6.9482,-6.9004,-6.9273,-7.0171,-6.9901,-6.9692,-6.9692,-6.9842,-6.9752,-6.9423,-6.9542,-6.9183,-6.8315,-6.7418,-6.7089,-6.7268,-6.7119,-6.6999,-6.6999,-6.6999,-6.6999,-6.6969,-6.6729,-6.6759,-6.6939,-6.652,-6.6281,-6.6281,-6.6101,-6.6011,-6.6011,-6.664,-6.7298,-6.7956,-6.8196,-6.8854,-6.9901,-7.056,-7.1188,-7.1816,-7.2325,-7.2804,-7.3283,-7.3881,-7.4061,-7.3702,-7.424,-7.43,-7.4001,-7.3911,-7.4061,-7.439,-7.427,-7.442,-7.4779,-7.4869,-7.4869,-7.4869,-7.4869,-7.4869,-7.4869,-7.4869,-7.4869,-7.4809,-7.454,-7.4001,-7.3582,-7.2954,-7.2565,-7.2535,-7.2535,-7.2535,-7.2415,-7.1727,-7.1128,-7.1009,-7.032,-6.9393,-6.8824,-6.664,-6.5173,-6.4515,-6.3977,-6.3378,-6.3139,-6.3169,-6.3169,-6.3199,-6.3169,-6.3137,-6.3137,-6.3137,-6.3137,-6.3137,-6.3137,-6.3137,-6.3137,-6.3137,-6.3137,-6.6999,-6.6999,-6.6999,-6.6999,-6.6999,-6.7208,-6.7298,-6.7298,-6.7328,-6.7298,-6.7268,-6.7089,-6.7089,-6.7268,-6.7298,-6.8256,-6.9752,-6.8824,-6.9034,-7.0171,-6.9812,-6.9632,-6.9662,-6.9871,-6.9752,-6.9393,-6.9512,-6.9064,-6.8046,-6.7537,-6.7298,-6.7328,-6.7119,-6.6999,-6.6999,-6.6999,-6.6999,-6.6999,-6.6999,-6.6999,-6.6999,-6.6999,-6.6999,-6.6939,-6.655,-6.6311,-6.634,-6.6759,-6.7298,-6.7867,-6.7986,-6.8495,-6.9572,-7.026,-7.0799,-7.1248,-7.1667,-7.2086,-7.2595,-7.3402,-7.3702,-7.3313,-7.4001,-7.433,-7.3941,-7.3881,-7.4121,-7.436,-7.445,-7.442,-7.4749,-7.4869,-7.4869,-7.4869,-7.4869,-7.4869,-7.4869,-7.4869,-7.4869,-7.4779,-7.433,-7.3971,-7.3851,-7.3492,-7.3283,-7.3223,-7.3223,-7.3223,-7.3133,-7.2445,-7.1876,-7.1787,-7.0949,-7.0231,-6.9572,-6.8016,-6.661,-6.5862,-6.4665,-6.3947,-6.3558,-6.3498,-6.3378,-6.3348,-6.3228,-6.3196,-6.3137,-6.3137,-6.3137,-6.3137,-6.3137,-6.3137,-6.3137,-6.3137,-6.3137,-6.6999,-6.6999,-6.6999,-6.6999,-6.7059,-6.7567,-6.7959,-6.7807,-6.7837,-6.7747,-6.7627,-6.7238,-6.7268,-6.7777,-6.7717,-6.8615,-6.9482,-6.9123,-6.9542,-7.062,-7.0649,-7.059,-7.053,-7.0141,-7.0021,-6.9931,-6.9333,-6.8734,-6.8166,-6.7986,-6.7867,-6.7869,-6.7268,-6.6999,-6.6999,-6.6999,-6.6999,-6.6999,-6.6999,-6.6999,-6.6999,-6.6999,-6.6999,-6.6999,-6.6939,-6.6909,-6.6939,-6.6969,-6.7268,-6.7807,-6.7897,-6.8286,-6.9034,-6.9692,-7.0051,-7.035,-7.1188,-7.1787,-7.1996,-7.3073,-7.3762,-7.3642,-7.3881,-7.4061,-7.3941,-7.3971,-7.4031,-7.418,-7.451,-7.4869,-7.4839,-7.4869,-7.4869,-7.4869,-7.4869,-7.4869,-7.4869,-7.4869,-7.4869,-7.4779,-7.43,-7.3941,-7.3911,-7.3821,-7.3791,-7.3851,-7.3881,-7.3911,-7.3791,-7.2864,-7.2056,-7.1846,-7.1278,-7.059,-7.0021,-6.9363,-6.8315,-6.7238,-6.5862,-6.4844,-6.4605,-6.4485,-6.4126,-6.3977,-6.3528,-6.3408,-6.3137,-6.3137,-6.3137,-6.3137,-6.3137,-6.3137,-6.3137,-6.3137,-6.3137,-6.6999,-6.6999,-6.6999,-6.6999,-6.6999,-6.7208,-6.7298,-6.7298,-6.7298,-6.7298,-6.7268,-6.7089,-6.7119,-6.7238,-6.7298,-6.7777,-6.8585,-6.8854,-6.9453,-7.0081,-6.9842,-6.9662,-6.9692,-6.9871,-7.0201,-7.035,-6.9512,-6.9153,-6.9123,-6.8435,-6.7986,-6.7837,-6.7328,-6.6999,-6.6999,-6.6999,-6.6999,-6.6999,-6.6999,-6.6999,-6.6999,-6.6999,-6.6999,-6.6999,-6.6999,-6.6999,-6.6999,-6.6999,-6.7089,-6.7298,-6.7298,-6.7807,-6.8854,-6.9632,-7.0141,-7.059,-7.0949,-7.1218,-7.1368,-7.2415,-7.3043,-7.2924,-7.3762,-7.424,-7.4031,-7.43,-7.454,-7.4569,-7.4749,-7.4869,-7.4869,-7.4869,-7.4869,-7.4869,-7.4869,-7.4869,-7.4869,-7.4869,-7.4869,-7.4809,-7.43,-7.4121,-7.433,-7.427,-7.4121,-7.445,-7.451,-7.454,-7.433,-7.3343,-7.2654,-7.2535,-7.1697,-7.0859,-7.044,-7.0051,-6.9393,-6.8435,-6.7178,-6.6191,-6.5892,-6.5323,-6.4964,-6.4425,-6.3977,-6.3588,-6.3258,-6.3137,-6.3137,-6.3137,-6.3137,-6.3137,-6.3137,-6.3137,-6.3137,-6.6999,-6.6999,-6.6999,-6.6999,-6.7029,-6.7238,-6.7358,-6.7358,-6.7358,-6.7358,-6.7328,-6.7089,-6.6999,-6.7029,-6.7238,-6.7567,-6.8046,-6.8914,-6.9453,-6.9662,-6.9812,-6.9602,-6.9482,-7.0021,-7.035,-7.044,-6.9991,-6.9782,-6.9901,-6.9153,-6.8615,-6.8315,-6.7926,-6.7478,-6.7148,-6.7478,-6.7567,-6.7119,-6.7238,-6.7238,-6.7029,-6.6999,-6.6999,-6.6999,-6.6999,-6.6999,-6.6999,-6.6999,-6.6999,-6.6999,-6.6999,-6.7537,-6.8555,-6.9243,-6.9901,-7.044,-7.0799,-7.1009,-7.1308,-7.2325,-7.2894,-7.2924,-7.4031,-7.4689,-7.442,-7.4689,-7.4869,-7.4869,-7.4869,-7.4869,-7.4869,-7.4869,-7.4869,-7.4869,-7.4869,-7.4869,-7.4869,-7.4869,-7.4869,-7.4779,-7.451,-7.454,-7.4629,-7.4599,-7.439,-7.4809,-7.4869,-7.4719,-7.442,-7.3552,-7.3103,-7.2505,-7.1577,-7.1038,-7.0889,-7.062,-7.035,-6.9512,-6.8555,-6.7837,-6.7358,-6.646,-6.5832,-6.4904,-6.4306,-6.3917,-6.3588,-6.3199,-6.3137,-6.3137,-6.3196,-6.3137,-6.3137,-6.3137,-6.3137,-6.6999,-6.6999,-6.6999,-6.6999,-6.7059,-6.7567,-6.7777,-6.7837,-6.7837,-6.7777,-6.7687,-6.7208,-6.6999,-6.7119,-6.7478,-6.7747,-6.8106,-6.9034,-6.9243,-6.9273,-6.9871,-7.032,-6.9991,-7.05,-7.059,-7.029,-7.059,-7.053,-7.0141,-6.9871,-6.9662,-6.9093,-6.8854,-6.8375,-6.7687,-6.8405,-6.8315,-6.7508,-6.7777,-6.7747,-6.7268,-6.7208,-6.7208,-6.7208,-6.7148,-6.7119,-6.7148,-6.7059,-6.6999,-6.6999,-6.7059,-6.7478,-6.8076,-6.8704,-6.9482,-7.0171,-7.062,-7.1188,-7.1816,-7.2475,-7.3133,-7.3702,-7.436,-7.4869,-7.4809,-7.4809,-7.4869,-7.4869,-7.4869,-7.4869,-7.4869,-7.4869,-7.4869,-7.4869,-7.4869,-7.4869,-7.4809,-7.4809,-7.4869,-7.4869,-7.4869,-7.4869,-7.4869,-7.4809,-7.4839,-7.4839,-7.4869,-7.4659,-7.424,-7.3612,-7.2804,-7.2176,-7.1637,-7.1188,-7.1009,-7.0859,-7.059,-7.029,-6.9542,-6.9123,-6.8465,-6.7537,-6.643,-6.5503,-6.4844,-6.4395,-6.4006,-6.3737,-6.3438,-6.3348,-6.3318,-6.3226,-6.3137,-6.3137,-6.3109,-6.6999,-6.6999,-6.6999,-6.6999,-6.6999,-6.7208,-6.7268,-6.7238,-6.7268,-6.7298,-6.7208,-6.7089,-6.6999,-6.7029,-6.7148,-6.7238,-6.7508,-6.8166,-6.8136,-6.7897,-6.9423,-7.0111,-7.0141,-7.062,-7.0829,-7.0679,-7.0799,-7.0829,-7.0649,-7.0231,-6.9901,-6.9722,-6.9273,-6.8884,-6.8615,-6.8854,-6.8824,-6.8525,-6.8585,-6.8645,-6.8465,-6.8405,-6.8465,-6.8435,-6.7956,-6.7747,-6.7657,-6.7238,-6.6999,-6.7029,-6.7478,-6.8016,-6.8675,-6.9333,-6.9931,-7.053,-7.0799,-7.1218,-7.1876,-7.2535,-7.3193,-7.3851,-7.451,-7.4869,-7.4869,-7.4869,-7.4869,-7.4869,-7.4869,-7.4869,-7.4869,-7.4869,-7.4869,-7.4869,-7.4869,-7.4719,-7.442,-7.4599,-7.4869,-7.4869,-7.4869,-7.4869,-7.4869,-7.4869,-7.4869,-7.4869,-7.4869,-7.4779,-7.433,-7.3941,-7.3223,-7.2684,-7.2146,-7.1517,-7.1098,-7.0979,-7.0859,-7.0829,-7.044,-7.0141,-6.9393,-6.8465,-6.7238,-6.6071,-6.5742,-6.5323,-6.4964,-6.4635,-6.4246,-6.3797,-6.3767,-6.3737,-6.3288,-6.3196,-6.3199,-6.6999,-6.6999,-6.6999,-6.6999,-6.6999,-6.6999,-6.6999,-6.6999,-6.6999,-6.6999,-6.6999,-6.6999,-6.6999,-6.6999,-6.6999,-6.6999,-6.7089,-6.7687,-6.7839,-6.7777,-6.9213,-7.0081,-7.041,-7.0769,-7.0919,-7.0919,-7.0919,-7.0889,-7.0829,-7.053,-7.026,-7.0021,-6.9871,-6.9542,-6.9004,-6.9572,-6.9482,-6.9153,-6.9213,-6.9303,-6.9034,-6.9004,-6.8974,-6.8944,-6.8585,-6.8315,-6.7956,-6.7597,-6.7298,-6.7208,-6.7627,-6.8286,-6.8974,-6.9632,-7.026,-7.0829,-7.0919,-7.1278,-7.2176,-7.2744,-7.3343,-7.4121,-7.4719,-7.4839,-7.4869,-7.4869,-7.4869,-7.4869,-7.4869,-7.4869,-7.4869,-7.4869,-7.4749,-7.451,-7.4689,-7.4719,-7.433,-7.4659,-7.4839,-7.4869,-7.4869,-7.4869,-7.4869,-7.4869,-7.4869,-7.4869,-7.4869,-7.4689,-7.439,-7.4091,-7.3702,-7.3103,-7.2475,-7.1816,-7.1338,-7.1128,-7.0919,-7.0889,-7.0859,-7.0649,-7.0081,-6.9213,-6.8286,-6.7238,-6.6759,-6.6311,-6.5922,-6.5413,-6.4814,-6.4485,-6.4455,-6.4306,-6.3947,-6.3617,-6.3617,-6.6909,-6.6909,-6.6909,-6.6939,-6.6969,-6.6999,-6.6999,-6.6999,-6.6999,-6.6999,-6.6999,-6.6999,-6.6999,-6.6999,-6.6999,-6.7029,-6.7148,-6.7747,-6.8106,-6.8525,-6.9482,-7.026,-7.0769,-7.0859,-7.0919,-7.0919,-7.0919,-7.0919,-7.0889,-7.0859,-7.062,-7.035,-7.062,-7.026,-6.9752,-7.032,-7.0201,-6.9632,-6.9842,-6.9842,-6.9512,-6.9423,-6.9453,-6.9423,-6.9213,-6.8764,-6.8345,-6.8046,-6.7867,-6.7238,-6.7837,-6.8555,-6.9183,-6.9752,-7.029,-7.0829,-7.1068,-7.1637,-7.2654,-7.2984,-7.3552,-7.454,-7.4809,-7.4869,-7.4869,-7.4869,-7.4869,-7.4869,-7.4869,-7.4869,-7.4869,-7.4869,-7.4659,-7.439,-7.4629,-7.4839,-7.4869,-7.4869,-7.4869,-7.4869,-7.4869,-7.4869,-7.4869,-7.4869,-7.4869,-7.4869,-7.4869,-7.4749,-7.4569,-7.436,-7.3911,-7.3313,-7.2684,-7.2056,-7.1667,-7.1308,-7.1068,-7.0889,-7.0889,-7.0739,-7.044,-6.9752,-6.9153,-6.8495,-6.7837,-6.7298,-6.6879,-6.6281,-6.5652,-6.5293,-6.5323,-6.5144,-6.4904,-6.4575,-6.4425,-6.6221,-6.6221,-6.6221,-6.652,-6.6939,-6.6999,-6.6999,-6.6999,-6.6969,-6.6939,-6.6999,-6.6999,-6.6969,-6.6999,-6.7029,-6.7268,-6.7687,-6.8016,-6.8528,-6.9572,-6.9752,-7.032,-7.0799,-7.0919,-7.0919,-7.0919,-7.0919,-7.0919,-7.0919,-7.0889,-7.0859,-7.0769,-7.0769,-7.0769,-7.059,-7.062,-7.0829,-7.053,-7.062,-7.056,-7.044,-7.038,-7.038,-7.035,-6.9961,-6.9423,-6.8914,-6.8764,-6.8704,-6.8764,-6.9153,-6.9572,-6.9782,-7.029,-7.0739,-7.0979,-7.1398,-7.1996,-7.2804,-7.3373,-7.4001,-7.4719,-7.4869,-7.4869,-7.4869,-7.4869,-7.4869,-7.4869,-7.4869,-7.4869,-7.4869,-7.4869,-7.4779,-7.4689,-7.4749,-7.4869,-7.4869,-7.4869,-7.4869,-7.4869,-7.4869,-7.4869,-7.4869,-7.4869,-7.4869,-7.4869,-7.4839,-7.4779,-7.4689,-7.4599,-7.421,-7.3702,-7.3163,-7.2565,-7.1966,-7.1517,-7.1068,-7.0919,-7.0919,-7.0889,-7.056,-7.026,-6.9692,-6.9243,-6.8794,-6.8286,-6.7807,-6.7597,-6.7059,-6.664,-6.6131,-6.5832,-6.5592,-6.5353,-6.5144,-6.6011,-6.6011,-6.6011,-6.64,-6.6939,-6.6999,-6.6999,-6.6939,-6.664,-6.67,-6.6879,-6.67,-6.67,-6.6969,-6.7029,-6.7358,-6.8046,-6.8675,-6.9273,-6.9931,-7.0231,-7.059,-7.0799,-7.0919,-7.0919,-7.0889,-7.0919,-7.0919,-7.0919,-7.0889,-7.0889,-7.0919,-7.0919,-7.0889,-7.0919,-7.0919,-7.0889,-7.0859,-7.0919,-7.0919,-7.0919,-7.0919,-7.0919,-7.0799,-7.032,-6.9782,-6.9482,-6.9453,-6.9453,-6.9602,-7.0051,-7.026,-7.0141,-7.056,-7.1009,-7.1368,-7.1308,-7.2176,-7.3043,-7.3432,-7.3821,-7.4809,-7.4869,-7.4869,-7.4869,-7.4869,-7.4869,-7.4869,-7.4869,-7.4869,-7.4869,-7.4869,-7.4869,-7.4869,-7.4869,-7.4869,-7.4869,-7.4869,-7.4869,-7.4869,-7.4869,-7.4869,-7.4869,-7.4869,-7.4869,-7.4869,-7.4869,-7.4839,-7.4839,-7.4749,-7.4689,-7.427,-7.3762,-7.3133,-7.2415,-7.1757,-7.1038,-7.0919,-7.0919,-7.0919,-7.0769,-7.05,-7.0231,-6.9812,-6.9423,-6.9123,-6.8704,-6.8555,-6.8256,-6.7627,-6.7029,-6.658,-6.6311,-6.6281,-6.5981,-6.5712,-6.5712,-6.5712,-6.6101,-6.664,-6.664,-6.67,-6.6729,-6.6251,-6.634,-6.6729,-6.6311,-6.655,-6.6759,-6.6969,-6.7388,-6.8315,-6.9273,-6.9931,-7.0021,-7.0171,-7.032,-7.041,-7.041,-7.053,-7.0739,-7.0709,-7.0709,-7.0859,-7.0829,-7.0739,-7.0859,-7.0919,-7.0919,-7.0919,-7.0919,-7.0919,-7.0919,-7.0919,-7.0919,-7.0919,-7.0919,-7.0919,-7.0799,-7.05,-7.0231,-7.0111,-7.0111,-7.0111,-7.0141,-7.062,-7.056,-7.044,-7.059,-7.1098,-7.1667,-7.1487,-7.2176,-7.3223,-7.3522,-7.3881,-7.4839,-7.4869,-7.4869,-7.4869,-7.4869,-7.4869,-7.4869,-7.4869,-7.4869,-7.4869,-7.4869,-7.4869,-7.4869,-7.4869,-7.4869,-7.4869,-7.4869,-7.4869,-7.4869,-7.4869,-7.4869,-7.4869,-7.4869,-7.4869,-7.4869,-7.4869,-7.4869,-7.4869,-7.4869,-7.4809,-7.4599,-7.4061,-7.3432,-7.2714,-7.2415,-7.1637,-7.1427,-7.1338,-7.1218,-7.1188,-7.1068,-7.0859,-7.038,-7.0021,-6.9752,-6.9542,-6.9333,-6.8914,-6.8375,-6.8046,-6.7687,-6.7448,-6.7238,-6.6849,-6.4336,-6.4336,-6.4336,-6.4725,-6.5323,-6.5353,-6.5712,-6.6131,-6.5981,-6.6041,-6.6191,-6.658,-6.643,-6.643,-6.6789,-6.7627,-6.8645,-6.9542,-6.9961,-6.9842,-6.9722,-6.9542,-6.9512,-6.9692,-6.9752,-7.0021,-7.0201,-7.044,-7.0679,-7.044,-7.056,-7.0829,-7.0919,-7.0919,-7.0919,-7.0919,-7.0919,-7.0919,-7.0919,-7.0919,-7.0919,-7.0919,-7.0919,-7.0889,-7.0709,-7.0679,-7.0709,-7.0709,-7.0739,-7.0769,-7.0859,-7.0829,-7.0769,-7.0859,-7.1068,-7.1398,-7.1936,-7.2565,-7.3313,-7.4031,-7.448,-7.4839,-7.4869,-7.4869,-7.4869,-7.4869,-7.4869,-7.4869,-7.4869,-7.4869,-7.4869,-7.4869,-7.4869,-7.4869,-7.4869,-7.4869,-7.4869,-7.4869,-7.4869,-7.4869,-7.4869,-7.4869,-7.4869,-7.4869,-7.4869,-7.4869,-7.4869,-7.4869,-7.4869,-7.4869,-7.4869,-7.4599,-7.427,-7.3612,-7.2954,-7.2834,-7.2505,-7.2385,-7.2235,-7.1936,-7.1876,-7.1787,-7.1487,-7.0829,-7.059,-7.05,-7.029,-7.0021,-6.9722,-6.9243,-6.9004,-6.8794,-6.8375,-6.7986,-6.7837,-6.4006,-6.4006,-6.4006,-6.4395,-6.4964,-6.5024,-6.5203,-6.5413,-6.5144,-6.5173,-6.5503,-6.5832,-6.6041,-6.6161,-6.67,-6.7567,-6.8495,-6.9572,-6.9752,-6.9512,-6.9482,-6.9273,-6.9064,-6.9273,-6.9393,-6.9602,-6.9812,-7.029,-7.0829,-7.0649,-7.062,-7.0799,-7.0919,-7.0919,-7.0919,-7.0919,-7.0919,-7.0919,-7.0919,-7.0919,-7.0919,-7.0919,-7.0919,-7.0919,-7.0919,-7.0919,-7.0919,-7.0919,-7.0889,-7.0889,-7.0889,-7.0919,-7.1009,-7.1278,-7.1577,-7.1936,-7.2295,-7.2954,-7.3612,-7.436,-7.445,-7.4839,-7.4869,-7.4869,-7.4869,-7.4869,-7.4869,-7.4869,-7.4869,-7.4869,-7.4869,-7.4869,-7.4869,-7.4869,-7.4869,-7.4869,-7.4869,-7.4869,-7.4869,-7.4869,-7.4869,-7.4869,-7.4869,-7.4869,-7.4869,-7.4869,-7.4869,-7.4869,-7.4869,-7.4869,-7.4869,-7.4689,-7.442,-7.4031,-7.3462,-7.3313,-7.3253,-7.3193,-7.3073,-7.2774,-7.2355,-7.2146,-7.1607,-7.0949,-7.0919,-7.0919,-7.0799,-7.047,-7.029,-7.0081,-6.9752,-6.9393,-6.9034,-6.8734,-6.8585,-6.3827,-6.3827,-6.3797,-6.4126,-6.4575,-6.4635,-6.4695,-6.4695,-6.4276,-6.4336,-6.4784,-6.5024,-6.5383,-6.5951,-6.6759,-6.7597,-6.8226,-6.9273,-6.9213,-6.9153,-6.9034,-6.8944,-6.8884,-6.9004,-6.9034,-6.8884,-6.9423,-7.0111,-7.053,-7.056,-7.0739,-7.0859,-7.0919,-7.0919,-7.0919,-7.0919,-7.0919,-7.0919,-7.0919,-7.0919,-7.0919,-7.0919,-7.0919,-7.0919,-7.0919,-7.0919,-7.0919,-7.0919,-7.0919,-7.0949,-7.1038,-7.1128,-7.1218,-7.1727,-7.2385,-7.2894,-7.2565,-7.3313,-7.4001,-7.445,-7.448,-7.4839,-7.4869,-7.4869,-7.4869,-7.4869,-7.4869,-7.4869,-7.4869,-7.4869,-7.4869,-7.4869,-7.4869,-7.4869,-7.4869,-7.4869,-7.4869,-7.4869,-7.4869,-7.4869,-7.4869,-7.4869,-7.4869,-7.4869,-7.4869,-7.4869,-7.4869,-7.4869,-7.4869,-7.4869,-7.4839,-7.4749,-7.4569,-7.433,-7.4031,-7.3821,-7.3791,-7.3791,-7.3702,-7.3522,-7.2924,-7.2355,-7.1787,-7.1308,-7.0919,-7.0919,-7.0919,-7.0889,-7.0649,-7.041,-7.026,-7.0051,-6.9842,-6.9512,-6.9213,-6.3169,-6.3199,-6.3199,-6.3228,-6.3348,-6.3378,-6.3647,-6.4066,-6.4006,-6.4036,-6.4186,-6.4725,-6.5024,-6.5562,-6.6999,-6.8106,-6.8495,-6.8495,-6.8555,-6.8615,-6.8106,-6.7687,-6.7358,-6.7268,-6.8016,-6.8315,-6.8944,-6.9453,-7.0081,-7.0201,-7.044,-7.0799,-7.0919,-7.0919,-7.0919,-7.1009,-7.0919,-7.0919,-7.0919,-7.0919,-7.0919,-7.0949,-7.0979,-7.0919,-7.0919,-7.0919,-7.0919,-7.0979,-7.1009,-7.1038,-7.1517,-7.1757,-7.1876,-7.2415,-7.3073,-7.3552,-7.3732,-7.3762,-7.4151,-7.445,-7.4659,-7.4839,-7.4869,-7.4869,-7.4869,-7.4869,-7.4869,-7.4869,-7.4869,-7.4869,-7.4869,-7.4869,-7.4869,-7.4869,-7.4869,-7.4869,-7.4869,-7.4869,-7.4869,-7.4869,-7.4869,-7.4869,-7.4869,-7.4869,-7.4869,-7.4869,-7.4869,-7.4869,-7.4869,-7.4869,-7.4869,-7.4779,-7.4749,-7.4569,-7.445,-7.43,-7.424,-7.43,-7.424,-7.4091,-7.3462,-7.2804,-7.2325,-7.1846,-7.1368,-7.0919,-7.0919,-7.0889,-7.0859,-7.0739,-7.056,-7.0649,-7.0769,-7.035,-6.9842,-6.3137,-6.3137,-6.3137,-6.3137,-6.3137,-6.3137,-6.3228,-6.3438,-6.3468,-6.3468,-6.3588,-6.4156,-6.4665,-6.5233,-6.64,-6.6969,-6.7358,-6.7747,-6.7867,-6.8016,-6.7597,-6.7328,-6.7208,-6.7358,-6.7777,-6.8106,-6.8944,-6.9692,-7.0021,-7.035,-7.0709,-7.0859,-7.0919,-7.0919,-7.1098,-7.1308,-7.1188,-7.1128,-7.1218,-7.1248,-7.1098,-7.1218,-7.1278,-7.0949,-7.0949,-7.0949,-7.1038,-7.1308,-7.1427,-7.1577,-7.2086,-7.2445,-7.2624,-7.3073,-7.3642,-7.3821,-7.427,-7.442,-7.454,-7.4749,-7.4839,-7.4869,-7.4869,-7.4869,-7.4869,-7.4869,-7.4869,-7.4869,-7.4869,-7.4869,-7.4869,-7.4869,-7.4869,-7.4869,-7.4869,-7.4869,-7.4869,-7.4869,-7.4869,-7.4869,-7.4869,-7.4869,-7.4869,-7.4869,-7.4869,-7.4869,-7.4869,-7.4869,-7.4869,-7.4869,-7.4869,-7.4869,-7.4839,-7.4809,-7.4779,-7.4689,-7.4599,-7.4629,-7.4629,-7.439,-7.3851,-7.3313,-7.2774,-7.2086,-7.1368,-7.1068,-7.0949,-7.0889,-7.0889,-7.0889,-7.0889,-7.0919,-7.0919,-7.0859,-7.041,-6.3137,-6.3137,-6.3137,-6.3137,-6.3137,-6.3137,-6.3137,-6.3079,-6.3166,-6.3109,-6.3258,-6.3737,-6.4336,-6.4904,-6.5622,-6.6281,-6.643,-6.7298,-6.7478,-6.7478,-6.7448,-6.7358,-6.7298,-6.7567,-6.7926,-6.8016,-6.9273,-6.9871,-7.0141,-7.053,-7.0919,-7.1128,-7.1248,-7.1338,-7.1547,-7.1846,-7.1936,-7.1667,-7.1966,-7.1906,-7.1667,-7.1906,-7.1816,-7.1547,-7.1278,-7.1248,-7.1427,-7.1577,-7.1846,-7.2265,-7.2774,-7.3133,-7.3253,-7.3762,-7.4121,-7.43,-7.4599,-7.4779,-7.4779,-7.4869,-7.4869,-7.4869,-7.4869,-7.4869,-7.4869,-7.4869,-7.4869,-7.4869,-7.4869,-7.4869,-7.4869,-7.4869,-7.4869,-7.4869,-7.4869,-7.4869,-7.4869,-7.4869,-7.4869,-7.4869,-7.4869,-7.4869,-7.4869,-7.4869,-7.4869,-7.4869,-7.4869,-7.4869,-7.4869,-7.4869,-7.4869,-7.4869,-7.4869,-7.4869,-7.4869,-7.4869,-7.4869,-7.4869,-7.4869,-7.4749,-7.427,-7.3672,-7.3103,-7.2325,-7.1547,-7.1158,-7.1009,-7.0949,-7.0919,-7.0919,-7.0919,-7.0919,-7.0919,-7.0919,-7.0889,-6.3137,-6.3137,-6.3137,-6.3137,-6.3137,-6.3137,-6.3137,-6.3137,-6.3137,-6.3137,-6.3169,-6.3677,-6.3947,-6.4366,-6.5323,-6.6191,-6.6819,-6.6999,-6.7328,-6.7448,-6.7388,-6.7148,-6.7208,-6.7567,-6.8046,-6.8256,-6.9363,-6.9931,-7.0171,-7.0769,-7.1278,-7.1727,-7.1667,-7.2176,-7.2445,-7.2565,-7.2744,-7.2595,-7.2804,-7.2774,-7.2654,-7.2744,-7.2714,-7.2565,-7.2206,-7.2086,-7.2684,-7.2355,-7.2325,-7.2834,-7.3462,-7.3821,-7.3941,-7.433,-7.4599,-7.4689,-7.4749,-7.4869,-7.4869,-7.4869,-7.4869,-7.4869,-7.4869,-7.4869,-7.4869,-7.4869,-7.4869,-7.4869,-7.4869,-7.4958,-7.4929,-7.4869,-7.4899,-7.5048,-7.5018,-7.4869,-7.4869,-7.4869,-7.4869,-7.4869,-7.4869,-7.4869,-7.4869,-7.4869,-7.4869,-7.4869,-7.4869,-7.4869,-7.4869,-7.4869,-7.4869,-7.4869,-7.4869,-7.4869,-7.4869,-7.4869,-7.4869,-7.4869,-7.4869,-7.4869,-7.4719,-7.4121,-7.3373,-7.2744,-7.2026,-7.1547,-7.1098,-7.0979,-7.0919,-7.0919,-7.0919,-7.0919,-7.0919,-7.0919,-7.0919,-6.3137,-6.3137,-6.3137,-6.3137,-6.3137,-6.3137,-6.3137,-6.3137,-6.3137,-6.3137,-6.3109,-6.3318,-6.3438,-6.3797,-6.4725,-6.5503,-6.5892,-6.67,-6.7089,-6.7208,-6.7089,-6.6999,-6.7238,-6.7687,-6.8196,-6.8704,-6.9572,-7.0231,-7.062,-7.1128,-7.1846,-7.2235,-7.2146,-7.2355,-7.2684,-7.3073,-7.3193,-7.3462,-7.3462,-7.3373,-7.3013,-7.3313,-7.3313,-7.2864,-7.2744,-7.2624,-7.2864,-7.3103,-7.3283,-7.3612,-7.4151,-7.436,-7.442,-7.4749,-7.4839,-7.4869,-7.4869,-7.4869,-7.4869,-7.4869,-7.4869,-7.4869,-7.4869,-7.4869,-7.4869,-7.4869,-7.4869,-7.4869,-7.4929,-7.5048,-7.5467,-7.5168,-7.4958,-7.5228,-7.5228,-7.5018,-7.4929,-7.4958,-7.4869,-7.4869,-7.4869,-7.4869,-7.4869,-7.4869,-7.4869,-7.4869,-7.4869,-7.4869,-7.4869,-7.4869,-7.4869,-7.4869,-7.4869,-7.4869,-7.4869,-7.4869,-7.4869,-7.4869,-7.4869,-7.4869,-7.4809,-7.43,-7.3582,-7.3013,-7.2385,-7.1727,-7.1248,-7.1009,-7.0919,-7.0919,-7.0919,-7.0919,-7.0919,-7.0919,-7.0919,-6.2899,-6.3137,-6.3137,-6.3137,-6.3137,-6.3137,-6.3137,-6.3137,-6.3137,-6.3137,-6.3137,-6.3137,-6.3137,-6.3438,-6.4425,-6.5054,-6.5503,-6.6311,-6.6849,-6.7089,-6.7238,-6.7268,-6.7508,-6.7986,-6.8704,-6.9273,-6.9692,-7.026,-7.0829,-7.1547,-7.2176,-7.2565,-7.2714,-7.3013,-7.3432,-7.3522,-7.3732,-7.4091,-7.4151,-7.4031,-7.3642,-7.3911,-7.4091,-7.3552,-7.3373,-7.3402,-7.3522,-7.3732,-7.3911,-7.418,-7.4569,-7.4809,-7.4869,-7.4869,-7.4869,-7.4869,-7.4869,-7.4869,-7.4869,-7.4869,-7.4869,-7.4869,-7.4869,-7.4869,-7.4869,-7.4899,-7.4929,-7.5258,-7.5258,-7.5437,-7.6066,-7.5856,-7.5736,-7.6066,-7.5587,-7.5347,-7.5198,-7.5168,-7.4988,-7.4869,-7.4869,-7.4869,-7.4869,-7.4869,-7.4869,-7.4869,-7.4869,-7.4869,-7.4869,-7.4869,-7.4869,-7.4869,-7.4869,-7.4869,-7.4869,-7.4869,-7.4869,-7.4869,-7.4869,-7.4869,-7.4719,-7.427,-7.3732,-7.3043,-7.2415,-7.1816,-7.1368,-7.1038,-7.0949,-7.0919,-7.0919,-7.0919,-7.0919,-7.0919,-7.0919,-6.248,-6.3107,-6.3049,-6.3049,-6.3019,-6.3079,-6.3137,-6.3137,-6.3137,-6.3137,-6.3137,-6.3137,-6.3137,-6.3348,-6.4366,-6.4874,-6.5293,-6.6281,-6.6939,-6.7059,-6.7537,-6.7807,-6.8136,-6.8585,-6.9213,-6.9812,-7.0141,-7.047,-7.1009,-7.1757,-7.2385,-7.3043,-7.3492,-7.3971,-7.4719,-7.4809,-7.4809,-7.4839,-7.4779,-7.4689,-7.4629,-7.4659,-7.4599,-7.445,-7.4091,-7.4091,-7.43,-7.418,-7.43,-7.4629,-7.4749,-7.4869,-7.4869,-7.4869,-7.4869,-7.4869,-7.4869,-7.4869,-7.4869,-7.4869,-7.4869,-7.4869,-7.4869,-7.4929,-7.4929,-7.4988,-7.5258,-7.5766,-7.5886,-7.6185,-7.6544,-7.6724,-7.6664,-7.6485,-7.6006,-7.5527,-7.5347,-7.5168,-7.4958,-7.4869,-7.4869,-7.4869,-7.4869,-7.4869,-7.4869,-7.4869,-7.4869,-7.4869,-7.4869,-7.4869,-7.4869,-7.4869,-7.4869,-7.4869,-7.4869,-7.4869,-7.4869,-7.4869,-7.4869,-7.4869,-7.4869,-7.4689,-7.4031,-7.3193,-7.2834,-7.2535,-7.1787,-7.1009,-7.1278,-7.1517,-7.1009,-7.0919,-7.0919,-7.0919,-7.0919,-6.1583,-6.1822,-6.2241,-6.2421,-6.248,-6.2929,-6.3137,-6.3137,-6.3137,-6.3137,-6.3137,-6.3137,-6.3137,-6.3378,-6.3917,-6.4605,-6.5173,-6.5802,-6.643,-6.7059,-6.7717,-6.7897,-6.8286,-6.9034,-6.9722,-7.0051,-7.035,-7.0889,-7.1607,-7.2235,-7.2894,-7.3582,-7.4151,-7.4629,-7.4809,-7.4869,-7.4869,-7.4869,-7.4869,-7.4869,-7.4869,-7.4869,-7.4869,-7.4869,-7.4599,-7.4629,-7.4839,-7.454,-7.4659,-7.4839,-7.4869,-7.4869,-7.4869,-7.4869,-7.4869,-7.4869,-7.4899,-7.4869,-7.4869,-7.4869,-7.4869,-7.4929,-7.4958,-7.5138,-7.5437,-7.5557,-7.5916,-7.6335,-7.6514,-7.6874,-7.7293,-7.6993,-7.6814,-7.6664,-7.6215,-7.5587,-7.5258,-7.5048,-7.4869,-7.4869,-7.4869,-7.4869,-7.4869,-7.4869,-7.4869,-7.4869,-7.4869,-7.4869,-7.4869,-7.4869,-7.4869,-7.4869,-7.4869,-7.4869,-7.4869,-7.4869,-7.4869,-7.4869,-7.4869,-7.4869,-7.4869,-7.4869,-7.442,-7.3612,-7.3492,-7.3313,-7.2475,-7.1906,-7.2146,-7.2176,-7.1577,-7.1098,-7.1038,-7.1009,-7.0919,-6.1044,-6.1493,-6.1912,-6.2241,-6.248,-6.2899,-6.3137,-6.3137,-6.3137,-6.3137,-6.3137,-6.3137,-6.3137,-6.3258,-6.3737,-6.4395,-6.5054,-6.5712,-6.637,-6.7059,-6.7956,-6.8286,-6.8764,-6.9423,-7.0021,-7.035,-7.0709,-7.1218,-7.1846,-7.2804,-7.3582,-7.418,-7.4629,-7.4779,-7.4869,-7.4869,-7.4869,-7.4869,-7.4869,-7.4869,-7.4869,-7.4869,-7.4869,-7.4869,-7.4839,-7.4869,-7.4869,-7.4869,-7.4869,-7.4869,-7.4869,-7.4869,-7.4869,-7.4869,-7.4869,-7.4869,-7.5138,-7.5198,-7.5288,-7.5587,-7.5677,-7.5677,-7.5377,-7.5467,-7.5886,-7.6066,-7.6544,-7.6933,-7.7113,-7.7472,-7.7801,-7.7382,-7.7083,-7.6933,-7.6335,-7.5707,-7.5407,-7.5228,-7.4869,-7.4869,-7.4869,-7.4869,-7.4869,-7.4869,-7.4869,-7.4869,-7.4869,-7.4869,-7.4869,-7.4869,-7.4869,-7.4869,-7.4869,-7.4869,-7.4869,-7.4869,-7.4869,-7.4869,-7.4869,-7.4869,-7.4869,-7.4869,-7.445,-7.4091,-7.3851,-7.3552,-7.3103,-7.2834,-7.2834,-7.2535,-7.1936,-7.1547,-7.1278,-7.1068,-7.0919,-6.0805,-6.1942,-6.2061,-6.2421,-6.2959,-6.3019,-6.3137,-6.3137,-6.3137,-6.3137,-6.3137,-6.3137,-6.3137,-6.3199,-6.3677,-6.4336,-6.4964,-6.5652,-6.64,-6.7268,-6.8315,-6.8704,-6.9213,-6.9752,-7.044,-7.0799,-7.1128,-7.1577,-7.2086,-7.3313,-7.424,-7.4659,-7.4809,-7.4869,-7.4869,-7.4869,-7.4869,-7.4869,-7.4869,-7.4869,-7.4869,-7.4869,-7.4869,-7.4869,-7.4869,-7.4869,-7.4869,-7.4869,-7.4869,-7.4869,-7.4869,-7.4869,-7.4869,-7.4869,-7.4869,-7.5108,-7.5587,-7.5736,-7.5976,-7.6365,-7.6514,-7.6395,-7.6275,-7.6096,-7.6215,-7.6664,-7.7083,-7.7412,-7.7592,-7.7981,-7.828,-7.7891,-7.7502,-7.7023,-7.6455,-7.6036,-7.5766,-7.5437,-7.5018,-7.4869,-7.4869,-7.4869,-7.4869,-7.4869,-7.4869,-7.4869,-7.4869,-7.4869,-7.4869,-7.4869,-7.4869,-7.4869,-7.4869,-7.4869,-7.4869,-7.4869,-7.4869,-7.4869,-7.4869,-7.4869,-7.4869,-7.4869,-7.4599,-7.436,-7.4091,-7.3821,-7.3672,-7.3432,-7.3223,-7.2864,-7.2684,-7.2026,-7.1757,-7.1128,-7.0919,-5.9877,-6.0715,-6.1194,-6.1792,-6.2391,-6.2869,-6.3137,-6.3137,-6.3137,-6.3137,-6.3137,-6.3137,-6.3137,-6.3166,-6.3288,-6.4036,-6.4725,-6.5413,-6.643,-6.7448,-6.8555,-6.9183,-6.9752,-7.032,-7.0979,-7.1398,-7.1727,-7.2206,-7.3223,-7.424,-7.4569,-7.4839,-7.4869,-7.4869,-7.4869,-7.4869,-7.4869,-7.4869,-7.4869,-7.4869,-7.4869,-7.4869,-7.4869,-7.4869,-7.4869,-7.4869,-7.4869,-7.4869,-7.4869,-7.4869,-7.4869,-7.4869,-7.4869,-7.4899,-7.4988,-7.5587,-7.5856,-7.6066,-7.6485,-7.6754,-7.6904,-7.7113,-7.7083,-7.7293,-7.7322,-7.7382,-7.7592,-7.7741,-7.7801,-7.8011,-7.7831,-7.7472,-7.7293,-7.6963,-7.6455,-7.6215,-7.5916,-7.5557,-7.5138,-7.4869,-7.4869,-7.4869,-7.4869,-7.4869,-7.4869,-7.4869,-7.4869,-7.4869,-7.4869,-7.4869,-7.4869,-7.4869,-7.4869,-7.4869,-7.4869,-7.4869,-7.4869,-7.4869,-7.4869,-7.4869,-7.4869,-7.4839,-7.4749,-7.4629,-7.445,-7.445,-7.448,-7.421,-7.3881,-7.4001,-7.3791,-7.2924,-7.2146,-7.1637,-7.1218,-5.9488,-6.0116,-6.0535,-6.1224,-6.2121,-6.281,-6.3137,-6.3137,-6.3137,-6.3137,-6.3137,-6.3137,-6.3137,-6.3137,-6.3169,-6.3767,-6.4964,-6.5173,-6.6071,-6.7717,-6.8675,-6.9333,-7.0021,-7.0829,-7.1427,-7.1906,-7.2475,-7.3103,-7.3941,-7.451,-7.4869,-7.4869,-7.4869,-7.4869,-7.4869,-7.4869,-7.4869,-7.4869,-7.4869,-7.4869,-7.4869,-7.4869,-7.4869,-7.4869,-7.4869,-7.4869,-7.4869,-7.4869,-7.4899,-7.4869,-7.4869,-7.4869,-7.4958,-7.5108,-7.5587,-7.6185,-7.6634,-7.6874,-7.7233,-7.7532,-7.7562,-7.7652,-7.7921,-7.7921,-7.7951,-7.7951,-7.7921,-7.7891,-7.7771,-7.7622,-7.7203,-7.6844,-7.6844,-7.6814,-7.6574,-7.6335,-7.6006,-7.5647,-7.5318,-7.4958,-7.4869,-7.4869,-7.4869,-7.4899,-7.4869,-7.4869,-7.4869,-7.4869,-7.4869,-7.4869,-7.4869,-7.4869,-7.4869,-7.4869,-7.4869,-7.4869,-7.4869,-7.4869,-7.4869,-7.4869,-7.4869,-7.4869,-7.4809,-7.4839,-7.4839,-7.4809,-7.4719,-7.4779,-7.4629,-7.4659,-7.445,-7.3672,-7.2924,-7.2475,-7.2086,-5.9488,-6.0086,-6.0206,-6.1044,-6.2091,-6.281,-6.3137,-6.3137,-6.3137,-6.3137,-6.3137,-6.3137,-6.3137,-6.3137,-6.3166,-6.3827,-6.4695,-6.5084,-6.6221,-6.8078,-6.8675,-6.9393,-7.035,-7.1218,-7.1816,-7.2385,-7.3013,-7.3702,-7.4061,-7.454,-7.4869,-7.4869,-7.4869,-7.4869,-7.4869,-7.4869,-7.4869,-7.4869,-7.4869,-7.4869,-7.4869,-7.4869,-7.4869,-7.4869,-7.4869,-7.4869,-7.4899,-7.4929,-7.4958,-7.4958,-7.4988,-7.5018,-7.5228,-7.5647,-7.6245,-7.6784,-7.7293,-7.7622,-7.7891,-7.822,-7.8489,-7.8609,-7.8759,-7.846,-7.834,-7.816,-7.8011,-7.7472,-7.7203,-7.7083,-7.6724,-7.6814,-7.6874,-7.6933,-7.6874,-7.6814,-7.6754,-7.6185,-7.5467,-7.5198,-7.5168,-7.5168,-7.5288,-7.5347,-7.5467,-7.5198,-7.5078,-7.5078,-7.4899,-7.4899,-7.4899,-7.4899,-7.4869,-7.4869,-7.4869,-7.4869,-7.4869,-7.4869,-7.4869,-7.4869,-7.4869,-7.4869,-7.4869,-7.4869,-7.4869,-7.4869,-7.4839,-7.4869,-7.4869,-7.4779,-7.454,-7.4151,-7.3672,-7.3283,-7.2834,-5.9488,-6.0176,-6.1194,-6.1822,-6.2151,-6.281,-6.3137,-6.3137,-6.3137,-6.3137,-6.3137,-6.3137,-6.3137,-6.3137,-6.3079,-6.3797,-6.4784,-6.5293,-6.661,-6.8046,-6.8974,-6.9692,-7.059,-7.1427,-7.2056,-7.2804,-7.3492,-7.4121,-7.451,-7.4779,-7.4869,-7.4869,-7.4869,-7.4869,-7.4869,-7.4869,-7.4869,-7.4869,-7.4869,-7.4869,-7.4869,-7.4869,-7.4869,-7.4899,-7.4929,-7.4988,-7.5138,-7.5437,-7.5557,-7.5647,-7.5677,-7.5677,-7.5707,-7.6275,-7.6904,-7.7472,-7.7741,-7.8071,-7.837,-7.8639,-7.8759,-7.8789,-7.8789,-7.8699,-7.8519,-7.822,-7.7771,-7.7083,-7.6694,-7.6604,-7.6544,-7.6784,-7.6993,-7.7083,-7.7233,-7.7382,-7.7532,-7.6664,-7.5736,-7.5557,-7.5497,-7.5587,-7.5736,-7.5826,-7.5976,-7.5916,-7.5736,-7.5557,-7.5138,-7.4988,-7.4929,-7.4929,-7.4869,-7.4869,-7.4869,-7.4869,-7.4869,-7.4869,-7.4869,-7.4869,-7.4869,-7.4869,-7.4869,-7.4869,-7.4869,-7.4869,-7.4869,-7.4869,-7.4869,-7.4839,-7.4779,-7.445,-7.448,-7.418,-7.3642,-5.889,-5.9368,-6.0655,-6.1373,-6.1762,-6.2361,-6.281,-6.3049,-6.3137,-6.3137,-6.3137,-6.3137,-6.3137,-6.3137,-6.3079,-6.3797,-6.4904,-6.5353,-6.6909,-6.8435,-6.9393,-7.0051,-7.0829,-7.1547,-7.1906,-7.2595,-7.3522,-7.418,-7.4779,-7.4869,-7.4869,-7.4869,-7.4869,-7.4869,-7.4869,-7.4869,-7.4869,-7.4869,-7.4869,-7.4869,-7.4869,-7.4869,-7.5108,-7.5168,-7.5347,-7.5407,-7.5796,-7.6155,-7.6215,-7.6185,-7.6036,-7.6125,-7.6245,-7.6604,-7.7143,-7.7682,-7.8071,-7.84,-7.8669,-7.8789,-7.8789,-7.8789,-7.8789,-7.8729,-7.822,-7.7951,-7.7891,-7.7322,-7.7322,-7.7233,-7.6933,-7.7023,-7.7322,-7.7532,-7.7801,-7.8041,-7.7861,-7.7293,-7.6604,-7.6245,-7.6215,-7.6275,-7.6365,-7.6365,-7.6485,-7.6455,-7.6335,-7.6066,-7.5617,-7.5198,-7.5138,-7.5018,-7.4988,-7.4899,-7.4869,-7.4869,-7.4869,-7.4869,-7.4869,-7.4869,-7.4869,-7.4869,-7.4869,-7.4869,-7.4869,-7.4869,-7.4869,-7.4869,-7.4869,-7.4869,-7.4869,-7.4809,-7.4869,-7.4869,-7.439,-5.8231,-5.8411,-5.9608,-6.0505,-6.1164,-6.1822,-6.248,-6.3019,-6.3137,-6.3137,-6.3137,-6.3137,-6.3137,-6.3137,-6.3258,-6.4096,-6.4934,-6.5802,-6.7358,-6.8704,-6.9632,-7.0231,-7.0859,-7.1547,-7.2056,-7.2654,-7.3492,-7.421,-7.4869,-7.4869,-7.4869,-7.4869,-7.4869,-7.4869,-7.4869,-7.4869,-7.4869,-7.4869,-7.4869,-7.4869,-7.4869,-7.4899,-7.5258,-7.5617,-7.5946,-7.6245,-7.6604,-7.6904,-7.6904,-7.6933,-7.6724,-7.6814,-7.6933,-7.7233,-7.7532,-7.8041,-7.843,-7.8639,-7.8789,-7.8789,-7.8789,-7.8789,-7.8789,-7.8579,-7.81,-7.7981,-7.7921,-7.7891,-7.7891,-7.7682,-7.7382,-7.7442,-7.7771,-7.7981,-7.831,-7.846,-7.81,-7.7771,-7.7352,-7.6874,-7.6874,-7.6904,-7.6963,-7.6963,-7.7023,-7.6993,-7.6814,-7.6514,-7.6185,-7.5826,-7.5587,-7.5347,-7.5168,-7.5078,-7.4899,-7.4869,-7.4869,-7.4869,-7.4869,-7.4869,-7.4869,-7.4869,-7.4869,-7.4869,-7.4869,-7.4869,-7.4869,-7.4869,-7.4869,-7.4869,-7.4869,-7.4869,-7.4869,-7.4869,-7.4869,-5.8441,-5.8979,-5.9787,-6.0475,-6.1134,-6.1792,-6.248,-6.3077,-6.3137,-6.3137,-6.3137,-6.3137,-6.3137,-6.3109,-6.3647,-6.4336,-6.5084,-6.6161,-6.7537,-6.8914,-6.9782,-7.038,-7.0949,-7.1607,-7.2505,-7.3163,-7.3702,-7.421,-7.4779,-7.4869,-7.4869,-7.4869,-7.4869,-7.4869,-7.4869,-7.4869,-7.4869,-7.4869,-7.4899,-7.4899,-7.4958,-7.5048,-7.5318,-7.5617,-7.5916,-7.6305,-7.6754,-7.7352,-7.7532,-7.7711,-7.7831,-7.7741,-7.7711,-7.7831,-7.813,-7.822,-7.8609,-7.8729,-7.8789,-7.8789,-7.8789,-7.8789,-7.8789,-7.8759,-7.8489,-7.8519,-7.846,-7.84,-7.828,-7.7951,-7.7801,-7.819,-7.8489,-7.8489,-7.8699,-7.84,-7.8071,-7.7891,-7.7622,-7.7442,-7.7412,-7.7502,-7.7622,-7.7741,-7.7921,-7.7861,-7.7622,-7.7293,-7.6754,-7.6395,-7.6066,-7.5796,-7.5497,-7.5108,-7.4899,-7.4869,-7.4869,-7.4869,-7.4869,-7.4869,-7.4869,-7.4869,-7.4869,-7.4869,-7.4869,-7.4869,-7.4869,-7.4869,-7.4869,-7.4869,-7.4869,-7.4869,-7.4869,-7.4869,-7.4869]}]]